<?xml version="1.0" encoding="UTF-8" standalone="no" ?>
<gpx xmlns="http://www.topografix.com/GPX/1/1" xmlns:xsi="http://www.w3.org/2001/XMLSchema-instance" xsi:schemaLocation="http://www.topografix.com/GPX/1/1 http://www.topografix.com/GPX/1/1/gpx.xsd" version="1.1" creator="VisuGPX - https://www.visugpx.com">
  <metadata>
    <name>6-5-22 Saugues Sauvage</name>
  </metadata>
  <trk>
    <name><![CDATA[2022-05-06 Saugues/Le Sauvage]]></name>
    <trkseg>
      <trkpt lat="44.96112" lon="3.54857">
        <ele>957.61</ele>
        <time>2022-05-05T19:27:21Z</time>
      </trkpt>
      <trkpt lat="44.96112" lon="3.54857">
        <ele>957.61</ele>
        <time>2022-05-05T19:27:22Z</time>
      </trkpt>
      <trkpt lat="44.96112" lon="3.54857">
        <ele>957.61</ele>
        <time>2022-05-05T19:27:29Z</time>
      </trkpt>
      <trkpt lat="44.96062" lon="3.54854">
        <ele>953.28</ele>
        <time>2022-05-06T05:58:36Z</time>
      </trkpt>
      <trkpt lat="44.96082" lon="3.54829">
        <ele>953.28</ele>
        <time>2022-05-06T05:58:59Z</time>
      </trkpt>
      <trkpt lat="44.96076" lon="3.54827">
        <ele>953.28</ele>
        <time>2022-05-06T05:59:17Z</time>
      </trkpt>
      <trkpt lat="44.9608" lon="3.54832">
        <ele>953.28</ele>
        <time>2022-05-06T05:59:47Z</time>
      </trkpt>
      <trkpt lat="44.96081" lon="3.54831">
        <ele>953.28</ele>
        <time>2022-05-06T06:00:04Z</time>
      </trkpt>
      <trkpt lat="44.96085" lon="3.54823">
        <ele>953.28</ele>
        <time>2022-05-06T06:00:22Z</time>
      </trkpt>
      <trkpt lat="44.96079" lon="3.54818">
        <ele>952.32</ele>
        <time>2022-05-06T06:00:36Z</time>
      </trkpt>
      <trkpt lat="44.96074" lon="3.54806">
        <ele>954.73</ele>
        <time>2022-05-06T06:01:00Z</time>
      </trkpt>
      <trkpt lat="44.96081" lon="3.5478">
        <ele>955.69</ele>
        <time>2022-05-06T06:01:20Z</time>
      </trkpt>
      <trkpt lat="44.96079" lon="3.54765">
        <ele>955.69</ele>
        <time>2022-05-06T06:01:31Z</time>
      </trkpt>
      <trkpt lat="44.96061" lon="3.54753">
        <ele>956.17</ele>
        <time>2022-05-06T06:01:49Z</time>
      </trkpt>
      <trkpt lat="44.96059" lon="3.54745">
        <ele>956.17</ele>
        <time>2022-05-06T06:02:01Z</time>
      </trkpt>
      <trkpt lat="44.9606" lon="3.54729">
        <ele>956.17</ele>
        <time>2022-05-06T06:02:18Z</time>
      </trkpt>
      <trkpt lat="44.96062" lon="3.54712">
        <ele>955.69</ele>
        <time>2022-05-06T06:02:33Z</time>
      </trkpt>
      <trkpt lat="44.9605" lon="3.54702">
        <ele>955.21</ele>
        <time>2022-05-06T06:02:51Z</time>
      </trkpt>
      <trkpt lat="44.96045" lon="3.54704">
        <ele>954.73</ele>
        <time>2022-05-06T06:03:05Z</time>
      </trkpt>
      <trkpt lat="44.96042" lon="3.54724">
        <ele>956.17</ele>
        <time>2022-05-06T06:03:27Z</time>
      </trkpt>
      <trkpt lat="44.96042" lon="3.54736">
        <ele>957.13</ele>
        <time>2022-05-06T06:03:45Z</time>
      </trkpt>
      <trkpt lat="44.96044" lon="3.54741">
        <ele>957.61</ele>
        <time>2022-05-06T06:04:14Z</time>
      </trkpt>
      <trkpt lat="44.96044" lon="3.54742">
        <ele>957.61</ele>
        <time>2022-05-06T06:04:15Z</time>
      </trkpt>
      <trkpt lat="44.96045" lon="3.54745">
        <ele>957.13</ele>
        <time>2022-05-06T06:04:46Z</time>
      </trkpt>
      <trkpt lat="44.96043" lon="3.54749">
        <ele>957.13</ele>
        <time>2022-05-06T06:05:13Z</time>
      </trkpt>
      <trkpt lat="44.96047" lon="3.54746">
        <ele>956.17</ele>
        <time>2022-05-06T06:05:48Z</time>
      </trkpt>
      <trkpt lat="44.96045" lon="3.54743">
        <ele>956.65</ele>
        <time>2022-05-06T06:05:57Z</time>
      </trkpt>
      <trkpt lat="44.96058" lon="3.54742">
        <ele>956.65</ele>
        <time>2022-05-06T06:06:36Z</time>
      </trkpt>
      <trkpt lat="44.96058" lon="3.54744">
        <ele>956.65</ele>
        <time>2022-05-06T06:07:10Z</time>
      </trkpt>
      <trkpt lat="44.96049" lon="3.54748">
        <ele>956.17</ele>
        <time>2022-05-06T06:07:46Z</time>
      </trkpt>
      <trkpt lat="44.96049" lon="3.54742">
        <ele>955.69</ele>
        <time>2022-05-06T06:08:00Z</time>
      </trkpt>
      <trkpt lat="44.96047" lon="3.54741">
        <ele>955.69</ele>
        <time>2022-05-06T06:08:31Z</time>
      </trkpt>
      <trkpt lat="44.96048" lon="3.54742">
        <ele>955.69</ele>
        <time>2022-05-06T06:08:57Z</time>
      </trkpt>
      <trkpt lat="44.96049" lon="3.54742">
        <ele>955.69</ele>
        <time>2022-05-06T06:09:30Z</time>
      </trkpt>
      <trkpt lat="44.96053" lon="3.54742">
        <ele>955.69</ele>
        <time>2022-05-06T06:09:52Z</time>
      </trkpt>
      <trkpt lat="44.96055" lon="3.54746">
        <ele>955.69</ele>
        <time>2022-05-06T06:10:04Z</time>
      </trkpt>
      <trkpt lat="44.96053" lon="3.54747">
        <ele>955.21</ele>
        <time>2022-05-06T06:10:31Z</time>
      </trkpt>
      <trkpt lat="44.96039" lon="3.54753">
        <ele>955.21</ele>
        <time>2022-05-06T06:11:05Z</time>
      </trkpt>
      <trkpt lat="44.96039" lon="3.54756">
        <ele>955.21</ele>
        <time>2022-05-06T06:11:39Z</time>
      </trkpt>
      <trkpt lat="44.96042" lon="3.54754">
        <ele>955.21</ele>
        <time>2022-05-06T06:12:09Z</time>
      </trkpt>
      <trkpt lat="44.96051" lon="3.54756">
        <ele>955.21</ele>
        <time>2022-05-06T06:12:50Z</time>
      </trkpt>
      <trkpt lat="44.96041" lon="3.54756">
        <ele>955.21</ele>
        <time>2022-05-06T06:13:14Z</time>
      </trkpt>
      <trkpt lat="44.96041" lon="3.54752">
        <ele>955.21</ele>
        <time>2022-05-06T06:13:16Z</time>
      </trkpt>
      <trkpt lat="44.96038" lon="3.54752">
        <ele>955.21</ele>
        <time>2022-05-06T06:13:36Z</time>
      </trkpt>
      <trkpt lat="44.96035" lon="3.54748">
        <ele>955.21</ele>
        <time>2022-05-06T06:13:56Z</time>
      </trkpt>
      <trkpt lat="44.96035" lon="3.54748">
        <ele>955.21</ele>
        <time>2022-05-06T06:14:28Z</time>
      </trkpt>
      <trkpt lat="44.96033" lon="3.54748">
        <ele>955.21</ele>
        <time>2022-05-06T06:15:01Z</time>
      </trkpt>
      <trkpt lat="44.9602" lon="3.54755">
        <ele>955.21</ele>
        <time>2022-05-06T06:15:20Z</time>
      </trkpt>
      <trkpt lat="44.96021" lon="3.54759">
        <ele>955.21</ele>
        <time>2022-05-06T06:15:35Z</time>
      </trkpt>
      <trkpt lat="44.96013" lon="3.54762">
        <ele>955.21</ele>
        <time>2022-05-06T06:15:51Z</time>
      </trkpt>
      <trkpt lat="44.96007" lon="3.54769">
        <ele>955.21</ele>
        <time>2022-05-06T06:16:04Z</time>
      </trkpt>
      <trkpt lat="44.95994" lon="3.54766">
        <ele>956.17</ele>
        <time>2022-05-06T06:16:20Z</time>
      </trkpt>
      <trkpt lat="44.95978" lon="3.5476">
        <ele>955.21</ele>
        <time>2022-05-06T06:16:39Z</time>
      </trkpt>
      <trkpt lat="44.95963" lon="3.5476">
        <ele>954.25</ele>
        <time>2022-05-06T06:16:55Z</time>
      </trkpt>
      <trkpt lat="44.95962" lon="3.54752">
        <ele>954.25</ele>
        <time>2022-05-06T06:17:02Z</time>
      </trkpt>
      <trkpt lat="44.95962" lon="3.5475">
        <ele>954.25</ele>
        <time>2022-05-06T06:17:03Z</time>
      </trkpt>
      <trkpt lat="44.95963" lon="3.54724">
        <ele>954.25</ele>
        <time>2022-05-06T06:17:23Z</time>
      </trkpt>
      <trkpt lat="44.95967" lon="3.54704">
        <ele>953.77</ele>
        <time>2022-05-06T06:17:41Z</time>
      </trkpt>
      <trkpt lat="44.95971" lon="3.54683">
        <ele>953.77</ele>
        <time>2022-05-06T06:17:59Z</time>
      </trkpt>
      <trkpt lat="44.95969" lon="3.5468">
        <ele>953.28</ele>
        <time>2022-05-06T06:18:15Z</time>
      </trkpt>
      <trkpt lat="44.95973" lon="3.54664">
        <ele>952.8</ele>
        <time>2022-05-06T06:18:35Z</time>
      </trkpt>
      <trkpt lat="44.95974" lon="3.54662">
        <ele>952.8</ele>
        <time>2022-05-06T06:18:36Z</time>
      </trkpt>
      <trkpt lat="44.95969" lon="3.5465">
        <ele>952.8</ele>
        <time>2022-05-06T06:18:49Z</time>
      </trkpt>
      <trkpt lat="44.95968" lon="3.54643">
        <ele>952.8</ele>
        <time>2022-05-06T06:18:54Z</time>
      </trkpt>
      <trkpt lat="44.95967" lon="3.54638">
        <ele>952.8</ele>
        <time>2022-05-06T06:19:06Z</time>
      </trkpt>
      <trkpt lat="44.95964" lon="3.54629">
        <ele>952.32</ele>
        <time>2022-05-06T06:19:15Z</time>
      </trkpt>
      <trkpt lat="44.9596" lon="3.54624">
        <ele>952.32</ele>
        <time>2022-05-06T06:19:24Z</time>
      </trkpt>
      <trkpt lat="44.95966" lon="3.54606">
        <ele>951.84</ele>
        <time>2022-05-06T06:19:37Z</time>
      </trkpt>
      <trkpt lat="44.95965" lon="3.54598">
        <ele>951.36</ele>
        <time>2022-05-06T06:19:42Z</time>
      </trkpt>
      <trkpt lat="44.95964" lon="3.54595">
        <ele>951.36</ele>
        <time>2022-05-06T06:19:44Z</time>
      </trkpt>
      <trkpt lat="44.95946" lon="3.54591">
        <ele>950.4</ele>
        <time>2022-05-06T06:20:01Z</time>
      </trkpt>
      <trkpt lat="44.95936" lon="3.546">
        <ele>949.92</ele>
        <time>2022-05-06T06:20:16Z</time>
      </trkpt>
      <trkpt lat="44.95931" lon="3.54595">
        <ele>949.44</ele>
        <time>2022-05-06T06:20:38Z</time>
      </trkpt>
      <trkpt lat="44.95925" lon="3.54585">
        <ele>948.48</ele>
        <time>2022-05-06T06:20:51Z</time>
      </trkpt>
      <trkpt lat="44.95919" lon="3.54579">
        <ele>948</ele>
        <time>2022-05-06T06:21:03Z</time>
      </trkpt>
      <trkpt lat="44.95909" lon="3.54564">
        <ele>946.56</ele>
        <time>2022-05-06T06:21:20Z</time>
      </trkpt>
      <trkpt lat="44.95902" lon="3.54534">
        <ele>945.59</ele>
        <time>2022-05-06T06:21:39Z</time>
      </trkpt>
      <trkpt lat="44.959" lon="3.5451">
        <ele>945.11</ele>
        <time>2022-05-06T06:21:53Z</time>
      </trkpt>
      <trkpt lat="44.95899" lon="3.54508">
        <ele>945.11</ele>
        <time>2022-05-06T06:21:54Z</time>
      </trkpt>
      <trkpt lat="44.95899" lon="3.54506">
        <ele>945.11</ele>
        <time>2022-05-06T06:21:55Z</time>
      </trkpt>
      <trkpt lat="44.95898" lon="3.54491">
        <ele>944.15</ele>
        <time>2022-05-06T06:22:05Z</time>
      </trkpt>
      <trkpt lat="44.95897" lon="3.54489">
        <ele>944.15</ele>
        <time>2022-05-06T06:22:06Z</time>
      </trkpt>
      <trkpt lat="44.95897" lon="3.54488">
        <ele>944.15</ele>
        <time>2022-05-06T06:22:07Z</time>
      </trkpt>
      <trkpt lat="44.95897" lon="3.5448">
        <ele>943.67</ele>
        <time>2022-05-06T06:22:12Z</time>
      </trkpt>
      <trkpt lat="44.95895" lon="3.54471">
        <ele>943.67</ele>
        <time>2022-05-06T06:22:19Z</time>
      </trkpt>
      <trkpt lat="44.9589" lon="3.54448">
        <ele>942.23</ele>
        <time>2022-05-06T06:22:35Z</time>
      </trkpt>
      <trkpt lat="44.95886" lon="3.54443">
        <ele>941.75</ele>
        <time>2022-05-06T06:22:39Z</time>
      </trkpt>
      <trkpt lat="44.95885" lon="3.54442">
        <ele>941.27</ele>
        <time>2022-05-06T06:22:40Z</time>
      </trkpt>
      <trkpt lat="44.95884" lon="3.54441">
        <ele>941.27</ele>
        <time>2022-05-06T06:22:41Z</time>
      </trkpt>
      <trkpt lat="44.95883" lon="3.5444">
        <ele>941.27</ele>
        <time>2022-05-06T06:22:42Z</time>
      </trkpt>
      <trkpt lat="44.95882" lon="3.54439">
        <ele>941.27</ele>
        <time>2022-05-06T06:22:43Z</time>
      </trkpt>
      <trkpt lat="44.95881" lon="3.54438">
        <ele>941.27</ele>
        <time>2022-05-06T06:22:44Z</time>
      </trkpt>
      <trkpt lat="44.95877" lon="3.54434">
        <ele>940.79</ele>
        <time>2022-05-06T06:22:48Z</time>
      </trkpt>
      <trkpt lat="44.95868" lon="3.54423">
        <ele>939.83</ele>
        <time>2022-05-06T06:23:00Z</time>
      </trkpt>
      <trkpt lat="44.95862" lon="3.54416">
        <ele>939.35</ele>
        <time>2022-05-06T06:23:07Z</time>
      </trkpt>
      <trkpt lat="44.95848" lon="3.54399">
        <ele>937.42</ele>
        <time>2022-05-06T06:23:24Z</time>
      </trkpt>
      <trkpt lat="44.95834" lon="3.54373">
        <ele>935.98</ele>
        <time>2022-05-06T06:23:44Z</time>
      </trkpt>
      <trkpt lat="44.95825" lon="3.54348">
        <ele>934.54</ele>
        <time>2022-05-06T06:24:03Z</time>
      </trkpt>
      <trkpt lat="44.95824" lon="3.54347">
        <ele>934.54</ele>
        <time>2022-05-06T06:24:04Z</time>
      </trkpt>
      <trkpt lat="44.95825" lon="3.54345">
        <ele>934.54</ele>
        <time>2022-05-06T06:24:05Z</time>
      </trkpt>
      <trkpt lat="44.95825" lon="3.54343">
        <ele>934.54</ele>
        <time>2022-05-06T06:24:06Z</time>
      </trkpt>
      <trkpt lat="44.95826" lon="3.54341">
        <ele>934.54</ele>
        <time>2022-05-06T06:24:07Z</time>
      </trkpt>
      <trkpt lat="44.95826" lon="3.54339">
        <ele>934.06</ele>
        <time>2022-05-06T06:24:08Z</time>
      </trkpt>
      <trkpt lat="44.95826" lon="3.54338">
        <ele>934.06</ele>
        <time>2022-05-06T06:24:09Z</time>
      </trkpt>
      <trkpt lat="44.95825" lon="3.54336">
        <ele>934.06</ele>
        <time>2022-05-06T06:24:10Z</time>
      </trkpt>
      <trkpt lat="44.95825" lon="3.54334">
        <ele>934.06</ele>
        <time>2022-05-06T06:24:11Z</time>
      </trkpt>
      <trkpt lat="44.95814" lon="3.5431">
        <ele>933.1</ele>
        <time>2022-05-06T06:24:29Z</time>
      </trkpt>
      <trkpt lat="44.95804" lon="3.54292">
        <ele>932.14</ele>
        <time>2022-05-06T06:24:46Z</time>
      </trkpt>
      <trkpt lat="44.95803" lon="3.54288">
        <ele>932.14</ele>
        <time>2022-05-06T06:24:50Z</time>
      </trkpt>
      <trkpt lat="44.95802" lon="3.54287">
        <ele>931.65</ele>
        <time>2022-05-06T06:24:51Z</time>
      </trkpt>
      <trkpt lat="44.95801" lon="3.54286">
        <ele>931.65</ele>
        <time>2022-05-06T06:24:52Z</time>
      </trkpt>
      <trkpt lat="44.958" lon="3.54285">
        <ele>931.65</ele>
        <time>2022-05-06T06:24:53Z</time>
      </trkpt>
      <trkpt lat="44.95799" lon="3.54284">
        <ele>931.65</ele>
        <time>2022-05-06T06:24:54Z</time>
      </trkpt>
      <trkpt lat="44.95798" lon="3.54283">
        <ele>931.65</ele>
        <time>2022-05-06T06:24:55Z</time>
      </trkpt>
      <trkpt lat="44.95797" lon="3.54282">
        <ele>931.65</ele>
        <time>2022-05-06T06:24:56Z</time>
      </trkpt>
      <trkpt lat="44.95796" lon="3.5428">
        <ele>931.65</ele>
        <time>2022-05-06T06:24:57Z</time>
      </trkpt>
      <trkpt lat="44.95795" lon="3.5428">
        <ele>931.65</ele>
        <time>2022-05-06T06:24:58Z</time>
      </trkpt>
      <trkpt lat="44.95778" lon="3.5426">
        <ele>930.69</ele>
        <time>2022-05-06T06:25:17Z</time>
      </trkpt>
      <trkpt lat="44.95762" lon="3.54242">
        <ele>929.25</ele>
        <time>2022-05-06T06:25:34Z</time>
      </trkpt>
      <trkpt lat="44.95742" lon="3.54226">
        <ele>927.33</ele>
        <time>2022-05-06T06:25:53Z</time>
      </trkpt>
      <trkpt lat="44.95722" lon="3.54215">
        <ele>925.41</ele>
        <time>2022-05-06T06:26:12Z</time>
      </trkpt>
      <trkpt lat="44.95707" lon="3.54208">
        <ele>923.48</ele>
        <time>2022-05-06T06:26:28Z</time>
      </trkpt>
      <trkpt lat="44.95704" lon="3.54209">
        <ele>923.48</ele>
        <time>2022-05-06T06:26:34Z</time>
      </trkpt>
      <trkpt lat="44.95703" lon="3.54208">
        <ele>923.48</ele>
        <time>2022-05-06T06:26:35Z</time>
      </trkpt>
      <trkpt lat="44.95702" lon="3.54207">
        <ele>923.48</ele>
        <time>2022-05-06T06:26:36Z</time>
      </trkpt>
      <trkpt lat="44.95701" lon="3.54206">
        <ele>923.48</ele>
        <time>2022-05-06T06:26:37Z</time>
      </trkpt>
      <trkpt lat="44.957" lon="3.54205">
        <ele>923</ele>
        <time>2022-05-06T06:26:38Z</time>
      </trkpt>
      <trkpt lat="44.95686" lon="3.54197">
        <ele>922.04</ele>
        <time>2022-05-06T06:26:53Z</time>
      </trkpt>
      <trkpt lat="44.95683" lon="3.54195">
        <ele>922.04</ele>
        <time>2022-05-06T06:26:56Z</time>
      </trkpt>
      <trkpt lat="44.95681" lon="3.54194">
        <ele>922.04</ele>
        <time>2022-05-06T06:26:58Z</time>
      </trkpt>
      <trkpt lat="44.9568" lon="3.54193">
        <ele>922.04</ele>
        <time>2022-05-06T06:26:59Z</time>
      </trkpt>
      <trkpt lat="44.95676" lon="3.54189">
        <ele>921.56</ele>
        <time>2022-05-06T06:27:04Z</time>
      </trkpt>
      <trkpt lat="44.95675" lon="3.54188">
        <ele>921.56</ele>
        <time>2022-05-06T06:27:05Z</time>
      </trkpt>
      <trkpt lat="44.95674" lon="3.54187">
        <ele>921.56</ele>
        <time>2022-05-06T06:27:06Z</time>
      </trkpt>
      <trkpt lat="44.95673" lon="3.54187">
        <ele>921.56</ele>
        <time>2022-05-06T06:27:07Z</time>
      </trkpt>
      <trkpt lat="44.95671" lon="3.54186">
        <ele>921.08</ele>
        <time>2022-05-06T06:27:08Z</time>
      </trkpt>
      <trkpt lat="44.9567" lon="3.54186">
        <ele>921.08</ele>
        <time>2022-05-06T06:27:09Z</time>
      </trkpt>
      <trkpt lat="44.9566" lon="3.5418">
        <ele>920.6</ele>
        <time>2022-05-06T06:27:20Z</time>
      </trkpt>
      <trkpt lat="44.95649" lon="3.54174">
        <ele>919.64</ele>
        <time>2022-05-06T06:27:31Z</time>
      </trkpt>
      <trkpt lat="44.95645" lon="3.54173">
        <ele>919.64</ele>
        <time>2022-05-06T06:27:35Z</time>
      </trkpt>
      <trkpt lat="44.95643" lon="3.54171">
        <ele>919.64</ele>
        <time>2022-05-06T06:27:37Z</time>
      </trkpt>
      <trkpt lat="44.95642" lon="3.5417">
        <ele>919.64</ele>
        <time>2022-05-06T06:27:38Z</time>
      </trkpt>
      <trkpt lat="44.95625" lon="3.54148">
        <ele>918.68</ele>
        <time>2022-05-06T06:27:57Z</time>
      </trkpt>
      <trkpt lat="44.95626" lon="3.54142">
        <ele>918.68</ele>
        <time>2022-05-06T06:28:00Z</time>
      </trkpt>
      <trkpt lat="44.95631" lon="3.54124">
        <ele>917.72</ele>
        <time>2022-05-06T06:28:15Z</time>
      </trkpt>
      <trkpt lat="44.9563" lon="3.54119">
        <ele>917.24</ele>
        <time>2022-05-06T06:28:18Z</time>
      </trkpt>
      <trkpt lat="44.9563" lon="3.54117">
        <ele>917.24</ele>
        <time>2022-05-06T06:28:19Z</time>
      </trkpt>
      <trkpt lat="44.9563" lon="3.54116">
        <ele>917.24</ele>
        <time>2022-05-06T06:28:20Z</time>
      </trkpt>
      <trkpt lat="44.9563" lon="3.54114">
        <ele>917.24</ele>
        <time>2022-05-06T06:28:21Z</time>
      </trkpt>
      <trkpt lat="44.9563" lon="3.54112">
        <ele>917.24</ele>
        <time>2022-05-06T06:28:22Z</time>
      </trkpt>
      <trkpt lat="44.95631" lon="3.54111">
        <ele>917.24</ele>
        <time>2022-05-06T06:28:23Z</time>
      </trkpt>
      <trkpt lat="44.9563" lon="3.54105">
        <ele>917.24</ele>
        <time>2022-05-06T06:28:27Z</time>
      </trkpt>
      <trkpt lat="44.95614" lon="3.54087">
        <ele>917.72</ele>
        <time>2022-05-06T06:28:47Z</time>
      </trkpt>
      <trkpt lat="44.9561" lon="3.54082">
        <ele>917.72</ele>
        <time>2022-05-06T06:29:01Z</time>
      </trkpt>
      <trkpt lat="44.95608" lon="3.54077">
        <ele>917.72</ele>
        <time>2022-05-06T06:29:19Z</time>
      </trkpt>
      <trkpt lat="44.95608" lon="3.54077">
        <ele>917.24</ele>
        <time>2022-05-06T06:29:38Z</time>
      </trkpt>
      <trkpt lat="44.95611" lon="3.54079">
        <ele>917.24</ele>
        <time>2022-05-06T06:29:53Z</time>
      </trkpt>
      <trkpt lat="44.95608" lon="3.54073">
        <ele>917.24</ele>
        <time>2022-05-06T06:30:09Z</time>
      </trkpt>
      <trkpt lat="44.95609" lon="3.54077">
        <ele>917.24</ele>
        <time>2022-05-06T06:30:24Z</time>
      </trkpt>
      <trkpt lat="44.95611" lon="3.54077">
        <ele>917.24</ele>
        <time>2022-05-06T06:30:38Z</time>
      </trkpt>
      <trkpt lat="44.95609" lon="3.54076">
        <ele>917.72</ele>
        <time>2022-05-06T06:30:51Z</time>
      </trkpt>
      <trkpt lat="44.95609" lon="3.54075">
        <ele>917.72</ele>
        <time>2022-05-06T06:31:10Z</time>
      </trkpt>
      <trkpt lat="44.95609" lon="3.54073">
        <ele>917.72</ele>
        <time>2022-05-06T06:31:12Z</time>
      </trkpt>
      <trkpt lat="44.95613" lon="3.54066">
        <ele>917.24</ele>
        <time>2022-05-06T06:31:22Z</time>
      </trkpt>
      <trkpt lat="44.95617" lon="3.54059">
        <ele>916.75</ele>
        <time>2022-05-06T06:31:28Z</time>
      </trkpt>
      <trkpt lat="44.95618" lon="3.54044">
        <ele>916.27</ele>
        <time>2022-05-06T06:31:39Z</time>
      </trkpt>
      <trkpt lat="44.95603" lon="3.5401">
        <ele>915.31</ele>
        <time>2022-05-06T06:32:02Z</time>
      </trkpt>
      <trkpt lat="44.9559" lon="3.5397">
        <ele>915.79</ele>
        <time>2022-05-06T06:32:28Z</time>
      </trkpt>
      <trkpt lat="44.95581" lon="3.53933">
        <ele>915.79</ele>
        <time>2022-05-06T06:32:52Z</time>
      </trkpt>
      <trkpt lat="44.95568" lon="3.53904">
        <ele>916.75</ele>
        <time>2022-05-06T06:33:13Z</time>
      </trkpt>
      <trkpt lat="44.95565" lon="3.53889">
        <ele>916.75</ele>
        <time>2022-05-06T06:33:34Z</time>
      </trkpt>
      <trkpt lat="44.95565" lon="3.53889">
        <ele>916.75</ele>
        <time>2022-05-06T06:33:55Z</time>
      </trkpt>
      <trkpt lat="44.95561" lon="3.53875">
        <ele>916.27</ele>
        <time>2022-05-06T06:34:09Z</time>
      </trkpt>
      <trkpt lat="44.95557" lon="3.53868">
        <ele>917.72</ele>
        <time>2022-05-06T06:34:18Z</time>
      </trkpt>
      <trkpt lat="44.95556" lon="3.53867">
        <ele>917.72</ele>
        <time>2022-05-06T06:34:19Z</time>
      </trkpt>
      <trkpt lat="44.95555" lon="3.53867">
        <ele>917.72</ele>
        <time>2022-05-06T06:34:20Z</time>
      </trkpt>
      <trkpt lat="44.95554" lon="3.53867">
        <ele>917.72</ele>
        <time>2022-05-06T06:34:21Z</time>
      </trkpt>
      <trkpt lat="44.95553" lon="3.53867">
        <ele>917.72</ele>
        <time>2022-05-06T06:34:22Z</time>
      </trkpt>
      <trkpt lat="44.95551" lon="3.53867">
        <ele>917.72</ele>
        <time>2022-05-06T06:34:23Z</time>
      </trkpt>
      <trkpt lat="44.95548" lon="3.53867">
        <ele>917.24</ele>
        <time>2022-05-06T06:34:26Z</time>
      </trkpt>
      <trkpt lat="44.95547" lon="3.53867">
        <ele>917.24</ele>
        <time>2022-05-06T06:34:27Z</time>
      </trkpt>
      <trkpt lat="44.95528" lon="3.53868">
        <ele>917.24</ele>
        <time>2022-05-06T06:34:45Z</time>
      </trkpt>
      <trkpt lat="44.95511" lon="3.53866">
        <ele>916.75</ele>
        <time>2022-05-06T06:35:01Z</time>
      </trkpt>
      <trkpt lat="44.9551" lon="3.53866">
        <ele>916.75</ele>
        <time>2022-05-06T06:35:02Z</time>
      </trkpt>
      <trkpt lat="44.95495" lon="3.53862">
        <ele>916.75</ele>
        <time>2022-05-06T06:35:17Z</time>
      </trkpt>
      <trkpt lat="44.95471" lon="3.5385">
        <ele>916.75</ele>
        <time>2022-05-06T06:35:38Z</time>
      </trkpt>
      <trkpt lat="44.95454" lon="3.53841">
        <ele>916.75</ele>
        <time>2022-05-06T06:35:54Z</time>
      </trkpt>
      <trkpt lat="44.95433" lon="3.53828">
        <ele>916.75</ele>
        <time>2022-05-06T06:36:14Z</time>
      </trkpt>
      <trkpt lat="44.95411" lon="3.53804">
        <ele>917.24</ele>
        <time>2022-05-06T06:36:39Z</time>
      </trkpt>
      <trkpt lat="44.95392" lon="3.53783">
        <ele>917.24</ele>
        <time>2022-05-06T06:37:02Z</time>
      </trkpt>
      <trkpt lat="44.95374" lon="3.53763">
        <ele>918.2</ele>
        <time>2022-05-06T06:37:25Z</time>
      </trkpt>
      <trkpt lat="44.95349" lon="3.53744">
        <ele>918.2</ele>
        <time>2022-05-06T06:37:49Z</time>
      </trkpt>
      <trkpt lat="44.9533" lon="3.53733">
        <ele>918.2</ele>
        <time>2022-05-06T06:38:11Z</time>
      </trkpt>
      <trkpt lat="44.95329" lon="3.53732">
        <ele>918.2</ele>
        <time>2022-05-06T06:38:12Z</time>
      </trkpt>
      <trkpt lat="44.95328" lon="3.53732">
        <ele>918.2</ele>
        <time>2022-05-06T06:38:13Z</time>
      </trkpt>
      <trkpt lat="44.95327" lon="3.53731">
        <ele>918.2</ele>
        <time>2022-05-06T06:38:14Z</time>
      </trkpt>
      <trkpt lat="44.95326" lon="3.53731">
        <ele>918.2</ele>
        <time>2022-05-06T06:38:15Z</time>
      </trkpt>
      <trkpt lat="44.95325" lon="3.5373">
        <ele>918.2</ele>
        <time>2022-05-06T06:38:16Z</time>
      </trkpt>
      <trkpt lat="44.95324" lon="3.5373">
        <ele>918.2</ele>
        <time>2022-05-06T06:38:17Z</time>
      </trkpt>
      <trkpt lat="44.95306" lon="3.53721">
        <ele>918.2</ele>
        <time>2022-05-06T06:38:34Z</time>
      </trkpt>
      <trkpt lat="44.95284" lon="3.53713">
        <ele>918.68</ele>
        <time>2022-05-06T06:38:54Z</time>
      </trkpt>
      <trkpt lat="44.95263" lon="3.53694">
        <ele>919.64</ele>
        <time>2022-05-06T06:39:17Z</time>
      </trkpt>
      <trkpt lat="44.95251" lon="3.53669">
        <ele>920.6</ele>
        <time>2022-05-06T06:39:39Z</time>
      </trkpt>
      <trkpt lat="44.95243" lon="3.53642">
        <ele>921.08</ele>
        <time>2022-05-06T06:39:59Z</time>
      </trkpt>
      <trkpt lat="44.95231" lon="3.53602">
        <ele>922.52</ele>
        <time>2022-05-06T06:40:26Z</time>
      </trkpt>
      <trkpt lat="44.95222" lon="3.53578">
        <ele>923</ele>
        <time>2022-05-06T06:40:44Z</time>
      </trkpt>
      <trkpt lat="44.95212" lon="3.53557">
        <ele>923.48</ele>
        <time>2022-05-06T06:41:04Z</time>
      </trkpt>
      <trkpt lat="44.9521" lon="3.53554">
        <ele>923.48</ele>
        <time>2022-05-06T06:41:07Z</time>
      </trkpt>
      <trkpt lat="44.9521" lon="3.53553">
        <ele>923.48</ele>
        <time>2022-05-06T06:41:08Z</time>
      </trkpt>
      <trkpt lat="44.95209" lon="3.53552">
        <ele>923.48</ele>
        <time>2022-05-06T06:41:09Z</time>
      </trkpt>
      <trkpt lat="44.95202" lon="3.53538">
        <ele>923.96</ele>
        <time>2022-05-06T06:41:22Z</time>
      </trkpt>
      <trkpt lat="44.95202" lon="3.53537">
        <ele>923.96</ele>
        <time>2022-05-06T06:41:23Z</time>
      </trkpt>
      <trkpt lat="44.95201" lon="3.53536">
        <ele>923.96</ele>
        <time>2022-05-06T06:41:24Z</time>
      </trkpt>
      <trkpt lat="44.952" lon="3.53535">
        <ele>923.96</ele>
        <time>2022-05-06T06:41:25Z</time>
      </trkpt>
      <trkpt lat="44.952" lon="3.53533">
        <ele>923.96</ele>
        <time>2022-05-06T06:41:26Z</time>
      </trkpt>
      <trkpt lat="44.95199" lon="3.53532">
        <ele>923.96</ele>
        <time>2022-05-06T06:41:27Z</time>
      </trkpt>
      <trkpt lat="44.95184" lon="3.53501">
        <ele>923.96</ele>
        <time>2022-05-06T06:41:50Z</time>
      </trkpt>
      <trkpt lat="44.95175" lon="3.53478">
        <ele>923.96</ele>
        <time>2022-05-06T06:42:07Z</time>
      </trkpt>
      <trkpt lat="44.9516" lon="3.53448">
        <ele>924.45</ele>
        <time>2022-05-06T06:42:30Z</time>
      </trkpt>
      <trkpt lat="44.95143" lon="3.53416">
        <ele>923.96</ele>
        <time>2022-05-06T06:42:54Z</time>
      </trkpt>
      <trkpt lat="44.95127" lon="3.53385">
        <ele>924.45</ele>
        <time>2022-05-06T06:43:18Z</time>
      </trkpt>
      <trkpt lat="44.95109" lon="3.53352">
        <ele>924.45</ele>
        <time>2022-05-06T06:43:43Z</time>
      </trkpt>
      <trkpt lat="44.95085" lon="3.53324">
        <ele>924.45</ele>
        <time>2022-05-06T06:44:09Z</time>
      </trkpt>
      <trkpt lat="44.95075" lon="3.53314">
        <ele>924.45</ele>
        <time>2022-05-06T06:44:21Z</time>
      </trkpt>
      <trkpt lat="44.95042" lon="3.5329">
        <ele>924.45</ele>
        <time>2022-05-06T06:44:51Z</time>
      </trkpt>
      <trkpt lat="44.95018" lon="3.53269">
        <ele>925.41</ele>
        <time>2022-05-06T06:45:16Z</time>
      </trkpt>
      <trkpt lat="44.95" lon="3.53262">
        <ele>925.41</ele>
        <time>2022-05-06T06:45:33Z</time>
      </trkpt>
      <trkpt lat="44.94963" lon="3.53263">
        <ele>925.89</ele>
        <time>2022-05-06T06:46:02Z</time>
      </trkpt>
      <trkpt lat="44.94933" lon="3.53259">
        <ele>927.33</ele>
        <time>2022-05-06T06:46:29Z</time>
      </trkpt>
      <trkpt lat="44.9491" lon="3.53253">
        <ele>928.29</ele>
        <time>2022-05-06T06:46:51Z</time>
      </trkpt>
      <trkpt lat="44.94887" lon="3.53244">
        <ele>929.25</ele>
        <time>2022-05-06T06:47:13Z</time>
      </trkpt>
      <trkpt lat="44.94859" lon="3.53233">
        <ele>931.17</ele>
        <time>2022-05-06T06:47:39Z</time>
      </trkpt>
      <trkpt lat="44.94833" lon="3.5322">
        <ele>933.1</ele>
        <time>2022-05-06T06:48:05Z</time>
      </trkpt>
      <trkpt lat="44.94811" lon="3.53204">
        <ele>935.5</ele>
        <time>2022-05-06T06:48:29Z</time>
      </trkpt>
      <trkpt lat="44.94793" lon="3.53189">
        <ele>936.94</ele>
        <time>2022-05-06T06:48:50Z</time>
      </trkpt>
      <trkpt lat="44.94771" lon="3.53169">
        <ele>939.35</ele>
        <time>2022-05-06T06:49:15Z</time>
      </trkpt>
      <trkpt lat="44.94746" lon="3.53151">
        <ele>941.75</ele>
        <time>2022-05-06T06:49:41Z</time>
      </trkpt>
      <trkpt lat="44.94728" lon="3.53139">
        <ele>942.71</ele>
        <time>2022-05-06T06:49:59Z</time>
      </trkpt>
      <trkpt lat="44.94712" lon="3.53129">
        <ele>945.11</ele>
        <time>2022-05-06T06:50:15Z</time>
      </trkpt>
      <trkpt lat="44.9469" lon="3.53113">
        <ele>946.07</ele>
        <time>2022-05-06T06:50:39Z</time>
      </trkpt>
      <trkpt lat="44.94669" lon="3.53099">
        <ele>947.52</ele>
        <time>2022-05-06T06:51:00Z</time>
      </trkpt>
      <trkpt lat="44.94645" lon="3.53084">
        <ele>948.96</ele>
        <time>2022-05-06T06:51:24Z</time>
      </trkpt>
      <trkpt lat="44.94624" lon="3.53069">
        <ele>950.88</ele>
        <time>2022-05-06T06:51:47Z</time>
      </trkpt>
      <trkpt lat="44.94623" lon="3.53068">
        <ele>951.36</ele>
        <time>2022-05-06T06:51:48Z</time>
      </trkpt>
      <trkpt lat="44.94622" lon="3.53067">
        <ele>951.36</ele>
        <time>2022-05-06T06:51:49Z</time>
      </trkpt>
      <trkpt lat="44.94621" lon="3.53066">
        <ele>951.36</ele>
        <time>2022-05-06T06:51:50Z</time>
      </trkpt>
      <trkpt lat="44.9462" lon="3.53065">
        <ele>951.36</ele>
        <time>2022-05-06T06:51:51Z</time>
      </trkpt>
      <trkpt lat="44.94619" lon="3.53064">
        <ele>951.36</ele>
        <time>2022-05-06T06:51:52Z</time>
      </trkpt>
      <trkpt lat="44.94618" lon="3.53063">
        <ele>951.36</ele>
        <time>2022-05-06T06:51:53Z</time>
      </trkpt>
      <trkpt lat="44.94591" lon="3.5304">
        <ele>953.77</ele>
        <time>2022-05-06T06:52:21Z</time>
      </trkpt>
      <trkpt lat="44.94562" lon="3.53026">
        <ele>955.21</ele>
        <time>2022-05-06T06:52:49Z</time>
      </trkpt>
      <trkpt lat="44.94534" lon="3.53015">
        <ele>957.61</ele>
        <time>2022-05-06T06:53:16Z</time>
      </trkpt>
      <trkpt lat="44.94508" lon="3.53003">
        <ele>960.49</ele>
        <time>2022-05-06T06:53:42Z</time>
      </trkpt>
      <trkpt lat="44.94489" lon="3.52987">
        <ele>962.42</ele>
        <time>2022-05-06T06:54:04Z</time>
      </trkpt>
      <trkpt lat="44.94471" lon="3.52958">
        <ele>965.3</ele>
        <time>2022-05-06T06:54:30Z</time>
      </trkpt>
      <trkpt lat="44.94455" lon="3.52927">
        <ele>967.7</ele>
        <time>2022-05-06T06:54:55Z</time>
      </trkpt>
      <trkpt lat="44.94437" lon="3.52903">
        <ele>969.15</ele>
        <time>2022-05-06T06:55:18Z</time>
      </trkpt>
      <trkpt lat="44.94413" lon="3.52876">
        <ele>970.11</ele>
        <time>2022-05-06T06:55:44Z</time>
      </trkpt>
      <trkpt lat="44.9439" lon="3.52848">
        <ele>971.07</ele>
        <time>2022-05-06T06:56:11Z</time>
      </trkpt>
      <trkpt lat="44.94367" lon="3.52825">
        <ele>972.51</ele>
        <time>2022-05-06T06:56:36Z</time>
      </trkpt>
      <trkpt lat="44.94343" lon="3.52805">
        <ele>974.43</ele>
        <time>2022-05-06T06:57:01Z</time>
      </trkpt>
      <trkpt lat="44.94331" lon="3.52799">
        <ele>975.39</ele>
        <time>2022-05-06T06:57:20Z</time>
      </trkpt>
      <trkpt lat="44.94326" lon="3.52798">
        <ele>975.88</ele>
        <time>2022-05-06T06:57:28Z</time>
      </trkpt>
      <trkpt lat="44.94324" lon="3.52798">
        <ele>975.88</ele>
        <time>2022-05-06T06:57:29Z</time>
      </trkpt>
      <trkpt lat="44.94299" lon="3.52806">
        <ele>977.8</ele>
        <time>2022-05-06T06:57:54Z</time>
      </trkpt>
      <trkpt lat="44.94271" lon="3.52816">
        <ele>979.72</ele>
        <time>2022-05-06T06:58:20Z</time>
      </trkpt>
      <trkpt lat="44.94243" lon="3.52826">
        <ele>981.16</ele>
        <time>2022-05-06T06:58:46Z</time>
      </trkpt>
      <trkpt lat="44.94242" lon="3.52828">
        <ele>981.64</ele>
        <time>2022-05-06T06:58:57Z</time>
      </trkpt>
      <trkpt lat="44.94243" lon="3.52828">
        <ele>982.12</ele>
        <time>2022-05-06T06:59:30Z</time>
      </trkpt>
      <trkpt lat="44.94243" lon="3.52828">
        <ele>982.12</ele>
        <time>2022-05-06T07:00:19Z</time>
      </trkpt>
      <trkpt lat="44.94241" lon="3.52827">
        <ele>982.12</ele>
        <time>2022-05-06T07:00:51Z</time>
      </trkpt>
      <trkpt lat="44.9424" lon="3.52828">
        <ele>982.12</ele>
        <time>2022-05-06T07:00:52Z</time>
      </trkpt>
      <trkpt lat="44.94239" lon="3.52828">
        <ele>982.12</ele>
        <time>2022-05-06T07:00:53Z</time>
      </trkpt>
      <trkpt lat="44.94235" lon="3.52832">
        <ele>982.6</ele>
        <time>2022-05-06T07:01:06Z</time>
      </trkpt>
      <trkpt lat="44.94235" lon="3.52832">
        <ele>982.12</ele>
        <time>2022-05-06T07:01:32Z</time>
      </trkpt>
      <trkpt lat="44.9423" lon="3.52834">
        <ele>983.09</ele>
        <time>2022-05-06T07:02:02Z</time>
      </trkpt>
      <trkpt lat="44.94205" lon="3.52844">
        <ele>983.09</ele>
        <time>2022-05-06T07:02:24Z</time>
      </trkpt>
      <trkpt lat="44.94179" lon="3.52853">
        <ele>983.57</ele>
        <time>2022-05-06T07:02:48Z</time>
      </trkpt>
      <trkpt lat="44.94155" lon="3.52859">
        <ele>983.57</ele>
        <time>2022-05-06T07:03:10Z</time>
      </trkpt>
      <trkpt lat="44.94146" lon="3.52858">
        <ele>983.57</ele>
        <time>2022-05-06T07:03:25Z</time>
      </trkpt>
      <trkpt lat="44.94145" lon="3.52857">
        <ele>983.09</ele>
        <time>2022-05-06T07:03:47Z</time>
      </trkpt>
      <trkpt lat="44.94145" lon="3.52857">
        <ele>983.57</ele>
        <time>2022-05-06T07:04:14Z</time>
      </trkpt>
      <trkpt lat="44.94141" lon="3.52856">
        <ele>983.09</ele>
        <time>2022-05-06T07:04:36Z</time>
      </trkpt>
      <trkpt lat="44.94136" lon="3.52855">
        <ele>983.09</ele>
        <time>2022-05-06T07:04:41Z</time>
      </trkpt>
      <trkpt lat="44.94135" lon="3.52854">
        <ele>982.6</ele>
        <time>2022-05-06T07:04:42Z</time>
      </trkpt>
      <trkpt lat="44.94134" lon="3.52854">
        <ele>982.6</ele>
        <time>2022-05-06T07:04:43Z</time>
      </trkpt>
      <trkpt lat="44.94113" lon="3.52848">
        <ele>980.68</ele>
        <time>2022-05-06T07:05:04Z</time>
      </trkpt>
      <trkpt lat="44.94081" lon="3.52849">
        <ele>978.76</ele>
        <time>2022-05-06T07:05:29Z</time>
      </trkpt>
      <trkpt lat="44.94052" lon="3.52864">
        <ele>978.76</ele>
        <time>2022-05-06T07:05:54Z</time>
      </trkpt>
      <trkpt lat="44.94023" lon="3.52879">
        <ele>979.24</ele>
        <time>2022-05-06T07:06:20Z</time>
      </trkpt>
      <trkpt lat="44.94005" lon="3.52911">
        <ele>980.2</ele>
        <time>2022-05-06T07:06:46Z</time>
      </trkpt>
      <trkpt lat="44.93999" lon="3.52941">
        <ele>982.12</ele>
        <time>2022-05-06T07:07:07Z</time>
      </trkpt>
      <trkpt lat="44.93993" lon="3.52963">
        <ele>984.53</ele>
        <time>2022-05-06T07:07:26Z</time>
      </trkpt>
      <trkpt lat="44.93984" lon="3.52972">
        <ele>987.41</ele>
        <time>2022-05-06T07:07:37Z</time>
      </trkpt>
      <trkpt lat="44.93983" lon="3.52973">
        <ele>987.89</ele>
        <time>2022-05-06T07:07:38Z</time>
      </trkpt>
      <trkpt lat="44.93968" lon="3.5298">
        <ele>989.81</ele>
        <time>2022-05-06T07:07:56Z</time>
      </trkpt>
      <trkpt lat="44.93951" lon="3.52984">
        <ele>992.22</ele>
        <time>2022-05-06T07:08:17Z</time>
      </trkpt>
      <trkpt lat="44.9395" lon="3.52984">
        <ele>993.18</ele>
        <time>2022-05-06T07:08:33Z</time>
      </trkpt>
      <trkpt lat="44.93945" lon="3.52988">
        <ele>993.18</ele>
        <time>2022-05-06T07:08:51Z</time>
      </trkpt>
      <trkpt lat="44.93929" lon="3.52989">
        <ele>994.62</ele>
        <time>2022-05-06T07:09:08Z</time>
      </trkpt>
      <trkpt lat="44.93913" lon="3.52984">
        <ele>996.06</ele>
        <time>2022-05-06T07:09:27Z</time>
      </trkpt>
      <trkpt lat="44.93894" lon="3.5298">
        <ele>997.99</ele>
        <time>2022-05-06T07:09:46Z</time>
      </trkpt>
      <trkpt lat="44.9388" lon="3.52977">
        <ele>998.47</ele>
        <time>2022-05-06T07:10:00Z</time>
      </trkpt>
      <trkpt lat="44.93878" lon="3.52976">
        <ele>998.47</ele>
        <time>2022-05-06T07:10:01Z</time>
      </trkpt>
      <trkpt lat="44.93877" lon="3.52976">
        <ele>998.47</ele>
        <time>2022-05-06T07:10:02Z</time>
      </trkpt>
      <trkpt lat="44.9386" lon="3.52967">
        <ele>999.43</ele>
        <time>2022-05-06T07:10:19Z</time>
      </trkpt>
      <trkpt lat="44.93852" lon="3.52959">
        <ele>999.91</ele>
        <time>2022-05-06T07:10:29Z</time>
      </trkpt>
      <trkpt lat="44.93831" lon="3.52929">
        <ele>1001.83</ele>
        <time>2022-05-06T07:10:52Z</time>
      </trkpt>
      <trkpt lat="44.93818" lon="3.52912">
        <ele>1002.79</ele>
        <time>2022-05-06T07:11:07Z</time>
      </trkpt>
      <trkpt lat="44.93817" lon="3.52911">
        <ele>1002.79</ele>
        <time>2022-05-06T07:11:08Z</time>
      </trkpt>
      <trkpt lat="44.93816" lon="3.5291">
        <ele>1002.79</ele>
        <time>2022-05-06T07:11:09Z</time>
      </trkpt>
      <trkpt lat="44.93798" lon="3.52882">
        <ele>1002.79</ele>
        <time>2022-05-06T07:11:31Z</time>
      </trkpt>
      <trkpt lat="44.93787" lon="3.52862">
        <ele>1004.23</ele>
        <time>2022-05-06T07:11:50Z</time>
      </trkpt>
      <trkpt lat="44.9377" lon="3.52854">
        <ele>1004.72</ele>
        <time>2022-05-06T07:12:08Z</time>
      </trkpt>
      <trkpt lat="44.93769" lon="3.52854">
        <ele>1004.72</ele>
        <time>2022-05-06T07:12:09Z</time>
      </trkpt>
      <trkpt lat="44.93768" lon="3.52853">
        <ele>1004.72</ele>
        <time>2022-05-06T07:12:10Z</time>
      </trkpt>
      <trkpt lat="44.93757" lon="3.52853">
        <ele>1005.2</ele>
        <time>2022-05-06T07:12:26Z</time>
      </trkpt>
      <trkpt lat="44.93755" lon="3.52853">
        <ele>1005.2</ele>
        <time>2022-05-06T07:12:35Z</time>
      </trkpt>
      <trkpt lat="44.93754" lon="3.52853">
        <ele>1005.2</ele>
        <time>2022-05-06T07:12:36Z</time>
      </trkpt>
      <trkpt lat="44.93753" lon="3.52853">
        <ele>1005.2</ele>
        <time>2022-05-06T07:12:37Z</time>
      </trkpt>
      <trkpt lat="44.93752" lon="3.52852">
        <ele>1005.2</ele>
        <time>2022-05-06T07:12:38Z</time>
      </trkpt>
      <trkpt lat="44.93751" lon="3.52852">
        <ele>1005.2</ele>
        <time>2022-05-06T07:12:39Z</time>
      </trkpt>
      <trkpt lat="44.93728" lon="3.52857">
        <ele>1005.68</ele>
        <time>2022-05-06T07:13:01Z</time>
      </trkpt>
      <trkpt lat="44.93706" lon="3.52867">
        <ele>1006.64</ele>
        <time>2022-05-06T07:13:23Z</time>
      </trkpt>
      <trkpt lat="44.93684" lon="3.52853">
        <ele>1007.6</ele>
        <time>2022-05-06T07:13:45Z</time>
      </trkpt>
      <trkpt lat="44.93666" lon="3.52826">
        <ele>1007.6</ele>
        <time>2022-05-06T07:14:09Z</time>
      </trkpt>
      <trkpt lat="44.93653" lon="3.52802">
        <ele>1007.6</ele>
        <time>2022-05-06T07:14:30Z</time>
      </trkpt>
      <trkpt lat="44.93643" lon="3.52785">
        <ele>1004.23</ele>
        <time>2022-05-06T07:14:44Z</time>
      </trkpt>
      <trkpt lat="44.93642" lon="3.52783">
        <ele>1003.75</ele>
        <time>2022-05-06T07:14:45Z</time>
      </trkpt>
      <trkpt lat="44.9364" lon="3.52779">
        <ele>1007.12</ele>
        <time>2022-05-06T07:14:48Z</time>
      </trkpt>
      <trkpt lat="44.93638" lon="3.52775">
        <ele>1008.56</ele>
        <time>2022-05-06T07:14:51Z</time>
      </trkpt>
      <trkpt lat="44.93629" lon="3.52759">
        <ele>1008.08</ele>
        <time>2022-05-06T07:15:07Z</time>
      </trkpt>
      <trkpt lat="44.93629" lon="3.52758">
        <ele>1008.08</ele>
        <time>2022-05-06T07:15:08Z</time>
      </trkpt>
      <trkpt lat="44.93628" lon="3.52756">
        <ele>1008.08</ele>
        <time>2022-05-06T07:15:09Z</time>
      </trkpt>
      <trkpt lat="44.93627" lon="3.52755">
        <ele>1008.08</ele>
        <time>2022-05-06T07:15:10Z</time>
      </trkpt>
      <trkpt lat="44.93627" lon="3.52753">
        <ele>1008.08</ele>
        <time>2022-05-06T07:15:11Z</time>
      </trkpt>
      <trkpt lat="44.93626" lon="3.52752">
        <ele>1008.08</ele>
        <time>2022-05-06T07:15:12Z</time>
      </trkpt>
      <trkpt lat="44.93625" lon="3.5275">
        <ele>1008.08</ele>
        <time>2022-05-06T07:15:13Z</time>
      </trkpt>
      <trkpt lat="44.93625" lon="3.52749">
        <ele>1008.08</ele>
        <time>2022-05-06T07:15:14Z</time>
      </trkpt>
      <trkpt lat="44.93624" lon="3.52748">
        <ele>1008.08</ele>
        <time>2022-05-06T07:15:15Z</time>
      </trkpt>
      <trkpt lat="44.93623" lon="3.52746">
        <ele>1008.08</ele>
        <time>2022-05-06T07:15:16Z</time>
      </trkpt>
      <trkpt lat="44.93622" lon="3.52745">
        <ele>1008.08</ele>
        <time>2022-05-06T07:15:17Z</time>
      </trkpt>
      <trkpt lat="44.93608" lon="3.52715">
        <ele>1008.56</ele>
        <time>2022-05-06T07:15:38Z</time>
      </trkpt>
      <trkpt lat="44.93591" lon="3.52686">
        <ele>1009.04</ele>
        <time>2022-05-06T07:16:00Z</time>
      </trkpt>
      <trkpt lat="44.93573" lon="3.52649">
        <ele>1010</ele>
        <time>2022-05-06T07:16:27Z</time>
      </trkpt>
      <trkpt lat="44.93564" lon="3.52618">
        <ele>1010.48</ele>
        <time>2022-05-06T07:16:48Z</time>
      </trkpt>
      <trkpt lat="44.93557" lon="3.52589">
        <ele>1010.96</ele>
        <time>2022-05-06T07:17:06Z</time>
      </trkpt>
      <trkpt lat="44.93554" lon="3.52575">
        <ele>1011.44</ele>
        <time>2022-05-06T07:17:21Z</time>
      </trkpt>
      <trkpt lat="44.93554" lon="3.52579">
        <ele>1011.44</ele>
        <time>2022-05-06T07:17:35Z</time>
      </trkpt>
      <trkpt lat="44.93554" lon="3.52579">
        <ele>1011.44</ele>
        <time>2022-05-06T07:17:51Z</time>
      </trkpt>
      <trkpt lat="44.93553" lon="3.52572">
        <ele>1011.44</ele>
        <time>2022-05-06T07:18:15Z</time>
      </trkpt>
      <trkpt lat="44.93544" lon="3.52543">
        <ele>1011.93</ele>
        <time>2022-05-06T07:18:34Z</time>
      </trkpt>
      <trkpt lat="44.93532" lon="3.52513">
        <ele>1012.41</ele>
        <time>2022-05-06T07:18:54Z</time>
      </trkpt>
      <trkpt lat="44.93517" lon="3.52481">
        <ele>1011.93</ele>
        <time>2022-05-06T07:19:18Z</time>
      </trkpt>
      <trkpt lat="44.93497" lon="3.52457">
        <ele>1010.96</ele>
        <time>2022-05-06T07:19:42Z</time>
      </trkpt>
      <trkpt lat="44.93494" lon="3.52454">
        <ele>1010.96</ele>
        <time>2022-05-06T07:19:46Z</time>
      </trkpt>
      <trkpt lat="44.93493" lon="3.52453">
        <ele>1010.96</ele>
        <time>2022-05-06T07:19:47Z</time>
      </trkpt>
      <trkpt lat="44.93469" lon="3.52441">
        <ele>1010.48</ele>
        <time>2022-05-06T07:20:10Z</time>
      </trkpt>
      <trkpt lat="44.93444" lon="3.52446">
        <ele>1010</ele>
        <time>2022-05-06T07:20:32Z</time>
      </trkpt>
      <trkpt lat="44.93417" lon="3.52451">
        <ele>1010</ele>
        <time>2022-05-06T07:20:55Z</time>
      </trkpt>
      <trkpt lat="44.93399" lon="3.52451">
        <ele>1010</ele>
        <time>2022-05-06T07:21:11Z</time>
      </trkpt>
      <trkpt lat="44.93377" lon="3.52452">
        <ele>1009.52</ele>
        <time>2022-05-06T07:21:30Z</time>
      </trkpt>
      <trkpt lat="44.93357" lon="3.52451">
        <ele>1010</ele>
        <time>2022-05-06T07:21:48Z</time>
      </trkpt>
      <trkpt lat="44.93339" lon="3.52451">
        <ele>1010</ele>
        <time>2022-05-06T07:22:03Z</time>
      </trkpt>
      <trkpt lat="44.9332" lon="3.52452">
        <ele>1010.48</ele>
        <time>2022-05-06T07:22:19Z</time>
      </trkpt>
      <trkpt lat="44.93303" lon="3.52452">
        <ele>1010.96</ele>
        <time>2022-05-06T07:22:34Z</time>
      </trkpt>
      <trkpt lat="44.93287" lon="3.52454">
        <ele>1011.93</ele>
        <time>2022-05-06T07:22:51Z</time>
      </trkpt>
      <trkpt lat="44.93264" lon="3.52449">
        <ele>1012.89</ele>
        <time>2022-05-06T07:23:10Z</time>
      </trkpt>
      <trkpt lat="44.9324" lon="3.52442">
        <ele>1014.33</ele>
        <time>2022-05-06T07:23:31Z</time>
      </trkpt>
      <trkpt lat="44.93232" lon="3.52438">
        <ele>1014.81</ele>
        <time>2022-05-06T07:23:46Z</time>
      </trkpt>
      <trkpt lat="44.93216" lon="3.52432">
        <ele>1016.25</ele>
        <time>2022-05-06T07:24:05Z</time>
      </trkpt>
      <trkpt lat="44.9321" lon="3.52431">
        <ele>1016.73</ele>
        <time>2022-05-06T07:24:20Z</time>
      </trkpt>
      <trkpt lat="44.9321" lon="3.52431">
        <ele>1016.25</ele>
        <time>2022-05-06T07:25:49Z</time>
      </trkpt>
      <trkpt lat="44.9321" lon="3.52431">
        <ele>1016.73</ele>
        <time>2022-05-06T07:26:20Z</time>
      </trkpt>
      <trkpt lat="44.93199" lon="3.52428">
        <ele>1017.21</ele>
        <time>2022-05-06T07:26:37Z</time>
      </trkpt>
      <trkpt lat="44.93192" lon="3.52426">
        <ele>1017.69</ele>
        <time>2022-05-06T07:26:54Z</time>
      </trkpt>
      <trkpt lat="44.9319" lon="3.52425">
        <ele>1017.69</ele>
        <time>2022-05-06T07:27:10Z</time>
      </trkpt>
      <trkpt lat="44.93187" lon="3.52425">
        <ele>1017.69</ele>
        <time>2022-05-06T07:27:13Z</time>
      </trkpt>
      <trkpt lat="44.93186" lon="3.52425">
        <ele>1017.69</ele>
        <time>2022-05-06T07:27:14Z</time>
      </trkpt>
      <trkpt lat="44.93163" lon="3.52419">
        <ele>1019.13</ele>
        <time>2022-05-06T07:27:35Z</time>
      </trkpt>
      <trkpt lat="44.93145" lon="3.52417">
        <ele>1021.06</ele>
        <time>2022-05-06T07:27:54Z</time>
      </trkpt>
      <trkpt lat="44.93129" lon="3.52416">
        <ele>1022.98</ele>
        <time>2022-05-06T07:28:14Z</time>
      </trkpt>
      <trkpt lat="44.93129" lon="3.52416">
        <ele>1024.42</ele>
        <time>2022-05-06T07:28:39Z</time>
      </trkpt>
      <trkpt lat="44.93125" lon="3.52413">
        <ele>1024.42</ele>
        <time>2022-05-06T07:29:03Z</time>
      </trkpt>
      <trkpt lat="44.93114" lon="3.52397">
        <ele>1025.86</ele>
        <time>2022-05-06T07:29:21Z</time>
      </trkpt>
      <trkpt lat="44.93106" lon="3.52378">
        <ele>1027.79</ele>
        <time>2022-05-06T07:29:38Z</time>
      </trkpt>
      <trkpt lat="44.93094" lon="3.52357">
        <ele>1028.75</ele>
        <time>2022-05-06T07:29:56Z</time>
      </trkpt>
      <trkpt lat="44.93088" lon="3.52349">
        <ele>1029.23</ele>
        <time>2022-05-06T07:30:02Z</time>
      </trkpt>
      <trkpt lat="44.93071" lon="3.52337">
        <ele>1029.23</ele>
        <time>2022-05-06T07:30:18Z</time>
      </trkpt>
      <trkpt lat="44.93054" lon="3.52328">
        <ele>1029.23</ele>
        <time>2022-05-06T07:30:36Z</time>
      </trkpt>
      <trkpt lat="44.93037" lon="3.52315">
        <ele>1029.23</ele>
        <time>2022-05-06T07:30:54Z</time>
      </trkpt>
      <trkpt lat="44.93026" lon="3.52313">
        <ele>1028.75</ele>
        <time>2022-05-06T07:31:04Z</time>
      </trkpt>
      <trkpt lat="44.93004" lon="3.52308">
        <ele>1027.79</ele>
        <time>2022-05-06T07:31:21Z</time>
      </trkpt>
      <trkpt lat="44.92986" lon="3.52308">
        <ele>1027.79</ele>
        <time>2022-05-06T07:31:36Z</time>
      </trkpt>
      <trkpt lat="44.92964" lon="3.52303">
        <ele>1027.31</ele>
        <time>2022-05-06T07:31:54Z</time>
      </trkpt>
      <trkpt lat="44.92941" lon="3.5229">
        <ele>1027.79</ele>
        <time>2022-05-06T07:32:14Z</time>
      </trkpt>
      <trkpt lat="44.92923" lon="3.52276">
        <ele>1028.27</ele>
        <time>2022-05-06T07:32:32Z</time>
      </trkpt>
      <trkpt lat="44.92904" lon="3.52262">
        <ele>1028.75</ele>
        <time>2022-05-06T07:32:51Z</time>
      </trkpt>
      <trkpt lat="44.92884" lon="3.52249">
        <ele>1029.23</ele>
        <time>2022-05-06T07:33:11Z</time>
      </trkpt>
      <trkpt lat="44.9286" lon="3.52237">
        <ele>1030.19</ele>
        <time>2022-05-06T07:33:33Z</time>
      </trkpt>
      <trkpt lat="44.92851" lon="3.52235">
        <ele>1030.67</ele>
        <time>2022-05-06T07:33:42Z</time>
      </trkpt>
      <trkpt lat="44.92849" lon="3.52235">
        <ele>1030.67</ele>
        <time>2022-05-06T07:33:44Z</time>
      </trkpt>
      <trkpt lat="44.92838" lon="3.52231">
        <ele>1031.63</ele>
        <time>2022-05-06T07:33:58Z</time>
      </trkpt>
      <trkpt lat="44.92829" lon="3.52228">
        <ele>1032.59</ele>
        <time>2022-05-06T07:34:08Z</time>
      </trkpt>
      <trkpt lat="44.92817" lon="3.52215">
        <ele>1034.52</ele>
        <time>2022-05-06T07:34:24Z</time>
      </trkpt>
      <trkpt lat="44.92817" lon="3.52213">
        <ele>1034.52</ele>
        <time>2022-05-06T07:34:25Z</time>
      </trkpt>
      <trkpt lat="44.92807" lon="3.52193">
        <ele>1036.44</ele>
        <time>2022-05-06T07:34:42Z</time>
      </trkpt>
      <trkpt lat="44.92797" lon="3.52174">
        <ele>1037.4</ele>
        <time>2022-05-06T07:34:59Z</time>
      </trkpt>
      <trkpt lat="44.92785" lon="3.52156">
        <ele>1038.36</ele>
        <time>2022-05-06T07:35:15Z</time>
      </trkpt>
      <trkpt lat="44.92772" lon="3.5214">
        <ele>1039.32</ele>
        <time>2022-05-06T07:35:31Z</time>
      </trkpt>
      <trkpt lat="44.92755" lon="3.52129">
        <ele>1040.28</ele>
        <time>2022-05-06T07:35:50Z</time>
      </trkpt>
      <trkpt lat="44.9274" lon="3.5212">
        <ele>1041.25</ele>
        <time>2022-05-06T07:36:07Z</time>
      </trkpt>
      <trkpt lat="44.92721" lon="3.52109">
        <ele>1042.69</ele>
        <time>2022-05-06T07:36:26Z</time>
      </trkpt>
      <trkpt lat="44.92705" lon="3.52098">
        <ele>1044.61</ele>
        <time>2022-05-06T07:36:45Z</time>
      </trkpt>
      <trkpt lat="44.92691" lon="3.52089">
        <ele>1045.57</ele>
        <time>2022-05-06T07:37:01Z</time>
      </trkpt>
      <trkpt lat="44.92674" lon="3.5208">
        <ele>1047.49</ele>
        <time>2022-05-06T07:37:20Z</time>
      </trkpt>
      <trkpt lat="44.92658" lon="3.52071">
        <ele>1048.45</ele>
        <time>2022-05-06T07:37:38Z</time>
      </trkpt>
      <trkpt lat="44.9265" lon="3.52062">
        <ele>1049.42</ele>
        <time>2022-05-06T07:37:48Z</time>
      </trkpt>
      <trkpt lat="44.92642" lon="3.52049">
        <ele>1050.38</ele>
        <time>2022-05-06T07:38:01Z</time>
      </trkpt>
      <trkpt lat="44.92641" lon="3.52048">
        <ele>1050.38</ele>
        <time>2022-05-06T07:38:02Z</time>
      </trkpt>
      <trkpt lat="44.92638" lon="3.5204">
        <ele>1050.38</ele>
        <time>2022-05-06T07:38:07Z</time>
      </trkpt>
      <trkpt lat="44.92629" lon="3.5202">
        <ele>1052.3</ele>
        <time>2022-05-06T07:38:21Z</time>
      </trkpt>
      <trkpt lat="44.92618" lon="3.51999">
        <ele>1053.74</ele>
        <time>2022-05-06T07:38:39Z</time>
      </trkpt>
      <trkpt lat="44.92605" lon="3.51979">
        <ele>1054.7</ele>
        <time>2022-05-06T07:38:59Z</time>
      </trkpt>
      <trkpt lat="44.92595" lon="3.51962">
        <ele>1055.67</ele>
        <time>2022-05-06T07:39:17Z</time>
      </trkpt>
      <trkpt lat="44.92577" lon="3.51942">
        <ele>1057.59</ele>
        <time>2022-05-06T07:39:42Z</time>
      </trkpt>
      <trkpt lat="44.92552" lon="3.51916">
        <ele>1058.07</ele>
        <time>2022-05-06T07:40:08Z</time>
      </trkpt>
      <trkpt lat="44.92534" lon="3.51898">
        <ele>1059.03</ele>
        <time>2022-05-06T07:40:26Z</time>
      </trkpt>
      <trkpt lat="44.92529" lon="3.51892">
        <ele>1059.51</ele>
        <time>2022-05-06T07:40:41Z</time>
      </trkpt>
      <trkpt lat="44.92518" lon="3.51876">
        <ele>1060.47</ele>
        <time>2022-05-06T07:41:04Z</time>
      </trkpt>
      <trkpt lat="44.92504" lon="3.51861">
        <ele>1061.43</ele>
        <time>2022-05-06T07:41:18Z</time>
      </trkpt>
      <trkpt lat="44.92499" lon="3.51853">
        <ele>1061.43</ele>
        <time>2022-05-06T07:41:25Z</time>
      </trkpt>
      <trkpt lat="44.92498" lon="3.51852">
        <ele>1061.43</ele>
        <time>2022-05-06T07:41:26Z</time>
      </trkpt>
      <trkpt lat="44.92488" lon="3.51836">
        <ele>1061.43</ele>
        <time>2022-05-06T07:41:41Z</time>
      </trkpt>
      <trkpt lat="44.92484" lon="3.51829">
        <ele>1061.43</ele>
        <time>2022-05-06T07:41:46Z</time>
      </trkpt>
      <trkpt lat="44.92482" lon="3.51827">
        <ele>1061.43</ele>
        <time>2022-05-06T07:41:47Z</time>
      </trkpt>
      <trkpt lat="44.92481" lon="3.51826">
        <ele>1061.43</ele>
        <time>2022-05-06T07:41:48Z</time>
      </trkpt>
      <trkpt lat="44.9248" lon="3.51825">
        <ele>1061.43</ele>
        <time>2022-05-06T07:41:49Z</time>
      </trkpt>
      <trkpt lat="44.92479" lon="3.51824">
        <ele>1061.43</ele>
        <time>2022-05-06T07:41:50Z</time>
      </trkpt>
      <trkpt lat="44.92468" lon="3.51812">
        <ele>1061.43</ele>
        <time>2022-05-06T07:42:07Z</time>
      </trkpt>
      <trkpt lat="44.92457" lon="3.5179">
        <ele>1061.43</ele>
        <time>2022-05-06T07:42:30Z</time>
      </trkpt>
      <trkpt lat="44.9244" lon="3.5176">
        <ele>1060.47</ele>
        <time>2022-05-06T07:42:56Z</time>
      </trkpt>
      <trkpt lat="44.92421" lon="3.51731">
        <ele>1059.03</ele>
        <time>2022-05-06T07:43:22Z</time>
      </trkpt>
      <trkpt lat="44.92414" lon="3.51716">
        <ele>1059.03</ele>
        <time>2022-05-06T07:43:34Z</time>
      </trkpt>
      <trkpt lat="44.92412" lon="3.51709">
        <ele>1058.55</ele>
        <time>2022-05-06T07:43:41Z</time>
      </trkpt>
      <trkpt lat="44.9239" lon="3.51674">
        <ele>1057.11</ele>
        <time>2022-05-06T07:44:07Z</time>
      </trkpt>
      <trkpt lat="44.92369" lon="3.51651">
        <ele>1056.63</ele>
        <time>2022-05-06T07:44:25Z</time>
      </trkpt>
      <trkpt lat="44.92368" lon="3.5165">
        <ele>1056.63</ele>
        <time>2022-05-06T07:44:26Z</time>
      </trkpt>
      <trkpt lat="44.92344" lon="3.51637">
        <ele>1055.67</ele>
        <time>2022-05-06T07:44:47Z</time>
      </trkpt>
      <trkpt lat="44.92331" lon="3.51617">
        <ele>1055.18</ele>
        <time>2022-05-06T07:45:11Z</time>
      </trkpt>
      <trkpt lat="44.92311" lon="3.51574">
        <ele>1052.78</ele>
        <time>2022-05-06T07:45:40Z</time>
      </trkpt>
      <trkpt lat="44.92298" lon="3.51541">
        <ele>1051.34</ele>
        <time>2022-05-06T07:45:58Z</time>
      </trkpt>
      <trkpt lat="44.92283" lon="3.51506">
        <ele>1050.38</ele>
        <time>2022-05-06T07:46:18Z</time>
      </trkpt>
      <trkpt lat="44.92271" lon="3.51479">
        <ele>1049.42</ele>
        <time>2022-05-06T07:46:36Z</time>
      </trkpt>
      <trkpt lat="44.92259" lon="3.5145">
        <ele>1048.45</ele>
        <time>2022-05-06T07:46:55Z</time>
      </trkpt>
      <trkpt lat="44.92248" lon="3.5143">
        <ele>1047.01</ele>
        <time>2022-05-06T07:47:14Z</time>
      </trkpt>
      <trkpt lat="44.92243" lon="3.51422">
        <ele>1047.01</ele>
        <time>2022-05-06T07:47:33Z</time>
      </trkpt>
      <trkpt lat="44.92236" lon="3.51404">
        <ele>1046.05</ele>
        <time>2022-05-06T07:47:52Z</time>
      </trkpt>
      <trkpt lat="44.92229" lon="3.51379">
        <ele>1045.57</ele>
        <time>2022-05-06T07:48:10Z</time>
      </trkpt>
      <trkpt lat="44.92224" lon="3.51365">
        <ele>1045.57</ele>
        <time>2022-05-06T07:48:20Z</time>
      </trkpt>
      <trkpt lat="44.92224" lon="3.51363">
        <ele>1045.57</ele>
        <time>2022-05-06T07:48:21Z</time>
      </trkpt>
      <trkpt lat="44.92216" lon="3.51337">
        <ele>1045.57</ele>
        <time>2022-05-06T07:48:39Z</time>
      </trkpt>
      <trkpt lat="44.92213" lon="3.51324">
        <ele>1044.61</ele>
        <time>2022-05-06T07:48:51Z</time>
      </trkpt>
      <trkpt lat="44.92212" lon="3.51322">
        <ele>1044.61</ele>
        <time>2022-05-06T07:48:52Z</time>
      </trkpt>
      <trkpt lat="44.92205" lon="3.51287">
        <ele>1045.09</ele>
        <time>2022-05-06T07:49:15Z</time>
      </trkpt>
      <trkpt lat="44.92196" lon="3.51252">
        <ele>1045.09</ele>
        <time>2022-05-06T07:49:36Z</time>
      </trkpt>
      <trkpt lat="44.92189" lon="3.5122">
        <ele>1045.57</ele>
        <time>2022-05-06T07:49:58Z</time>
      </trkpt>
      <trkpt lat="44.92184" lon="3.51198">
        <ele>1046.53</ele>
        <time>2022-05-06T07:50:12Z</time>
      </trkpt>
      <trkpt lat="44.92179" lon="3.51175">
        <ele>1046.53</ele>
        <time>2022-05-06T07:50:28Z</time>
      </trkpt>
      <trkpt lat="44.92173" lon="3.51151">
        <ele>1047.01</ele>
        <time>2022-05-06T07:50:46Z</time>
      </trkpt>
      <trkpt lat="44.92167" lon="3.51133">
        <ele>1047.49</ele>
        <time>2022-05-06T07:50:56Z</time>
      </trkpt>
      <trkpt lat="44.92162" lon="3.51107">
        <ele>1049.42</ele>
        <time>2022-05-06T07:51:13Z</time>
      </trkpt>
      <trkpt lat="44.92161" lon="3.51105">
        <ele>1049.42</ele>
        <time>2022-05-06T07:51:14Z</time>
      </trkpt>
      <trkpt lat="44.9216" lon="3.51101">
        <ele>1049.42</ele>
        <time>2022-05-06T07:51:16Z</time>
      </trkpt>
      <trkpt lat="44.92155" lon="3.51081">
        <ele>1049.9</ele>
        <time>2022-05-06T07:51:30Z</time>
      </trkpt>
      <trkpt lat="44.9215" lon="3.51066">
        <ele>1050.38</ele>
        <time>2022-05-06T07:51:45Z</time>
      </trkpt>
      <trkpt lat="44.92144" lon="3.51043">
        <ele>1051.34</ele>
        <time>2022-05-06T07:52:02Z</time>
      </trkpt>
      <trkpt lat="44.92135" lon="3.51014">
        <ele>1052.78</ele>
        <time>2022-05-06T07:52:28Z</time>
      </trkpt>
      <trkpt lat="44.92123" lon="3.50981">
        <ele>1053.26</ele>
        <time>2022-05-06T07:52:50Z</time>
      </trkpt>
      <trkpt lat="44.92113" lon="3.50956">
        <ele>1052.78</ele>
        <time>2022-05-06T07:53:09Z</time>
      </trkpt>
      <trkpt lat="44.921" lon="3.50932">
        <ele>1051.82</ele>
        <time>2022-05-06T07:53:26Z</time>
      </trkpt>
      <trkpt lat="44.92093" lon="3.50923">
        <ele>1051.34</ele>
        <time>2022-05-06T07:53:43Z</time>
      </trkpt>
      <trkpt lat="44.92093" lon="3.50923">
        <ele>1051.34</ele>
        <time>2022-05-06T07:54:08Z</time>
      </trkpt>
      <trkpt lat="44.92093" lon="3.50922">
        <ele>1051.34</ele>
        <time>2022-05-06T07:54:36Z</time>
      </trkpt>
      <trkpt lat="44.92091" lon="3.5092">
        <ele>1054.22</ele>
        <time>2022-05-06T07:54:42Z</time>
      </trkpt>
      <trkpt lat="44.92089" lon="3.50918">
        <ele>1051.34</ele>
        <time>2022-05-06T07:55:01Z</time>
      </trkpt>
      <trkpt lat="44.92085" lon="3.50907">
        <ele>1049.9</ele>
        <time>2022-05-06T07:55:23Z</time>
      </trkpt>
      <trkpt lat="44.92082" lon="3.509">
        <ele>1049.9</ele>
        <time>2022-05-06T07:55:49Z</time>
      </trkpt>
      <trkpt lat="44.92079" lon="3.50893">
        <ele>1049.42</ele>
        <time>2022-05-06T07:56:09Z</time>
      </trkpt>
      <trkpt lat="44.92077" lon="3.5089">
        <ele>1048.94</ele>
        <time>2022-05-06T07:56:26Z</time>
      </trkpt>
      <trkpt lat="44.92077" lon="3.50889">
        <ele>1048.94</ele>
        <time>2022-05-06T07:56:45Z</time>
      </trkpt>
      <trkpt lat="44.92075" lon="3.50883">
        <ele>1048.94</ele>
        <time>2022-05-06T07:57:07Z</time>
      </trkpt>
      <trkpt lat="44.92073" lon="3.50876">
        <ele>1048.94</ele>
        <time>2022-05-06T07:57:13Z</time>
      </trkpt>
      <trkpt lat="44.92072" lon="3.50875">
        <ele>1048.94</ele>
        <time>2022-05-06T07:57:14Z</time>
      </trkpt>
      <trkpt lat="44.92071" lon="3.50872">
        <ele>1048.94</ele>
        <time>2022-05-06T07:57:16Z</time>
      </trkpt>
      <trkpt lat="44.92063" lon="3.5085">
        <ele>1047.97</ele>
        <time>2022-05-06T07:57:32Z</time>
      </trkpt>
      <trkpt lat="44.92053" lon="3.50822">
        <ele>1046.53</ele>
        <time>2022-05-06T07:57:54Z</time>
      </trkpt>
      <trkpt lat="44.92044" lon="3.50795">
        <ele>1045.57</ele>
        <time>2022-05-06T07:58:14Z</time>
      </trkpt>
      <trkpt lat="44.92039" lon="3.50785">
        <ele>1045.09</ele>
        <time>2022-05-06T07:58:21Z</time>
      </trkpt>
      <trkpt lat="44.92038" lon="3.50783">
        <ele>1044.61</ele>
        <time>2022-05-06T07:58:22Z</time>
      </trkpt>
      <trkpt lat="44.92035" lon="3.50778">
        <ele>1044.61</ele>
        <time>2022-05-06T07:58:25Z</time>
      </trkpt>
      <trkpt lat="44.92035" lon="3.50776">
        <ele>1044.61</ele>
        <time>2022-05-06T07:58:26Z</time>
      </trkpt>
      <trkpt lat="44.92034" lon="3.50774">
        <ele>1044.61</ele>
        <time>2022-05-06T07:58:27Z</time>
      </trkpt>
      <trkpt lat="44.92025" lon="3.50758">
        <ele>1043.65</ele>
        <time>2022-05-06T07:58:39Z</time>
      </trkpt>
      <trkpt lat="44.92024" lon="3.50757">
        <ele>1043.65</ele>
        <time>2022-05-06T07:58:40Z</time>
      </trkpt>
      <trkpt lat="44.92023" lon="3.50755">
        <ele>1043.65</ele>
        <time>2022-05-06T07:58:41Z</time>
      </trkpt>
      <trkpt lat="44.92022" lon="3.50754">
        <ele>1043.65</ele>
        <time>2022-05-06T07:58:42Z</time>
      </trkpt>
      <trkpt lat="44.92021" lon="3.50752">
        <ele>1043.65</ele>
        <time>2022-05-06T07:58:43Z</time>
      </trkpt>
      <trkpt lat="44.92021" lon="3.50751">
        <ele>1043.65</ele>
        <time>2022-05-06T07:58:44Z</time>
      </trkpt>
      <trkpt lat="44.92013" lon="3.50725">
        <ele>1041.73</ele>
        <time>2022-05-06T07:59:01Z</time>
      </trkpt>
      <trkpt lat="44.92002" lon="3.50696">
        <ele>1039.8</ele>
        <time>2022-05-06T07:59:20Z</time>
      </trkpt>
      <trkpt lat="44.9199" lon="3.50672">
        <ele>1038.36</ele>
        <time>2022-05-06T07:59:37Z</time>
      </trkpt>
      <trkpt lat="44.91975" lon="3.50648">
        <ele>1037.88</ele>
        <time>2022-05-06T07:59:55Z</time>
      </trkpt>
      <trkpt lat="44.91967" lon="3.50635">
        <ele>1037.4</ele>
        <time>2022-05-06T08:00:05Z</time>
      </trkpt>
      <trkpt lat="44.91966" lon="3.50634">
        <ele>1037.4</ele>
        <time>2022-05-06T08:00:06Z</time>
      </trkpt>
      <trkpt lat="44.91965" lon="3.50633">
        <ele>1037.4</ele>
        <time>2022-05-06T08:00:07Z</time>
      </trkpt>
      <trkpt lat="44.91964" lon="3.50632">
        <ele>1037.4</ele>
        <time>2022-05-06T08:00:08Z</time>
      </trkpt>
      <trkpt lat="44.91958" lon="3.50625">
        <ele>1036.44</ele>
        <time>2022-05-06T08:00:16Z</time>
      </trkpt>
      <trkpt lat="44.91954" lon="3.5062">
        <ele>1036.44</ele>
        <time>2022-05-06T08:00:31Z</time>
      </trkpt>
      <trkpt lat="44.91951" lon="3.50616">
        <ele>1036.44</ele>
        <time>2022-05-06T08:00:36Z</time>
      </trkpt>
      <trkpt lat="44.91933" lon="3.50601">
        <ele>1035.96</ele>
        <time>2022-05-06T08:00:54Z</time>
      </trkpt>
      <trkpt lat="44.91921" lon="3.50577">
        <ele>1035</ele>
        <time>2022-05-06T08:01:11Z</time>
      </trkpt>
      <trkpt lat="44.91915" lon="3.50559">
        <ele>1033.55</ele>
        <time>2022-05-06T08:01:25Z</time>
      </trkpt>
      <trkpt lat="44.91915" lon="3.50556">
        <ele>1033.07</ele>
        <time>2022-05-06T08:01:41Z</time>
      </trkpt>
      <trkpt lat="44.91912" lon="3.50554">
        <ele>1032.59</ele>
        <time>2022-05-06T08:01:58Z</time>
      </trkpt>
      <trkpt lat="44.91912" lon="3.50552">
        <ele>1033.07</ele>
        <time>2022-05-06T08:02:04Z</time>
      </trkpt>
      <trkpt lat="44.91908" lon="3.5054">
        <ele>1032.11</ele>
        <time>2022-05-06T08:02:19Z</time>
      </trkpt>
      <trkpt lat="44.91907" lon="3.5053">
        <ele>1031.15</ele>
        <time>2022-05-06T08:02:27Z</time>
      </trkpt>
      <trkpt lat="44.91899" lon="3.50503">
        <ele>1029.71</ele>
        <time>2022-05-06T08:02:46Z</time>
      </trkpt>
      <trkpt lat="44.91884" lon="3.5049">
        <ele>1030.19</ele>
        <time>2022-05-06T08:03:05Z</time>
      </trkpt>
      <trkpt lat="44.91872" lon="3.50486">
        <ele>1030.19</ele>
        <time>2022-05-06T08:03:20Z</time>
      </trkpt>
      <trkpt lat="44.91867" lon="3.50486">
        <ele>1030.19</ele>
        <time>2022-05-06T08:03:36Z</time>
      </trkpt>
      <trkpt lat="44.91862" lon="3.50485">
        <ele>1029.71</ele>
        <time>2022-05-06T08:03:46Z</time>
      </trkpt>
      <trkpt lat="44.91861" lon="3.50485">
        <ele>1029.71</ele>
        <time>2022-05-06T08:03:47Z</time>
      </trkpt>
      <trkpt lat="44.9186" lon="3.50485">
        <ele>1029.71</ele>
        <time>2022-05-06T08:03:48Z</time>
      </trkpt>
      <trkpt lat="44.91841" lon="3.50491">
        <ele>1030.67</ele>
        <time>2022-05-06T08:04:06Z</time>
      </trkpt>
      <trkpt lat="44.91826" lon="3.50498">
        <ele>1032.11</ele>
        <time>2022-05-06T08:04:24Z</time>
      </trkpt>
      <trkpt lat="44.91814" lon="3.50504">
        <ele>1033.55</ele>
        <time>2022-05-06T08:04:39Z</time>
      </trkpt>
      <trkpt lat="44.91798" lon="3.50504">
        <ele>1035.96</ele>
        <time>2022-05-06T08:04:57Z</time>
      </trkpt>
      <trkpt lat="44.91787" lon="3.50504">
        <ele>1038.36</ele>
        <time>2022-05-06T08:05:16Z</time>
      </trkpt>
      <trkpt lat="44.91779" lon="3.50504">
        <ele>1039.32</ele>
        <time>2022-05-06T08:05:30Z</time>
      </trkpt>
      <trkpt lat="44.91775" lon="3.50501">
        <ele>1040.28</ele>
        <time>2022-05-06T08:05:51Z</time>
      </trkpt>
      <trkpt lat="44.91775" lon="3.505">
        <ele>1040.76</ele>
        <time>2022-05-06T08:05:52Z</time>
      </trkpt>
      <trkpt lat="44.91774" lon="3.50499">
        <ele>1040.76</ele>
        <time>2022-05-06T08:05:53Z</time>
      </trkpt>
      <trkpt lat="44.91773" lon="3.50498">
        <ele>1040.76</ele>
        <time>2022-05-06T08:05:54Z</time>
      </trkpt>
      <trkpt lat="44.91758" lon="3.50488">
        <ele>1042.69</ele>
        <time>2022-05-06T08:06:11Z</time>
      </trkpt>
      <trkpt lat="44.91745" lon="3.50474">
        <ele>1045.57</ele>
        <time>2022-05-06T08:06:28Z</time>
      </trkpt>
      <trkpt lat="44.91733" lon="3.50461">
        <ele>1048.94</ele>
        <time>2022-05-06T08:06:46Z</time>
      </trkpt>
      <trkpt lat="44.91728" lon="3.5046">
        <ele>1050.86</ele>
        <time>2022-05-06T08:07:00Z</time>
      </trkpt>
      <trkpt lat="44.91728" lon="3.5046">
        <ele>1049.42</ele>
        <time>2022-05-06T08:07:20Z</time>
      </trkpt>
      <trkpt lat="44.91728" lon="3.5046">
        <ele>1049.42</ele>
        <time>2022-05-06T08:08:13Z</time>
      </trkpt>
      <trkpt lat="44.91728" lon="3.50461">
        <ele>1049.42</ele>
        <time>2022-05-06T08:10:11Z</time>
      </trkpt>
      <trkpt lat="44.91729" lon="3.50461">
        <ele>1042.21</ele>
        <time>2022-05-06T08:11:03Z</time>
      </trkpt>
      <trkpt lat="44.91729" lon="3.50461">
        <ele>1035.96</ele>
        <time>2022-05-06T08:11:04Z</time>
      </trkpt>
      <trkpt lat="44.91729" lon="3.50462">
        <ele>1037.4</ele>
        <time>2022-05-06T08:11:08Z</time>
      </trkpt>
      <trkpt lat="44.91729" lon="3.50462">
        <ele>1041.25</ele>
        <time>2022-05-06T08:11:12Z</time>
      </trkpt>
      <trkpt lat="44.91729" lon="3.50462">
        <ele>1043.65</ele>
        <time>2022-05-06T08:11:16Z</time>
      </trkpt>
      <trkpt lat="44.91729" lon="3.50462">
        <ele>1047.01</ele>
        <time>2022-05-06T08:11:21Z</time>
      </trkpt>
      <trkpt lat="44.91729" lon="3.50462">
        <ele>1050.86</ele>
        <time>2022-05-06T08:11:24Z</time>
      </trkpt>
      <trkpt lat="44.91729" lon="3.50462">
        <ele>1054.22</ele>
        <time>2022-05-06T08:11:27Z</time>
      </trkpt>
      <trkpt lat="44.91729" lon="3.50462">
        <ele>1050.86</ele>
        <time>2022-05-06T08:11:42Z</time>
      </trkpt>
      <trkpt lat="44.91729" lon="3.50463">
        <ele>1050.38</ele>
        <time>2022-05-06T08:15:49Z</time>
      </trkpt>
      <trkpt lat="44.91727" lon="3.50462">
        <ele>1050.38</ele>
        <time>2022-05-06T08:16:08Z</time>
      </trkpt>
      <trkpt lat="44.91726" lon="3.5046">
        <ele>1050.38</ele>
        <time>2022-05-06T08:16:17Z</time>
      </trkpt>
      <trkpt lat="44.91719" lon="3.50447">
        <ele>1051.82</ele>
        <time>2022-05-06T08:16:32Z</time>
      </trkpt>
      <trkpt lat="44.91712" lon="3.5043">
        <ele>1054.7</ele>
        <time>2022-05-06T08:16:49Z</time>
      </trkpt>
      <trkpt lat="44.917" lon="3.50418">
        <ele>1056.63</ele>
        <time>2022-05-06T08:17:07Z</time>
      </trkpt>
      <trkpt lat="44.91688" lon="3.50414">
        <ele>1057.59</ele>
        <time>2022-05-06T08:17:26Z</time>
      </trkpt>
      <trkpt lat="44.91682" lon="3.50412">
        <ele>1057.59</ele>
        <time>2022-05-06T08:17:33Z</time>
      </trkpt>
      <trkpt lat="44.91666" lon="3.50411">
        <ele>1057.59</ele>
        <time>2022-05-06T08:17:48Z</time>
      </trkpt>
      <trkpt lat="44.91665" lon="3.50411">
        <ele>1057.59</ele>
        <time>2022-05-06T08:17:49Z</time>
      </trkpt>
      <trkpt lat="44.91664" lon="3.50412">
        <ele>1057.59</ele>
        <time>2022-05-06T08:17:50Z</time>
      </trkpt>
      <trkpt lat="44.91663" lon="3.50412">
        <ele>1057.59</ele>
        <time>2022-05-06T08:17:51Z</time>
      </trkpt>
      <trkpt lat="44.9166" lon="3.50412">
        <ele>1057.11</ele>
        <time>2022-05-06T08:17:54Z</time>
      </trkpt>
      <trkpt lat="44.91657" lon="3.50412">
        <ele>1057.11</ele>
        <time>2022-05-06T08:17:57Z</time>
      </trkpt>
      <trkpt lat="44.91655" lon="3.50412">
        <ele>1057.11</ele>
        <time>2022-05-06T08:17:58Z</time>
      </trkpt>
      <trkpt lat="44.91639" lon="3.50415">
        <ele>1059.99</ele>
        <time>2022-05-06T08:18:14Z</time>
      </trkpt>
      <trkpt lat="44.91637" lon="3.50415">
        <ele>1060.95</ele>
        <time>2022-05-06T08:18:16Z</time>
      </trkpt>
      <trkpt lat="44.91619" lon="3.5042">
        <ele>1059.99</ele>
        <time>2022-05-06T08:18:34Z</time>
      </trkpt>
      <trkpt lat="44.916" lon="3.50426">
        <ele>1059.99</ele>
        <time>2022-05-06T08:18:53Z</time>
      </trkpt>
      <trkpt lat="44.91572" lon="3.50446">
        <ele>1060.95</ele>
        <time>2022-05-06T08:19:21Z</time>
      </trkpt>
      <trkpt lat="44.91546" lon="3.50458">
        <ele>1061.43</ele>
        <time>2022-05-06T08:19:45Z</time>
      </trkpt>
      <trkpt lat="44.91516" lon="3.50468">
        <ele>1061.91</ele>
        <time>2022-05-06T08:20:12Z</time>
      </trkpt>
      <trkpt lat="44.9149" lon="3.50462">
        <ele>1063.36</ele>
        <time>2022-05-06T08:20:36Z</time>
      </trkpt>
      <trkpt lat="44.91467" lon="3.50448">
        <ele>1065.28</ele>
        <time>2022-05-06T08:21:00Z</time>
      </trkpt>
      <trkpt lat="44.91444" lon="3.50436">
        <ele>1068.16</ele>
        <time>2022-05-06T08:21:24Z</time>
      </trkpt>
      <trkpt lat="44.91425" lon="3.5043">
        <ele>1070.08</ele>
        <time>2022-05-06T08:21:45Z</time>
      </trkpt>
      <trkpt lat="44.91398" lon="3.5042">
        <ele>1072.01</ele>
        <time>2022-05-06T08:22:11Z</time>
      </trkpt>
      <trkpt lat="44.91376" lon="3.50408">
        <ele>1073.45</ele>
        <time>2022-05-06T08:22:33Z</time>
      </trkpt>
      <trkpt lat="44.91352" lon="3.50396">
        <ele>1075.37</ele>
        <time>2022-05-06T08:22:57Z</time>
      </trkpt>
      <trkpt lat="44.91334" lon="3.50388">
        <ele>1076.33</ele>
        <time>2022-05-06T08:23:17Z</time>
      </trkpt>
      <trkpt lat="44.91315" lon="3.50387">
        <ele>1077.29</ele>
        <time>2022-05-06T08:23:36Z</time>
      </trkpt>
      <trkpt lat="44.91292" lon="3.50387">
        <ele>1078.26</ele>
        <time>2022-05-06T08:24:00Z</time>
      </trkpt>
      <trkpt lat="44.91268" lon="3.50385">
        <ele>1079.22</ele>
        <time>2022-05-06T08:24:22Z</time>
      </trkpt>
      <trkpt lat="44.91247" lon="3.50387">
        <ele>1080.66</ele>
        <time>2022-05-06T08:24:42Z</time>
      </trkpt>
      <trkpt lat="44.91227" lon="3.50397">
        <ele>1081.62</ele>
        <time>2022-05-06T08:25:02Z</time>
      </trkpt>
      <trkpt lat="44.91219" lon="3.50399">
        <ele>1082.58</ele>
        <time>2022-05-06T08:25:11Z</time>
      </trkpt>
      <trkpt lat="44.91218" lon="3.50399">
        <ele>1082.58</ele>
        <time>2022-05-06T08:25:12Z</time>
      </trkpt>
      <trkpt lat="44.91217" lon="3.50399">
        <ele>1082.58</ele>
        <time>2022-05-06T08:25:13Z</time>
      </trkpt>
      <trkpt lat="44.91215" lon="3.504">
        <ele>1082.58</ele>
        <time>2022-05-06T08:25:14Z</time>
      </trkpt>
      <trkpt lat="44.91194" lon="3.50405">
        <ele>1083.54</ele>
        <time>2022-05-06T08:25:36Z</time>
      </trkpt>
      <trkpt lat="44.91169" lon="3.50412">
        <ele>1082.1</ele>
        <time>2022-05-06T08:25:59Z</time>
      </trkpt>
      <trkpt lat="44.91138" lon="3.5042">
        <ele>1080.18</ele>
        <time>2022-05-06T08:26:27Z</time>
      </trkpt>
      <trkpt lat="44.91109" lon="3.50429">
        <ele>1079.22</ele>
        <time>2022-05-06T08:26:53Z</time>
      </trkpt>
      <trkpt lat="44.91092" lon="3.50459">
        <ele>1077.78</ele>
        <time>2022-05-06T08:27:17Z</time>
      </trkpt>
      <trkpt lat="44.91073" lon="3.50489">
        <ele>1075.85</ele>
        <time>2022-05-06T08:27:42Z</time>
      </trkpt>
      <trkpt lat="44.91051" lon="3.50497">
        <ele>1079.22</ele>
        <time>2022-05-06T08:28:05Z</time>
      </trkpt>
      <trkpt lat="44.91036" lon="3.50513">
        <ele>1079.7</ele>
        <time>2022-05-06T08:28:24Z</time>
      </trkpt>
      <trkpt lat="44.91013" lon="3.50533">
        <ele>1080.18</ele>
        <time>2022-05-06T08:28:48Z</time>
      </trkpt>
      <trkpt lat="44.91001" lon="3.50545">
        <ele>1079.7</ele>
        <time>2022-05-06T08:29:05Z</time>
      </trkpt>
      <trkpt lat="44.9099" lon="3.50562">
        <ele>1080.66</ele>
        <time>2022-05-06T08:29:22Z</time>
      </trkpt>
      <trkpt lat="44.90978" lon="3.50566">
        <ele>1083.06</ele>
        <time>2022-05-06T08:29:40Z</time>
      </trkpt>
      <trkpt lat="44.90965" lon="3.5057">
        <ele>1084.99</ele>
        <time>2022-05-06T08:29:57Z</time>
      </trkpt>
      <trkpt lat="44.90965" lon="3.50567">
        <ele>1084.99</ele>
        <time>2022-05-06T08:30:13Z</time>
      </trkpt>
      <trkpt lat="44.90958" lon="3.50556">
        <ele>1085.95</ele>
        <time>2022-05-06T08:30:27Z</time>
      </trkpt>
      <trkpt lat="44.90957" lon="3.50555">
        <ele>1086.91</ele>
        <time>2022-05-06T08:30:44Z</time>
      </trkpt>
      <trkpt lat="44.90959" lon="3.50558">
        <ele>1086.43</ele>
        <time>2022-05-06T08:30:54Z</time>
      </trkpt>
      <trkpt lat="44.90961" lon="3.50561">
        <ele>1086.91</ele>
        <time>2022-05-06T08:31:05Z</time>
      </trkpt>
      <trkpt lat="44.90961" lon="3.50561">
        <ele>1086.43</ele>
        <time>2022-05-06T08:31:31Z</time>
      </trkpt>
      <trkpt lat="44.90962" lon="3.50562">
        <ele>1085.95</ele>
        <time>2022-05-06T08:31:53Z</time>
      </trkpt>
      <trkpt lat="44.90961" lon="3.50562">
        <ele>1085.95</ele>
        <time>2022-05-06T08:32:24Z</time>
      </trkpt>
      <trkpt lat="44.90961" lon="3.50565">
        <ele>1085.95</ele>
        <time>2022-05-06T08:32:48Z</time>
      </trkpt>
      <trkpt lat="44.90961" lon="3.50565">
        <ele>1085.95</ele>
        <time>2022-05-06T08:33:09Z</time>
      </trkpt>
      <trkpt lat="44.90963" lon="3.50566">
        <ele>1085.95</ele>
        <time>2022-05-06T08:33:13Z</time>
      </trkpt>
      <trkpt lat="44.90965" lon="3.50567">
        <ele>1085.47</ele>
        <time>2022-05-06T08:33:15Z</time>
      </trkpt>
      <trkpt lat="44.90986" lon="3.50565">
        <ele>1083.54</ele>
        <time>2022-05-06T08:33:35Z</time>
      </trkpt>
      <trkpt lat="44.90994" lon="3.5056">
        <ele>1082.1</ele>
        <time>2022-05-06T08:33:43Z</time>
      </trkpt>
      <trkpt lat="44.91002" lon="3.50539">
        <ele>1079.7</ele>
        <time>2022-05-06T08:34:02Z</time>
      </trkpt>
      <trkpt lat="44.91" lon="3.50534">
        <ele>1080.18</ele>
        <time>2022-05-06T08:34:07Z</time>
      </trkpt>
      <trkpt lat="44.90979" lon="3.50516">
        <ele>1081.14</ele>
        <time>2022-05-06T08:34:29Z</time>
      </trkpt>
      <trkpt lat="44.90968" lon="3.50489">
        <ele>1081.62</ele>
        <time>2022-05-06T08:34:52Z</time>
      </trkpt>
      <trkpt lat="44.90966" lon="3.50464">
        <ele>1081.62</ele>
        <time>2022-05-06T08:35:11Z</time>
      </trkpt>
      <trkpt lat="44.90966" lon="3.50462">
        <ele>1081.62</ele>
        <time>2022-05-06T08:35:12Z</time>
      </trkpt>
      <trkpt lat="44.90966" lon="3.50461">
        <ele>1081.62</ele>
        <time>2022-05-06T08:35:13Z</time>
      </trkpt>
      <trkpt lat="44.90967" lon="3.50452">
        <ele>1081.62</ele>
        <time>2022-05-06T08:35:19Z</time>
      </trkpt>
      <trkpt lat="44.90967" lon="3.50451">
        <ele>1082.1</ele>
        <time>2022-05-06T08:35:20Z</time>
      </trkpt>
      <trkpt lat="44.90968" lon="3.50448">
        <ele>1082.1</ele>
        <time>2022-05-06T08:35:23Z</time>
      </trkpt>
      <trkpt lat="44.90969" lon="3.50447">
        <ele>1082.1</ele>
        <time>2022-05-06T08:35:24Z</time>
      </trkpt>
      <trkpt lat="44.9097" lon="3.50446">
        <ele>1082.1</ele>
        <time>2022-05-06T08:35:25Z</time>
      </trkpt>
      <trkpt lat="44.9097" lon="3.50444">
        <ele>1082.1</ele>
        <time>2022-05-06T08:35:26Z</time>
      </trkpt>
      <trkpt lat="44.90971" lon="3.50443">
        <ele>1082.1</ele>
        <time>2022-05-06T08:35:27Z</time>
      </trkpt>
      <trkpt lat="44.90973" lon="3.50432">
        <ele>1083.06</ele>
        <time>2022-05-06T08:35:45Z</time>
      </trkpt>
      <trkpt lat="44.90973" lon="3.50427">
        <ele>1083.54</ele>
        <time>2022-05-06T08:35:55Z</time>
      </trkpt>
      <trkpt lat="44.90971" lon="3.50409">
        <ele>1084.5</ele>
        <time>2022-05-06T08:36:12Z</time>
      </trkpt>
      <trkpt lat="44.90971" lon="3.50404">
        <ele>1084.99</ele>
        <time>2022-05-06T08:36:21Z</time>
      </trkpt>
      <trkpt lat="44.90968" lon="3.50396">
        <ele>1084.5</ele>
        <time>2022-05-06T08:36:28Z</time>
      </trkpt>
      <trkpt lat="44.90957" lon="3.50387">
        <ele>1085.95</ele>
        <time>2022-05-06T08:36:41Z</time>
      </trkpt>
      <trkpt lat="44.90953" lon="3.50388">
        <ele>1085.95</ele>
        <time>2022-05-06T08:36:44Z</time>
      </trkpt>
      <trkpt lat="44.90952" lon="3.50389">
        <ele>1085.95</ele>
        <time>2022-05-06T08:36:45Z</time>
      </trkpt>
      <trkpt lat="44.90951" lon="3.50389">
        <ele>1085.95</ele>
        <time>2022-05-06T08:36:46Z</time>
      </trkpt>
      <trkpt lat="44.90929" lon="3.50377">
        <ele>1087.39</ele>
        <time>2022-05-06T08:37:09Z</time>
      </trkpt>
      <trkpt lat="44.9091" lon="3.50371">
        <ele>1089.31</ele>
        <time>2022-05-06T08:37:28Z</time>
      </trkpt>
      <trkpt lat="44.90898" lon="3.50371">
        <ele>1090.75</ele>
        <time>2022-05-06T08:37:45Z</time>
      </trkpt>
      <trkpt lat="44.90893" lon="3.50371">
        <ele>1091.23</ele>
        <time>2022-05-06T08:38:00Z</time>
      </trkpt>
      <trkpt lat="44.90893" lon="3.50371">
        <ele>1091.23</ele>
        <time>2022-05-06T08:38:19Z</time>
      </trkpt>
      <trkpt lat="44.90891" lon="3.50366">
        <ele>1090.75</ele>
        <time>2022-05-06T08:38:36Z</time>
      </trkpt>
      <trkpt lat="44.90884" lon="3.50359">
        <ele>1091.23</ele>
        <time>2022-05-06T08:38:51Z</time>
      </trkpt>
      <trkpt lat="44.9088" lon="3.5035">
        <ele>1091.23</ele>
        <time>2022-05-06T08:39:03Z</time>
      </trkpt>
      <trkpt lat="44.90879" lon="3.50347">
        <ele>1091.23</ele>
        <time>2022-05-06T08:39:05Z</time>
      </trkpt>
      <trkpt lat="44.90865" lon="3.50318">
        <ele>1091.23</ele>
        <time>2022-05-06T08:39:29Z</time>
      </trkpt>
      <trkpt lat="44.90854" lon="3.50294">
        <ele>1090.27</ele>
        <time>2022-05-06T08:39:49Z</time>
      </trkpt>
      <trkpt lat="44.90836" lon="3.50261">
        <ele>1088.83</ele>
        <time>2022-05-06T08:40:17Z</time>
      </trkpt>
      <trkpt lat="44.90833" lon="3.50258">
        <ele>1088.83</ele>
        <time>2022-05-06T08:40:22Z</time>
      </trkpt>
      <trkpt lat="44.90832" lon="3.50257">
        <ele>1088.83</ele>
        <time>2022-05-06T08:40:23Z</time>
      </trkpt>
      <trkpt lat="44.90831" lon="3.50256">
        <ele>1088.83</ele>
        <time>2022-05-06T08:40:24Z</time>
      </trkpt>
      <trkpt lat="44.9083" lon="3.50255">
        <ele>1088.83</ele>
        <time>2022-05-06T08:40:25Z</time>
      </trkpt>
      <trkpt lat="44.90829" lon="3.50254">
        <ele>1088.83</ele>
        <time>2022-05-06T08:40:26Z</time>
      </trkpt>
      <trkpt lat="44.90829" lon="3.50252">
        <ele>1088.83</ele>
        <time>2022-05-06T08:40:27Z</time>
      </trkpt>
      <trkpt lat="44.90828" lon="3.50251">
        <ele>1088.83</ele>
        <time>2022-05-06T08:40:28Z</time>
      </trkpt>
      <trkpt lat="44.90827" lon="3.50251">
        <ele>1088.83</ele>
        <time>2022-05-06T08:40:29Z</time>
      </trkpt>
      <trkpt lat="44.90811" lon="3.50233">
        <ele>1086.91</ele>
        <time>2022-05-06T08:40:50Z</time>
      </trkpt>
      <trkpt lat="44.90791" lon="3.50211">
        <ele>1085.47</ele>
        <time>2022-05-06T08:41:14Z</time>
      </trkpt>
      <trkpt lat="44.9077" lon="3.50197">
        <ele>1084.02</ele>
        <time>2022-05-06T08:41:36Z</time>
      </trkpt>
      <trkpt lat="44.90742" lon="3.50192">
        <ele>1082.1</ele>
        <time>2022-05-06T08:42:02Z</time>
      </trkpt>
      <trkpt lat="44.90739" lon="3.50192">
        <ele>1081.62</ele>
        <time>2022-05-06T08:42:07Z</time>
      </trkpt>
      <trkpt lat="44.90736" lon="3.50191">
        <ele>1082.1</ele>
        <time>2022-05-06T08:42:09Z</time>
      </trkpt>
      <trkpt lat="44.9072" lon="3.50193">
        <ele>1081.14</ele>
        <time>2022-05-06T08:42:23Z</time>
      </trkpt>
      <trkpt lat="44.90689" lon="3.50194">
        <ele>1081.14</ele>
        <time>2022-05-06T08:42:49Z</time>
      </trkpt>
      <trkpt lat="44.90664" lon="3.50195">
        <ele>1081.62</ele>
        <time>2022-05-06T08:43:11Z</time>
      </trkpt>
      <trkpt lat="44.90641" lon="3.50194">
        <ele>1081.62</ele>
        <time>2022-05-06T08:43:32Z</time>
      </trkpt>
      <trkpt lat="44.90616" lon="3.50196">
        <ele>1082.58</ele>
        <time>2022-05-06T08:43:55Z</time>
      </trkpt>
      <trkpt lat="44.90588" lon="3.50203">
        <ele>1084.02</ele>
        <time>2022-05-06T08:44:21Z</time>
      </trkpt>
      <trkpt lat="44.90561" lon="3.50208">
        <ele>1084.99</ele>
        <time>2022-05-06T08:44:46Z</time>
      </trkpt>
      <trkpt lat="44.90556" lon="3.50208">
        <ele>1084.99</ele>
        <time>2022-05-06T08:44:51Z</time>
      </trkpt>
      <trkpt lat="44.9053" lon="3.50206">
        <ele>1086.43</ele>
        <time>2022-05-06T08:45:14Z</time>
      </trkpt>
      <trkpt lat="44.90504" lon="3.50198">
        <ele>1087.39</ele>
        <time>2022-05-06T08:45:38Z</time>
      </trkpt>
      <trkpt lat="44.90481" lon="3.50194">
        <ele>1087.87</ele>
        <time>2022-05-06T08:45:59Z</time>
      </trkpt>
      <trkpt lat="44.90457" lon="3.50196">
        <ele>1088.83</ele>
        <time>2022-05-06T08:46:21Z</time>
      </trkpt>
      <trkpt lat="44.90437" lon="3.50197">
        <ele>1089.31</ele>
        <time>2022-05-06T08:46:40Z</time>
      </trkpt>
      <trkpt lat="44.90415" lon="3.50194">
        <ele>1090.27</ele>
        <time>2022-05-06T08:47:01Z</time>
      </trkpt>
      <trkpt lat="44.90389" lon="3.50184">
        <ele>1091.23</ele>
        <time>2022-05-06T08:47:26Z</time>
      </trkpt>
      <trkpt lat="44.90368" lon="3.50168">
        <ele>1092.2</ele>
        <time>2022-05-06T08:47:48Z</time>
      </trkpt>
      <trkpt lat="44.90348" lon="3.50146">
        <ele>1093.16</ele>
        <time>2022-05-06T08:48:12Z</time>
      </trkpt>
      <trkpt lat="44.90329" lon="3.50126">
        <ele>1096.04</ele>
        <time>2022-05-06T08:48:36Z</time>
      </trkpt>
      <trkpt lat="44.90312" lon="3.50113">
        <ele>1097.96</ele>
        <time>2022-05-06T08:48:57Z</time>
      </trkpt>
      <trkpt lat="44.90311" lon="3.50112">
        <ele>1097.96</ele>
        <time>2022-05-06T08:48:58Z</time>
      </trkpt>
      <trkpt lat="44.9031" lon="3.50111">
        <ele>1097.96</ele>
        <time>2022-05-06T08:48:59Z</time>
      </trkpt>
      <trkpt lat="44.90309" lon="3.50111">
        <ele>1097.96</ele>
        <time>2022-05-06T08:49:00Z</time>
      </trkpt>
      <trkpt lat="44.90308" lon="3.5011">
        <ele>1097.96</ele>
        <time>2022-05-06T08:49:01Z</time>
      </trkpt>
      <trkpt lat="44.90307" lon="3.50109">
        <ele>1097.96</ele>
        <time>2022-05-06T08:49:02Z</time>
      </trkpt>
      <trkpt lat="44.90306" lon="3.50109">
        <ele>1097.96</ele>
        <time>2022-05-06T08:49:03Z</time>
      </trkpt>
      <trkpt lat="44.90286" lon="3.501">
        <ele>1099.4</ele>
        <time>2022-05-06T08:49:23Z</time>
      </trkpt>
      <trkpt lat="44.90261" lon="3.50087">
        <ele>1100.37</ele>
        <time>2022-05-06T08:49:47Z</time>
      </trkpt>
      <trkpt lat="44.90236" lon="3.50071">
        <ele>1101.81</ele>
        <time>2022-05-06T08:50:11Z</time>
      </trkpt>
      <trkpt lat="44.90211" lon="3.50056">
        <ele>1102.29</ele>
        <time>2022-05-06T08:50:35Z</time>
      </trkpt>
      <trkpt lat="44.90179" lon="3.50044">
        <ele>1103.25</ele>
        <time>2022-05-06T08:51:03Z</time>
      </trkpt>
      <trkpt lat="44.90157" lon="3.50039">
        <ele>1103.25</ele>
        <time>2022-05-06T08:51:22Z</time>
      </trkpt>
      <trkpt lat="44.90127" lon="3.50034">
        <ele>1102.77</ele>
        <time>2022-05-06T08:51:48Z</time>
      </trkpt>
      <trkpt lat="44.901" lon="3.50036">
        <ele>1102.77</ele>
        <time>2022-05-06T08:52:11Z</time>
      </trkpt>
      <trkpt lat="44.90073" lon="3.5004">
        <ele>1104.21</ele>
        <time>2022-05-06T08:52:36Z</time>
      </trkpt>
      <trkpt lat="44.90051" lon="3.50044">
        <ele>1106.13</ele>
        <time>2022-05-06T08:52:56Z</time>
      </trkpt>
      <trkpt lat="44.90029" lon="3.50052">
        <ele>1107.58</ele>
        <time>2022-05-06T08:53:16Z</time>
      </trkpt>
      <trkpt lat="44.90005" lon="3.50054">
        <ele>1109.5</ele>
        <time>2022-05-06T08:53:40Z</time>
      </trkpt>
      <trkpt lat="44.89986" lon="3.50057">
        <ele>1110.46</ele>
        <time>2022-05-06T08:53:59Z</time>
      </trkpt>
      <trkpt lat="44.89968" lon="3.50065">
        <ele>1111.9</ele>
        <time>2022-05-06T08:54:17Z</time>
      </trkpt>
      <trkpt lat="44.89952" lon="3.50071">
        <ele>1112.86</ele>
        <time>2022-05-06T08:54:33Z</time>
      </trkpt>
      <trkpt lat="44.89951" lon="3.50072">
        <ele>1112.86</ele>
        <time>2022-05-06T08:54:34Z</time>
      </trkpt>
      <trkpt lat="44.8995" lon="3.50072">
        <ele>1112.86</ele>
        <time>2022-05-06T08:54:35Z</time>
      </trkpt>
      <trkpt lat="44.89934" lon="3.50074">
        <ele>1113.82</ele>
        <time>2022-05-06T08:54:52Z</time>
      </trkpt>
      <trkpt lat="44.89912" lon="3.50084">
        <ele>1114.31</ele>
        <time>2022-05-06T08:55:11Z</time>
      </trkpt>
      <trkpt lat="44.89881" lon="3.50096">
        <ele>1114.79</ele>
        <time>2022-05-06T08:55:39Z</time>
      </trkpt>
      <trkpt lat="44.89851" lon="3.50091">
        <ele>1113.82</ele>
        <time>2022-05-06T08:56:05Z</time>
      </trkpt>
      <trkpt lat="44.89824" lon="3.50076">
        <ele>1113.34</ele>
        <time>2022-05-06T08:56:30Z</time>
      </trkpt>
      <trkpt lat="44.89813" lon="3.50071">
        <ele>1113.34</ele>
        <time>2022-05-06T08:56:43Z</time>
      </trkpt>
      <trkpt lat="44.89812" lon="3.5007">
        <ele>1113.34</ele>
        <time>2022-05-06T08:56:44Z</time>
      </trkpt>
      <trkpt lat="44.8981" lon="3.50069">
        <ele>1113.34</ele>
        <time>2022-05-06T08:56:46Z</time>
      </trkpt>
      <trkpt lat="44.89802" lon="3.50065">
        <ele>1113.82</ele>
        <time>2022-05-06T08:56:55Z</time>
      </trkpt>
      <trkpt lat="44.89801" lon="3.50064">
        <ele>1113.82</ele>
        <time>2022-05-06T08:56:56Z</time>
      </trkpt>
      <trkpt lat="44.898" lon="3.50064">
        <ele>1113.82</ele>
        <time>2022-05-06T08:56:57Z</time>
      </trkpt>
      <trkpt lat="44.89771" lon="3.5005">
        <ele>1114.79</ele>
        <time>2022-05-06T08:57:22Z</time>
      </trkpt>
      <trkpt lat="44.89741" lon="3.50039">
        <ele>1117.19</ele>
        <time>2022-05-06T08:57:50Z</time>
      </trkpt>
      <trkpt lat="44.89715" lon="3.50031">
        <ele>1119.11</ele>
        <time>2022-05-06T08:58:14Z</time>
      </trkpt>
      <trkpt lat="44.8969" lon="3.50023">
        <ele>1121.52</ele>
        <time>2022-05-06T08:58:39Z</time>
      </trkpt>
      <trkpt lat="44.89673" lon="3.50018">
        <ele>1123.92</ele>
        <time>2022-05-06T08:58:56Z</time>
      </trkpt>
      <trkpt lat="44.89657" lon="3.50013">
        <ele>1125.84</ele>
        <time>2022-05-06T08:59:13Z</time>
      </trkpt>
      <trkpt lat="44.89641" lon="3.50009">
        <ele>1127.76</ele>
        <time>2022-05-06T08:59:29Z</time>
      </trkpt>
      <trkpt lat="44.89617" lon="3.50001">
        <ele>1130.65</ele>
        <time>2022-05-06T08:59:52Z</time>
      </trkpt>
      <trkpt lat="44.89601" lon="3.5">
        <ele>1132.57</ele>
        <time>2022-05-06T09:00:09Z</time>
      </trkpt>
      <trkpt lat="44.89577" lon="3.50003">
        <ele>1134.97</ele>
        <time>2022-05-06T09:00:33Z</time>
      </trkpt>
      <trkpt lat="44.89554" lon="3.50008">
        <ele>1136.9</ele>
        <time>2022-05-06T09:00:55Z</time>
      </trkpt>
      <trkpt lat="44.89527" lon="3.50017">
        <ele>1138.82</ele>
        <time>2022-05-06T09:01:20Z</time>
      </trkpt>
      <trkpt lat="44.89509" lon="3.50023">
        <ele>1140.26</ele>
        <time>2022-05-06T09:01:37Z</time>
      </trkpt>
      <trkpt lat="44.89492" lon="3.50024">
        <ele>1141.7</ele>
        <time>2022-05-06T09:01:55Z</time>
      </trkpt>
      <trkpt lat="44.89478" lon="3.50021">
        <ele>1142.18</ele>
        <time>2022-05-06T09:02:14Z</time>
      </trkpt>
      <trkpt lat="44.89474" lon="3.50019">
        <ele>1141.7</ele>
        <time>2022-05-06T09:02:38Z</time>
      </trkpt>
      <trkpt lat="44.89474" lon="3.50018">
        <ele>1141.7</ele>
        <time>2022-05-06T09:03:09Z</time>
      </trkpt>
      <trkpt lat="44.89473" lon="3.50018">
        <ele>1141.22</ele>
        <time>2022-05-06T09:03:39Z</time>
      </trkpt>
      <trkpt lat="44.89474" lon="3.50021">
        <ele>1141.22</ele>
        <time>2022-05-06T09:03:55Z</time>
      </trkpt>
      <trkpt lat="44.89468" lon="3.5002">
        <ele>1141.22</ele>
        <time>2022-05-06T09:04:04Z</time>
      </trkpt>
      <trkpt lat="44.89462" lon="3.50019">
        <ele>1141.22</ele>
        <time>2022-05-06T09:04:11Z</time>
      </trkpt>
      <trkpt lat="44.89438" lon="3.5001">
        <ele>1141.22</ele>
        <time>2022-05-06T09:04:36Z</time>
      </trkpt>
      <trkpt lat="44.89415" lon="3.49999">
        <ele>1140.26</ele>
        <time>2022-05-06T09:04:58Z</time>
      </trkpt>
      <trkpt lat="44.89386" lon="3.49985">
        <ele>1137.38</ele>
        <time>2022-05-06T09:05:25Z</time>
      </trkpt>
      <trkpt lat="44.89365" lon="3.49975">
        <ele>1135.94</ele>
        <time>2022-05-06T09:05:46Z</time>
      </trkpt>
      <trkpt lat="44.89342" lon="3.49963">
        <ele>1133.05</ele>
        <time>2022-05-06T09:06:08Z</time>
      </trkpt>
      <trkpt lat="44.89323" lon="3.4995">
        <ele>1132.09</ele>
        <time>2022-05-06T09:06:27Z</time>
      </trkpt>
      <trkpt lat="44.89302" lon="3.49927">
        <ele>1131.13</ele>
        <time>2022-05-06T09:06:48Z</time>
      </trkpt>
      <trkpt lat="44.89287" lon="3.499">
        <ele>1130.17</ele>
        <time>2022-05-06T09:07:08Z</time>
      </trkpt>
      <trkpt lat="44.8927" lon="3.49876">
        <ele>1129.69</ele>
        <time>2022-05-06T09:07:29Z</time>
      </trkpt>
      <trkpt lat="44.89254" lon="3.49852">
        <ele>1130.17</ele>
        <time>2022-05-06T09:07:47Z</time>
      </trkpt>
      <trkpt lat="44.89237" lon="3.49826">
        <ele>1130.17</ele>
        <time>2022-05-06T09:08:06Z</time>
      </trkpt>
      <trkpt lat="44.89222" lon="3.49795">
        <ele>1130.65</ele>
        <time>2022-05-06T09:08:28Z</time>
      </trkpt>
      <trkpt lat="44.89203" lon="3.49763">
        <ele>1130.17</ele>
        <time>2022-05-06T09:08:52Z</time>
      </trkpt>
      <trkpt lat="44.89184" lon="3.49734">
        <ele>1129.69</ele>
        <time>2022-05-06T09:09:15Z</time>
      </trkpt>
      <trkpt lat="44.89168" lon="3.49707">
        <ele>1129.69</ele>
        <time>2022-05-06T09:09:37Z</time>
      </trkpt>
      <trkpt lat="44.89151" lon="3.49672">
        <ele>1128.24</ele>
        <time>2022-05-06T09:10:02Z</time>
      </trkpt>
      <trkpt lat="44.89132" lon="3.49645">
        <ele>1127.76</ele>
        <time>2022-05-06T09:10:25Z</time>
      </trkpt>
      <trkpt lat="44.89115" lon="3.4964">
        <ele>1126.8</ele>
        <time>2022-05-06T09:10:45Z</time>
      </trkpt>
      <trkpt lat="44.89081" lon="3.49636">
        <ele>1124.88</ele>
        <time>2022-05-06T09:11:15Z</time>
      </trkpt>
      <trkpt lat="44.89047" lon="3.49617">
        <ele>1123.92</ele>
        <time>2022-05-06T09:11:40Z</time>
      </trkpt>
      <trkpt lat="44.89028" lon="3.49592">
        <ele>1122</ele>
        <time>2022-05-06T09:12:00Z</time>
      </trkpt>
      <trkpt lat="44.89019" lon="3.49587">
        <ele>1121.03</ele>
        <time>2022-05-06T09:12:20Z</time>
      </trkpt>
      <trkpt lat="44.89016" lon="3.49589">
        <ele>1120.07</ele>
        <time>2022-05-06T09:12:41Z</time>
      </trkpt>
      <trkpt lat="44.89016" lon="3.49583">
        <ele>1120.07</ele>
        <time>2022-05-06T09:13:04Z</time>
      </trkpt>
      <trkpt lat="44.89009" lon="3.49561">
        <ele>1121.52</ele>
        <time>2022-05-06T09:13:26Z</time>
      </trkpt>
      <trkpt lat="44.89004" lon="3.49538">
        <ele>1123.44</ele>
        <time>2022-05-06T09:13:48Z</time>
      </trkpt>
      <trkpt lat="44.89002" lon="3.49529">
        <ele>1123.44</ele>
        <time>2022-05-06T09:14:05Z</time>
      </trkpt>
      <trkpt lat="44.89001" lon="3.49529">
        <ele>1123.44</ele>
        <time>2022-05-06T09:14:34Z</time>
      </trkpt>
      <trkpt lat="44.88995" lon="3.49527">
        <ele>1122</ele>
        <time>2022-05-06T09:14:58Z</time>
      </trkpt>
      <trkpt lat="44.88995" lon="3.49527">
        <ele>1122.48</ele>
        <time>2022-05-06T09:15:15Z</time>
      </trkpt>
      <trkpt lat="44.88996" lon="3.49528">
        <ele>1122.96</ele>
        <time>2022-05-06T09:15:38Z</time>
      </trkpt>
      <trkpt lat="44.88992" lon="3.49525">
        <ele>1122.96</ele>
        <time>2022-05-06T09:16:07Z</time>
      </trkpt>
      <trkpt lat="44.88991" lon="3.49524">
        <ele>1122.96</ele>
        <time>2022-05-06T09:16:08Z</time>
      </trkpt>
      <trkpt lat="44.88991" lon="3.49523">
        <ele>1122.96</ele>
        <time>2022-05-06T09:16:09Z</time>
      </trkpt>
      <trkpt lat="44.88979" lon="3.49506">
        <ele>1121.52</ele>
        <time>2022-05-06T09:16:25Z</time>
      </trkpt>
      <trkpt lat="44.88978" lon="3.49505">
        <ele>1121.52</ele>
        <time>2022-05-06T09:16:26Z</time>
      </trkpt>
      <trkpt lat="44.88959" lon="3.49497">
        <ele>1122</ele>
        <time>2022-05-06T09:16:45Z</time>
      </trkpt>
      <trkpt lat="44.88933" lon="3.49503">
        <ele>1122</ele>
        <time>2022-05-06T09:17:07Z</time>
      </trkpt>
      <trkpt lat="44.88911" lon="3.49499">
        <ele>1121.52</ele>
        <time>2022-05-06T09:17:27Z</time>
      </trkpt>
      <trkpt lat="44.88888" lon="3.49484">
        <ele>1122</ele>
        <time>2022-05-06T09:17:49Z</time>
      </trkpt>
      <trkpt lat="44.88869" lon="3.49471">
        <ele>1123.44</ele>
        <time>2022-05-06T09:18:10Z</time>
      </trkpt>
      <trkpt lat="44.88854" lon="3.49462">
        <ele>1124.88</ele>
        <time>2022-05-06T09:18:28Z</time>
      </trkpt>
      <trkpt lat="44.88829" lon="3.49448">
        <ele>1127.76</ele>
        <time>2022-05-06T09:18:52Z</time>
      </trkpt>
      <trkpt lat="44.88822" lon="3.49448">
        <ele>1128.24</ele>
        <time>2022-05-06T09:19:11Z</time>
      </trkpt>
      <trkpt lat="44.88817" lon="3.49451">
        <ele>1128.24</ele>
        <time>2022-05-06T09:19:18Z</time>
      </trkpt>
      <trkpt lat="44.88799" lon="3.49477">
        <ele>1129.21</ele>
        <time>2022-05-06T09:19:42Z</time>
      </trkpt>
      <trkpt lat="44.88794" lon="3.49486">
        <ele>1130.17</ele>
        <time>2022-05-06T09:19:57Z</time>
      </trkpt>
      <trkpt lat="44.88785" lon="3.49503">
        <ele>1130.17</ele>
        <time>2022-05-06T09:20:13Z</time>
      </trkpt>
      <trkpt lat="44.88771" lon="3.4953">
        <ele>1131.13</ele>
        <time>2022-05-06T09:20:37Z</time>
      </trkpt>
      <trkpt lat="44.88766" lon="3.49538">
        <ele>1131.61</ele>
        <time>2022-05-06T09:20:53Z</time>
      </trkpt>
      <trkpt lat="44.88764" lon="3.49538">
        <ele>1132.09</ele>
        <time>2022-05-06T09:20:55Z</time>
      </trkpt>
      <trkpt lat="44.88763" lon="3.49538">
        <ele>1132.09</ele>
        <time>2022-05-06T09:20:56Z</time>
      </trkpt>
      <trkpt lat="44.88762" lon="3.49538">
        <ele>1132.09</ele>
        <time>2022-05-06T09:20:57Z</time>
      </trkpt>
      <trkpt lat="44.88761" lon="3.49538">
        <ele>1132.09</ele>
        <time>2022-05-06T09:20:58Z</time>
      </trkpt>
      <trkpt lat="44.8876" lon="3.49538">
        <ele>1132.09</ele>
        <time>2022-05-06T09:20:59Z</time>
      </trkpt>
      <trkpt lat="44.88759" lon="3.49539">
        <ele>1132.09</ele>
        <time>2022-05-06T09:21:00Z</time>
      </trkpt>
      <trkpt lat="44.88758" lon="3.4954">
        <ele>1132.09</ele>
        <time>2022-05-06T09:21:01Z</time>
      </trkpt>
      <trkpt lat="44.88742" lon="3.4957">
        <ele>1133.05</ele>
        <time>2022-05-06T09:21:26Z</time>
      </trkpt>
      <trkpt lat="44.8874" lon="3.49574">
        <ele>1134.97</ele>
        <time>2022-05-06T09:21:46Z</time>
      </trkpt>
      <trkpt lat="44.8874" lon="3.49574">
        <ele>1134.97</ele>
        <time>2022-05-06T09:22:06Z</time>
      </trkpt>
      <trkpt lat="44.8874" lon="3.49574">
        <ele>1134.97</ele>
        <time>2022-05-06T09:22:28Z</time>
      </trkpt>
      <trkpt lat="44.88737" lon="3.49577">
        <ele>1134.49</ele>
        <time>2022-05-06T09:22:49Z</time>
      </trkpt>
      <trkpt lat="44.88735" lon="3.49578">
        <ele>1134.49</ele>
        <time>2022-05-06T09:22:57Z</time>
      </trkpt>
      <trkpt lat="44.88733" lon="3.49579">
        <ele>1134.49</ele>
        <time>2022-05-06T09:22:59Z</time>
      </trkpt>
      <trkpt lat="44.88732" lon="3.49579">
        <ele>1134.49</ele>
        <time>2022-05-06T09:23:00Z</time>
      </trkpt>
      <trkpt lat="44.88724" lon="3.4959">
        <ele>1136.42</ele>
        <time>2022-05-06T09:23:15Z</time>
      </trkpt>
      <trkpt lat="44.88712" lon="3.49603">
        <ele>1138.82</ele>
        <time>2022-05-06T09:23:31Z</time>
      </trkpt>
      <trkpt lat="44.88704" lon="3.49613">
        <ele>1139.78</ele>
        <time>2022-05-06T09:23:42Z</time>
      </trkpt>
      <trkpt lat="44.88703" lon="3.49615">
        <ele>1139.78</ele>
        <time>2022-05-06T09:23:43Z</time>
      </trkpt>
      <trkpt lat="44.88702" lon="3.49616">
        <ele>1139.78</ele>
        <time>2022-05-06T09:23:44Z</time>
      </trkpt>
      <trkpt lat="44.88684" lon="3.49637">
        <ele>1140.74</ele>
        <time>2022-05-06T09:24:06Z</time>
      </trkpt>
      <trkpt lat="44.8866" lon="3.49659">
        <ele>1141.7</ele>
        <time>2022-05-06T09:24:31Z</time>
      </trkpt>
      <trkpt lat="44.88633" lon="3.49675">
        <ele>1142.18</ele>
        <time>2022-05-06T09:24:54Z</time>
      </trkpt>
      <trkpt lat="44.88601" lon="3.49684">
        <ele>1140.74</ele>
        <time>2022-05-06T09:25:21Z</time>
      </trkpt>
      <trkpt lat="44.88564" lon="3.49684">
        <ele>1140.26</ele>
        <time>2022-05-06T09:25:52Z</time>
      </trkpt>
      <trkpt lat="44.88537" lon="3.49682">
        <ele>1139.78</ele>
        <time>2022-05-06T09:26:15Z</time>
      </trkpt>
      <trkpt lat="44.88503" lon="3.49677">
        <ele>1139.78</ele>
        <time>2022-05-06T09:26:43Z</time>
      </trkpt>
      <trkpt lat="44.88475" lon="3.49673">
        <ele>1138.82</ele>
        <time>2022-05-06T09:27:07Z</time>
      </trkpt>
      <trkpt lat="44.88441" lon="3.49674">
        <ele>1138.34</ele>
        <time>2022-05-06T09:27:35Z</time>
      </trkpt>
      <trkpt lat="44.88415" lon="3.4968">
        <ele>1137.38</ele>
        <time>2022-05-06T09:27:57Z</time>
      </trkpt>
      <trkpt lat="44.88414" lon="3.49681">
        <ele>1137.38</ele>
        <time>2022-05-06T09:27:58Z</time>
      </trkpt>
      <trkpt lat="44.88413" lon="3.49681">
        <ele>1137.38</ele>
        <time>2022-05-06T09:27:59Z</time>
      </trkpt>
      <trkpt lat="44.88412" lon="3.49682">
        <ele>1137.38</ele>
        <time>2022-05-06T09:28:00Z</time>
      </trkpt>
      <trkpt lat="44.88411" lon="3.49683">
        <ele>1137.38</ele>
        <time>2022-05-06T09:28:01Z</time>
      </trkpt>
      <trkpt lat="44.8839" lon="3.4971">
        <ele>1137.38</ele>
        <time>2022-05-06T09:28:26Z</time>
      </trkpt>
      <trkpt lat="44.88374" lon="3.49744">
        <ele>1136.42</ele>
        <time>2022-05-06T09:28:51Z</time>
      </trkpt>
      <trkpt lat="44.8836" lon="3.49777">
        <ele>1135.94</ele>
        <time>2022-05-06T09:29:15Z</time>
      </trkpt>
      <trkpt lat="44.88346" lon="3.49807">
        <ele>1135.94</ele>
        <time>2022-05-06T09:29:36Z</time>
      </trkpt>
      <trkpt lat="44.8834" lon="3.49825">
        <ele>1135.94</ele>
        <time>2022-05-06T09:29:55Z</time>
      </trkpt>
      <trkpt lat="44.88333" lon="3.49833">
        <ele>1135.94</ele>
        <time>2022-05-06T09:30:08Z</time>
      </trkpt>
      <trkpt lat="44.88328" lon="3.49833">
        <ele>1136.42</ele>
        <time>2022-05-06T09:30:15Z</time>
      </trkpt>
      <trkpt lat="44.88326" lon="3.49832">
        <ele>1136.9</ele>
        <time>2022-05-06T09:30:31Z</time>
      </trkpt>
      <trkpt lat="44.88325" lon="3.49835">
        <ele>1136.42</ele>
        <time>2022-05-06T09:30:57Z</time>
      </trkpt>
      <trkpt lat="44.88322" lon="3.4984">
        <ele>1136.42</ele>
        <time>2022-05-06T09:31:02Z</time>
      </trkpt>
      <trkpt lat="44.88316" lon="3.49847">
        <ele>1134.97</ele>
        <time>2022-05-06T09:31:21Z</time>
      </trkpt>
      <trkpt lat="44.88316" lon="3.49847">
        <ele>1134.97</ele>
        <time>2022-05-06T09:31:56Z</time>
      </trkpt>
      <trkpt lat="44.88316" lon="3.49845">
        <ele>1134.97</ele>
        <time>2022-05-06T09:32:39Z</time>
      </trkpt>
      <trkpt lat="44.88317" lon="3.49843">
        <ele>1134.49</ele>
        <time>2022-05-06T09:33:12Z</time>
      </trkpt>
      <trkpt lat="44.88318" lon="3.4984">
        <ele>1134.97</ele>
        <time>2022-05-06T09:33:45Z</time>
      </trkpt>
      <trkpt lat="44.88318" lon="3.49839">
        <ele>1134.97</ele>
        <time>2022-05-06T09:34:21Z</time>
      </trkpt>
      <trkpt lat="44.88316" lon="3.49845">
        <ele>1134.97</ele>
        <time>2022-05-06T09:34:42Z</time>
      </trkpt>
      <trkpt lat="44.88316" lon="3.49846">
        <ele>1134.97</ele>
        <time>2022-05-06T09:34:43Z</time>
      </trkpt>
      <trkpt lat="44.88313" lon="3.49851">
        <ele>1134.49</ele>
        <time>2022-05-06T09:34:47Z</time>
      </trkpt>
      <trkpt lat="44.88293" lon="3.49873">
        <ele>1132.57</ele>
        <time>2022-05-06T09:35:10Z</time>
      </trkpt>
      <trkpt lat="44.88268" lon="3.49891">
        <ele>1131.61</ele>
        <time>2022-05-06T09:35:34Z</time>
      </trkpt>
      <trkpt lat="44.88238" lon="3.49902">
        <ele>1129.69</ele>
        <time>2022-05-06T09:36:02Z</time>
      </trkpt>
      <trkpt lat="44.88218" lon="3.49908">
        <ele>1128.24</ele>
        <time>2022-05-06T09:36:23Z</time>
      </trkpt>
      <trkpt lat="44.88205" lon="3.49902">
        <ele>1126.8</ele>
        <time>2022-05-06T09:36:42Z</time>
      </trkpt>
      <trkpt lat="44.88182" lon="3.49901">
        <ele>1123.44</ele>
        <time>2022-05-06T09:37:05Z</time>
      </trkpt>
      <trkpt lat="44.88164" lon="3.49904">
        <ele>1120.55</ele>
        <time>2022-05-06T09:37:22Z</time>
      </trkpt>
      <trkpt lat="44.88155" lon="3.49912">
        <ele>1118.63</ele>
        <time>2022-05-06T09:37:41Z</time>
      </trkpt>
      <trkpt lat="44.88143" lon="3.49915">
        <ele>1117.67</ele>
        <time>2022-05-06T09:37:57Z</time>
      </trkpt>
      <trkpt lat="44.8814" lon="3.49916">
        <ele>1117.67</ele>
        <time>2022-05-06T09:38:02Z</time>
      </trkpt>
      <trkpt lat="44.88139" lon="3.49916">
        <ele>1117.67</ele>
        <time>2022-05-06T09:38:03Z</time>
      </trkpt>
      <trkpt lat="44.88139" lon="3.49917">
        <ele>1117.19</ele>
        <time>2022-05-06T09:38:04Z</time>
      </trkpt>
      <trkpt lat="44.88137" lon="3.49917">
        <ele>1117.19</ele>
        <time>2022-05-06T09:38:05Z</time>
      </trkpt>
      <trkpt lat="44.88136" lon="3.49917">
        <ele>1117.19</ele>
        <time>2022-05-06T09:38:06Z</time>
      </trkpt>
      <trkpt lat="44.88132" lon="3.49919">
        <ele>1117.19</ele>
        <time>2022-05-06T09:38:11Z</time>
      </trkpt>
      <trkpt lat="44.88131" lon="3.49919">
        <ele>1117.19</ele>
        <time>2022-05-06T09:38:12Z</time>
      </trkpt>
      <trkpt lat="44.8813" lon="3.4992">
        <ele>1116.71</ele>
        <time>2022-05-06T09:38:13Z</time>
      </trkpt>
      <trkpt lat="44.88129" lon="3.49921">
        <ele>1116.71</ele>
        <time>2022-05-06T09:38:14Z</time>
      </trkpt>
      <trkpt lat="44.88128" lon="3.49921">
        <ele>1116.71</ele>
        <time>2022-05-06T09:38:15Z</time>
      </trkpt>
      <trkpt lat="44.88121" lon="3.49925">
        <ele>1116.23</ele>
        <time>2022-05-06T09:38:26Z</time>
      </trkpt>
      <trkpt lat="44.8812" lon="3.49926">
        <ele>1116.23</ele>
        <time>2022-05-06T09:38:27Z</time>
      </trkpt>
      <trkpt lat="44.88109" lon="3.49936">
        <ele>1115.27</ele>
        <time>2022-05-06T09:38:45Z</time>
      </trkpt>
      <trkpt lat="44.88106" lon="3.49934">
        <ele>1113.82</ele>
        <time>2022-05-06T09:39:11Z</time>
      </trkpt>
      <trkpt lat="44.88106" lon="3.49934">
        <ele>1113.82</ele>
        <time>2022-05-06T09:39:30Z</time>
      </trkpt>
      <trkpt lat="44.88108" lon="3.49936">
        <ele>1113.82</ele>
        <time>2022-05-06T09:39:37Z</time>
      </trkpt>
      <trkpt lat="44.88108" lon="3.49932">
        <ele>1113.82</ele>
        <time>2022-05-06T09:39:52Z</time>
      </trkpt>
      <trkpt lat="44.88108" lon="3.49932">
        <ele>1113.82</ele>
        <time>2022-05-06T09:40:30Z</time>
      </trkpt>
      <trkpt lat="44.88108" lon="3.49932">
        <ele>1113.82</ele>
        <time>2022-05-06T09:41:02Z</time>
      </trkpt>
      <trkpt lat="44.88108" lon="3.49932">
        <ele>1113.82</ele>
        <time>2022-05-06T09:41:28Z</time>
      </trkpt>
      <trkpt lat="44.88107" lon="3.4993">
        <ele>1113.82</ele>
        <time>2022-05-06T09:42:01Z</time>
      </trkpt>
      <trkpt lat="44.88107" lon="3.49929">
        <ele>1113.82</ele>
        <time>2022-05-06T09:42:35Z</time>
      </trkpt>
      <trkpt lat="44.88107" lon="3.49929">
        <ele>1113.82</ele>
        <time>2022-05-06T09:43:04Z</time>
      </trkpt>
      <trkpt lat="44.8811" lon="3.49932">
        <ele>1113.82</ele>
        <time>2022-05-06T09:43:28Z</time>
      </trkpt>
      <trkpt lat="44.88105" lon="3.49935">
        <ele>1113.82</ele>
        <time>2022-05-06T09:43:43Z</time>
      </trkpt>
      <trkpt lat="44.88106" lon="3.49934">
        <ele>1113.82</ele>
        <time>2022-05-06T09:44:03Z</time>
      </trkpt>
      <trkpt lat="44.88105" lon="3.49933">
        <ele>1113.82</ele>
        <time>2022-05-06T09:44:22Z</time>
      </trkpt>
      <trkpt lat="44.88105" lon="3.49932">
        <ele>1113.82</ele>
        <time>2022-05-06T09:44:45Z</time>
      </trkpt>
      <trkpt lat="44.88105" lon="3.49933">
        <ele>1113.82</ele>
        <time>2022-05-06T09:45:10Z</time>
      </trkpt>
      <trkpt lat="44.88105" lon="3.49933">
        <ele>1113.82</ele>
        <time>2022-05-06T09:45:42Z</time>
      </trkpt>
      <trkpt lat="44.88105" lon="3.49933">
        <ele>1113.82</ele>
        <time>2022-05-06T09:46:20Z</time>
      </trkpt>
      <trkpt lat="44.88104" lon="3.49934">
        <ele>1113.82</ele>
        <time>2022-05-06T09:46:50Z</time>
      </trkpt>
      <trkpt lat="44.88104" lon="3.49931">
        <ele>1113.82</ele>
        <time>2022-05-06T09:47:26Z</time>
      </trkpt>
      <trkpt lat="44.88099" lon="3.4993">
        <ele>1113.82</ele>
        <time>2022-05-06T09:47:54Z</time>
      </trkpt>
      <trkpt lat="44.88101" lon="3.49931">
        <ele>1113.82</ele>
        <time>2022-05-06T09:48:23Z</time>
      </trkpt>
      <trkpt lat="44.88083" lon="3.49931">
        <ele>1112.38</ele>
        <time>2022-05-06T09:48:40Z</time>
      </trkpt>
      <trkpt lat="44.88067" lon="3.4993">
        <ele>1109.5</ele>
        <time>2022-05-06T09:48:57Z</time>
      </trkpt>
      <trkpt lat="44.88053" lon="3.49935">
        <ele>1106.13</ele>
        <time>2022-05-06T09:49:11Z</time>
      </trkpt>
      <trkpt lat="44.88037" lon="3.49939">
        <ele>1103.25</ele>
        <time>2022-05-06T09:49:25Z</time>
      </trkpt>
      <trkpt lat="44.8803" lon="3.49942">
        <ele>1101.81</ele>
        <time>2022-05-06T09:49:32Z</time>
      </trkpt>
      <trkpt lat="44.8803" lon="3.49943">
        <ele>1101.81</ele>
        <time>2022-05-06T09:49:33Z</time>
      </trkpt>
      <trkpt lat="44.88024" lon="3.49962">
        <ele>1099.89</ele>
        <time>2022-05-06T09:49:49Z</time>
      </trkpt>
      <trkpt lat="44.88024" lon="3.49992">
        <ele>1098.44</ele>
        <time>2022-05-06T09:50:11Z</time>
      </trkpt>
      <trkpt lat="44.88016" lon="3.50005">
        <ele>1095.56</ele>
        <time>2022-05-06T09:50:26Z</time>
      </trkpt>
      <trkpt lat="44.8801" lon="3.50008">
        <ele>1093.16</ele>
        <time>2022-05-06T09:50:46Z</time>
      </trkpt>
      <trkpt lat="44.87999" lon="3.5">
        <ele>1090.27</ele>
        <time>2022-05-06T09:51:00Z</time>
      </trkpt>
      <trkpt lat="44.87985" lon="3.5">
        <ele>1087.39</ele>
        <time>2022-05-06T09:51:15Z</time>
      </trkpt>
      <trkpt lat="44.87971" lon="3.50011">
        <ele>1084.02</ele>
        <time>2022-05-06T09:51:30Z</time>
      </trkpt>
      <trkpt lat="44.87954" lon="3.50019">
        <ele>1081.14</ele>
        <time>2022-05-06T09:51:46Z</time>
      </trkpt>
      <trkpt lat="44.87924" lon="3.50023">
        <ele>1077.78</ele>
        <time>2022-05-06T09:52:10Z</time>
      </trkpt>
      <trkpt lat="44.87894" lon="3.50025">
        <ele>1076.81</ele>
        <time>2022-05-06T09:52:32Z</time>
      </trkpt>
      <trkpt lat="44.87867" lon="3.5001">
        <ele>1075.85</ele>
        <time>2022-05-06T09:52:56Z</time>
      </trkpt>
      <trkpt lat="44.87846" lon="3.50007">
        <ele>1076.33</ele>
        <time>2022-05-06T09:53:15Z</time>
      </trkpt>
      <trkpt lat="44.87828" lon="3.50021">
        <ele>1076.33</ele>
        <time>2022-05-06T09:53:35Z</time>
      </trkpt>
      <trkpt lat="44.87819" lon="3.50045">
        <ele>1079.22</ele>
        <time>2022-05-06T09:53:57Z</time>
      </trkpt>
      <trkpt lat="44.87806" lon="3.50085">
        <ele>1081.62</ele>
        <time>2022-05-06T09:54:29Z</time>
      </trkpt>
      <trkpt lat="44.87794" lon="3.50118">
        <ele>1083.54</ele>
        <time>2022-05-06T09:54:53Z</time>
      </trkpt>
      <trkpt lat="44.87782" lon="3.50129">
        <ele>1086.91</ele>
        <time>2022-05-06T09:55:14Z</time>
      </trkpt>
      <trkpt lat="44.87771" lon="3.50121">
        <ele>1089.79</ele>
        <time>2022-05-06T09:55:32Z</time>
      </trkpt>
      <trkpt lat="44.87762" lon="3.50114">
        <ele>1093.16</ele>
        <time>2022-05-06T09:55:49Z</time>
      </trkpt>
      <trkpt lat="44.87741" lon="3.50113">
        <ele>1096.04</ele>
        <time>2022-05-06T09:56:12Z</time>
      </trkpt>
      <trkpt lat="44.87733" lon="3.50114">
        <ele>1096.52</ele>
        <time>2022-05-06T09:56:19Z</time>
      </trkpt>
      <trkpt lat="44.87732" lon="3.50115">
        <ele>1096.52</ele>
        <time>2022-05-06T09:56:20Z</time>
      </trkpt>
      <trkpt lat="44.87716" lon="3.50137">
        <ele>1098.44</ele>
        <time>2022-05-06T09:56:44Z</time>
      </trkpt>
      <trkpt lat="44.87698" lon="3.50152">
        <ele>1099.4</ele>
        <time>2022-05-06T09:57:04Z</time>
      </trkpt>
      <trkpt lat="44.8768" lon="3.50166">
        <ele>1100.85</ele>
        <time>2022-05-06T09:57:25Z</time>
      </trkpt>
      <trkpt lat="44.87659" lon="3.50179">
        <ele>1102.29</ele>
        <time>2022-05-06T09:57:46Z</time>
      </trkpt>
      <trkpt lat="44.87642" lon="3.50186">
        <ele>1103.25</ele>
        <time>2022-05-06T09:58:05Z</time>
      </trkpt>
      <trkpt lat="44.87619" lon="3.50195">
        <ele>1105.17</ele>
        <time>2022-05-06T09:58:29Z</time>
      </trkpt>
      <trkpt lat="44.87596" lon="3.50206">
        <ele>1107.58</ele>
        <time>2022-05-06T09:58:53Z</time>
      </trkpt>
      <trkpt lat="44.87574" lon="3.50223">
        <ele>1110.46</ele>
        <time>2022-05-06T09:59:21Z</time>
      </trkpt>
      <trkpt lat="44.8756" lon="3.50235">
        <ele>1113.34</ele>
        <time>2022-05-06T09:59:43Z</time>
      </trkpt>
      <trkpt lat="44.8755" lon="3.50243">
        <ele>1116.23</ele>
        <time>2022-05-06T10:00:02Z</time>
      </trkpt>
      <trkpt lat="44.87543" lon="3.50247">
        <ele>1118.63</ele>
        <time>2022-05-06T10:00:23Z</time>
      </trkpt>
      <trkpt lat="44.87531" lon="3.50255">
        <ele>1121.52</ele>
        <time>2022-05-06T10:00:42Z</time>
      </trkpt>
      <trkpt lat="44.87517" lon="3.50261">
        <ele>1124.4</ele>
        <time>2022-05-06T10:01:00Z</time>
      </trkpt>
      <trkpt lat="44.87498" lon="3.5027">
        <ele>1127.28</ele>
        <time>2022-05-06T10:01:20Z</time>
      </trkpt>
      <trkpt lat="44.8748" lon="3.50276">
        <ele>1130.65</ele>
        <time>2022-05-06T10:01:45Z</time>
      </trkpt>
      <trkpt lat="44.87461" lon="3.5029">
        <ele>1134.01</ele>
        <time>2022-05-06T10:02:09Z</time>
      </trkpt>
      <trkpt lat="44.87452" lon="3.50289">
        <ele>1135.94</ele>
        <time>2022-05-06T10:02:27Z</time>
      </trkpt>
      <trkpt lat="44.87456" lon="3.50274">
        <ele>1136.42</ele>
        <time>2022-05-06T10:02:50Z</time>
      </trkpt>
      <trkpt lat="44.87458" lon="3.50269">
        <ele>1135.94</ele>
        <time>2022-05-06T10:02:54Z</time>
      </trkpt>
      <trkpt lat="44.87465" lon="3.5024">
        <ele>1134.49</ele>
        <time>2022-05-06T10:03:14Z</time>
      </trkpt>
      <trkpt lat="44.8747" lon="3.50206">
        <ele>1132.57</ele>
        <time>2022-05-06T10:03:37Z</time>
      </trkpt>
      <trkpt lat="44.8747" lon="3.50203">
        <ele>1132.57</ele>
        <time>2022-05-06T10:03:39Z</time>
      </trkpt>
      <trkpt lat="44.8747" lon="3.50202">
        <ele>1132.57</ele>
        <time>2022-05-06T10:03:40Z</time>
      </trkpt>
      <trkpt lat="44.87469" lon="3.502">
        <ele>1132.09</ele>
        <time>2022-05-06T10:03:41Z</time>
      </trkpt>
      <trkpt lat="44.87468" lon="3.50176">
        <ele>1131.13</ele>
        <time>2022-05-06T10:04:01Z</time>
      </trkpt>
      <trkpt lat="44.87465" lon="3.50122">
        <ele>1129.69</ele>
        <time>2022-05-06T10:04:38Z</time>
      </trkpt>
      <trkpt lat="44.87462" lon="3.5009">
        <ele>1128.24</ele>
        <time>2022-05-06T10:04:59Z</time>
      </trkpt>
      <trkpt lat="44.87458" lon="3.50055">
        <ele>1126.8</ele>
        <time>2022-05-06T10:05:21Z</time>
      </trkpt>
      <trkpt lat="44.87451" lon="3.50024">
        <ele>1124.88</ele>
        <time>2022-05-06T10:05:43Z</time>
      </trkpt>
      <trkpt lat="44.87442" lon="3.49996">
        <ele>1123.44</ele>
        <time>2022-05-06T10:06:03Z</time>
      </trkpt>
      <trkpt lat="44.87438" lon="3.49981">
        <ele>1122.96</ele>
        <time>2022-05-06T10:06:15Z</time>
      </trkpt>
      <trkpt lat="44.87438" lon="3.4998">
        <ele>1122.96</ele>
        <time>2022-05-06T10:06:16Z</time>
      </trkpt>
      <trkpt lat="44.87433" lon="3.4997">
        <ele>1122</ele>
        <time>2022-05-06T10:06:32Z</time>
      </trkpt>
      <trkpt lat="44.87432" lon="3.49968">
        <ele>1122</ele>
        <time>2022-05-06T10:06:34Z</time>
      </trkpt>
      <trkpt lat="44.87431" lon="3.49964">
        <ele>1122.48</ele>
        <time>2022-05-06T10:06:38Z</time>
      </trkpt>
      <trkpt lat="44.8743" lon="3.49963">
        <ele>1122.48</ele>
        <time>2022-05-06T10:06:39Z</time>
      </trkpt>
      <trkpt lat="44.87429" lon="3.4996">
        <ele>1122.48</ele>
        <time>2022-05-06T10:06:41Z</time>
      </trkpt>
      <trkpt lat="44.87429" lon="3.49959">
        <ele>1122</ele>
        <time>2022-05-06T10:06:42Z</time>
      </trkpt>
      <trkpt lat="44.87428" lon="3.49958">
        <ele>1122</ele>
        <time>2022-05-06T10:06:43Z</time>
      </trkpt>
      <trkpt lat="44.87423" lon="3.49937">
        <ele>1121.03</ele>
        <time>2022-05-06T10:06:58Z</time>
      </trkpt>
      <trkpt lat="44.87422" lon="3.49935">
        <ele>1121.03</ele>
        <time>2022-05-06T10:06:59Z</time>
      </trkpt>
      <trkpt lat="44.87422" lon="3.49934">
        <ele>1120.55</ele>
        <time>2022-05-06T10:07:00Z</time>
      </trkpt>
      <trkpt lat="44.87421" lon="3.49932">
        <ele>1120.55</ele>
        <time>2022-05-06T10:07:01Z</time>
      </trkpt>
      <trkpt lat="44.87421" lon="3.49931">
        <ele>1120.55</ele>
        <time>2022-05-06T10:07:02Z</time>
      </trkpt>
      <trkpt lat="44.8742" lon="3.4993">
        <ele>1120.55</ele>
        <time>2022-05-06T10:07:03Z</time>
      </trkpt>
      <trkpt lat="44.87409" lon="3.49898">
        <ele>1118.63</ele>
        <time>2022-05-06T10:07:26Z</time>
      </trkpt>
      <trkpt lat="44.87397" lon="3.49867">
        <ele>1117.19</ele>
        <time>2022-05-06T10:07:48Z</time>
      </trkpt>
      <trkpt lat="44.87386" lon="3.49839">
        <ele>1116.23</ele>
        <time>2022-05-06T10:08:09Z</time>
      </trkpt>
      <trkpt lat="44.87383" lon="3.49832">
        <ele>1115.75</ele>
        <time>2022-05-06T10:08:16Z</time>
      </trkpt>
      <trkpt lat="44.87383" lon="3.49831">
        <ele>1115.75</ele>
        <time>2022-05-06T10:08:17Z</time>
      </trkpt>
      <trkpt lat="44.87372" lon="3.49801">
        <ele>1114.79</ele>
        <time>2022-05-06T10:08:37Z</time>
      </trkpt>
      <trkpt lat="44.87357" lon="3.49767">
        <ele>1112.86</ele>
        <time>2022-05-06T10:09:01Z</time>
      </trkpt>
      <trkpt lat="44.87344" lon="3.4974">
        <ele>1110.46</ele>
        <time>2022-05-06T10:09:22Z</time>
      </trkpt>
      <trkpt lat="44.87329" lon="3.49717">
        <ele>1107.58</ele>
        <time>2022-05-06T10:09:42Z</time>
      </trkpt>
      <trkpt lat="44.87311" lon="3.49688">
        <ele>1105.17</ele>
        <time>2022-05-06T10:10:05Z</time>
      </trkpt>
      <trkpt lat="44.87294" lon="3.49663">
        <ele>1102.77</ele>
        <time>2022-05-06T10:10:27Z</time>
      </trkpt>
      <trkpt lat="44.87271" lon="3.49647">
        <ele>1100.85</ele>
        <time>2022-05-06T10:10:49Z</time>
      </trkpt>
      <trkpt lat="44.8725" lon="3.49635">
        <ele>1099.4</ele>
        <time>2022-05-06T10:11:08Z</time>
      </trkpt>
      <trkpt lat="44.87227" lon="3.49621">
        <ele>1097.48</ele>
        <time>2022-05-06T10:11:29Z</time>
      </trkpt>
      <trkpt lat="44.87209" lon="3.49597">
        <ele>1094.6</ele>
        <time>2022-05-06T10:11:51Z</time>
      </trkpt>
      <trkpt lat="44.87201" lon="3.49573">
        <ele>1092.68</ele>
        <time>2022-05-06T10:12:09Z</time>
      </trkpt>
      <trkpt lat="44.87201" lon="3.49572">
        <ele>1092.2</ele>
        <time>2022-05-06T10:12:10Z</time>
      </trkpt>
      <trkpt lat="44.872" lon="3.4957">
        <ele>1092.2</ele>
        <time>2022-05-06T10:12:11Z</time>
      </trkpt>
      <trkpt lat="44.872" lon="3.49569">
        <ele>1092.2</ele>
        <time>2022-05-06T10:12:12Z</time>
      </trkpt>
      <trkpt lat="44.87199" lon="3.49567">
        <ele>1092.2</ele>
        <time>2022-05-06T10:12:13Z</time>
      </trkpt>
      <trkpt lat="44.87199" lon="3.49566">
        <ele>1092.2</ele>
        <time>2022-05-06T10:12:14Z</time>
      </trkpt>
      <trkpt lat="44.87187" lon="3.49536">
        <ele>1089.79</ele>
        <time>2022-05-06T10:12:36Z</time>
      </trkpt>
      <trkpt lat="44.87182" lon="3.4953">
        <ele>1089.79</ele>
        <time>2022-05-06T10:12:43Z</time>
      </trkpt>
      <trkpt lat="44.87163" lon="3.49527">
        <ele>1089.31</ele>
        <time>2022-05-06T10:13:01Z</time>
      </trkpt>
      <trkpt lat="44.87144" lon="3.49536">
        <ele>1091.23</ele>
        <time>2022-05-06T10:13:20Z</time>
      </trkpt>
      <trkpt lat="44.87124" lon="3.4955">
        <ele>1089.79</ele>
        <time>2022-05-06T10:13:41Z</time>
      </trkpt>
      <trkpt lat="44.87101" lon="3.49558">
        <ele>1090.27</ele>
        <time>2022-05-06T10:14:02Z</time>
      </trkpt>
      <trkpt lat="44.87077" lon="3.49562">
        <ele>1090.75</ele>
        <time>2022-05-06T10:14:22Z</time>
      </trkpt>
      <trkpt lat="44.87063" lon="3.49575">
        <ele>1091.71</ele>
        <time>2022-05-06T10:14:41Z</time>
      </trkpt>
      <trkpt lat="44.87059" lon="3.49579">
        <ele>1092.68</ele>
        <time>2022-05-06T10:14:53Z</time>
      </trkpt>
      <trkpt lat="44.87051" lon="3.49582">
        <ele>1092.68</ele>
        <time>2022-05-06T10:15:02Z</time>
      </trkpt>
      <trkpt lat="44.87049" lon="3.49582">
        <ele>1093.16</ele>
        <time>2022-05-06T10:15:03Z</time>
      </trkpt>
      <trkpt lat="44.87029" lon="3.49581">
        <ele>1094.12</ele>
        <time>2022-05-06T10:15:24Z</time>
      </trkpt>
      <trkpt lat="44.87026" lon="3.49581">
        <ele>1094.6</ele>
        <time>2022-05-06T10:15:29Z</time>
      </trkpt>
      <trkpt lat="44.87024" lon="3.49581">
        <ele>1094.6</ele>
        <time>2022-05-06T10:15:30Z</time>
      </trkpt>
      <trkpt lat="44.87023" lon="3.4958">
        <ele>1094.6</ele>
        <time>2022-05-06T10:15:31Z</time>
      </trkpt>
      <trkpt lat="44.87001" lon="3.49577">
        <ele>1096.04</ele>
        <time>2022-05-06T10:15:52Z</time>
      </trkpt>
      <trkpt lat="44.86975" lon="3.49575">
        <ele>1097</ele>
        <time>2022-05-06T10:16:16Z</time>
      </trkpt>
      <trkpt lat="44.86947" lon="3.49577">
        <ele>1098.92</ele>
        <time>2022-05-06T10:16:40Z</time>
      </trkpt>
      <trkpt lat="44.86928" lon="3.49588">
        <ele>1100.37</ele>
        <time>2022-05-06T10:17:03Z</time>
      </trkpt>
      <trkpt lat="44.86901" lon="3.49595">
        <ele>1102.77</ele>
        <time>2022-05-06T10:17:29Z</time>
      </trkpt>
      <trkpt lat="44.86876" lon="3.49601">
        <ele>1103.73</ele>
        <time>2022-05-06T10:17:52Z</time>
      </trkpt>
      <trkpt lat="44.8685" lon="3.49605">
        <ele>1104.21</ele>
        <time>2022-05-06T10:18:14Z</time>
      </trkpt>
      <trkpt lat="44.8683" lon="3.49611">
        <ele>1103.25</ele>
        <time>2022-05-06T10:18:34Z</time>
      </trkpt>
      <trkpt lat="44.86811" lon="3.49618">
        <ele>1102.77</ele>
        <time>2022-05-06T10:18:52Z</time>
      </trkpt>
      <trkpt lat="44.86786" lon="3.49623">
        <ele>1102.29</ele>
        <time>2022-05-06T10:19:15Z</time>
      </trkpt>
      <trkpt lat="44.86763" lon="3.49609">
        <ele>1102.77</ele>
        <time>2022-05-06T10:19:39Z</time>
      </trkpt>
      <trkpt lat="44.86741" lon="3.496">
        <ele>1105.17</ele>
        <time>2022-05-06T10:20:01Z</time>
      </trkpt>
      <trkpt lat="44.86719" lon="3.49593">
        <ele>1106.61</ele>
        <time>2022-05-06T10:20:22Z</time>
      </trkpt>
      <trkpt lat="44.86697" lon="3.4959">
        <ele>1107.58</ele>
        <time>2022-05-06T10:20:43Z</time>
      </trkpt>
      <trkpt lat="44.86682" lon="3.49589">
        <ele>1108.06</ele>
        <time>2022-05-06T10:21:01Z</time>
      </trkpt>
      <trkpt lat="44.86673" lon="3.49591">
        <ele>1108.54</ele>
        <time>2022-05-06T10:21:27Z</time>
      </trkpt>
      <trkpt lat="44.8665" lon="3.49592">
        <ele>1110.46</ele>
        <time>2022-05-06T10:21:48Z</time>
      </trkpt>
      <trkpt lat="44.86627" lon="3.49594">
        <ele>1111.42</ele>
        <time>2022-05-06T10:22:09Z</time>
      </trkpt>
      <trkpt lat="44.86605" lon="3.49592">
        <ele>1112.86</ele>
        <time>2022-05-06T10:22:29Z</time>
      </trkpt>
      <trkpt lat="44.86582" lon="3.49587">
        <ele>1114.79</ele>
        <time>2022-05-06T10:22:50Z</time>
      </trkpt>
      <trkpt lat="44.86562" lon="3.49573">
        <ele>1117.19</ele>
        <time>2022-05-06T10:23:11Z</time>
      </trkpt>
      <trkpt lat="44.86554" lon="3.49564">
        <ele>1117.67</ele>
        <time>2022-05-06T10:23:19Z</time>
      </trkpt>
      <trkpt lat="44.86538" lon="3.4955">
        <ele>1118.15</ele>
        <time>2022-05-06T10:23:35Z</time>
      </trkpt>
      <trkpt lat="44.86517" lon="3.49534">
        <ele>1119.59</ele>
        <time>2022-05-06T10:23:57Z</time>
      </trkpt>
      <trkpt lat="44.86495" lon="3.49523">
        <ele>1120.07</ele>
        <time>2022-05-06T10:24:17Z</time>
      </trkpt>
      <trkpt lat="44.86469" lon="3.49516">
        <ele>1122</ele>
        <time>2022-05-06T10:24:41Z</time>
      </trkpt>
      <trkpt lat="44.86441" lon="3.49515">
        <ele>1122.96</ele>
        <time>2022-05-06T10:25:06Z</time>
      </trkpt>
      <trkpt lat="44.86415" lon="3.49515">
        <ele>1123.44</ele>
        <time>2022-05-06T10:25:28Z</time>
      </trkpt>
      <trkpt lat="44.8639" lon="3.49525">
        <ele>1123.44</ele>
        <time>2022-05-06T10:25:50Z</time>
      </trkpt>
      <trkpt lat="44.86391" lon="3.49536">
        <ele>1122.96</ele>
        <time>2022-05-06T10:26:09Z</time>
      </trkpt>
      <trkpt lat="44.8639" lon="3.4954">
        <ele>1122.96</ele>
        <time>2022-05-06T10:26:22Z</time>
      </trkpt>
      <trkpt lat="44.8639" lon="3.49542">
        <ele>1122.96</ele>
        <time>2022-05-06T10:26:23Z</time>
      </trkpt>
      <trkpt lat="44.8639" lon="3.49545">
        <ele>1122.96</ele>
        <time>2022-05-06T10:26:26Z</time>
      </trkpt>
      <trkpt lat="44.86392" lon="3.49557">
        <ele>1123.44</ele>
        <time>2022-05-06T10:26:34Z</time>
      </trkpt>
      <trkpt lat="44.86393" lon="3.49558">
        <ele>1124.4</ele>
        <time>2022-05-06T10:26:48Z</time>
      </trkpt>
      <trkpt lat="44.86392" lon="3.49555">
        <ele>1124.4</ele>
        <time>2022-05-06T10:26:50Z</time>
      </trkpt>
      <trkpt lat="44.86379" lon="3.4954">
        <ele>1123.44</ele>
        <time>2022-05-06T10:27:08Z</time>
      </trkpt>
      <trkpt lat="44.86362" lon="3.49529">
        <ele>1121.03</ele>
        <time>2022-05-06T10:27:26Z</time>
      </trkpt>
      <trkpt lat="44.86351" lon="3.49525">
        <ele>1119.59</ele>
        <time>2022-05-06T10:27:39Z</time>
      </trkpt>
      <trkpt lat="44.8635" lon="3.49524">
        <ele>1119.59</ele>
        <time>2022-05-06T10:27:40Z</time>
      </trkpt>
      <trkpt lat="44.86349" lon="3.49515">
        <ele>1118.15</ele>
        <time>2022-05-06T10:27:52Z</time>
      </trkpt>
      <trkpt lat="44.86359" lon="3.49509">
        <ele>1117.19</ele>
        <time>2022-05-06T10:28:10Z</time>
      </trkpt>
      <trkpt lat="44.86355" lon="3.49514">
        <ele>1117.67</ele>
        <time>2022-05-06T10:28:40Z</time>
      </trkpt>
      <trkpt lat="44.86355" lon="3.49514">
        <ele>1118.15</ele>
        <time>2022-05-06T10:29:07Z</time>
      </trkpt>
      <trkpt lat="44.86355" lon="3.49512">
        <ele>1118.15</ele>
        <time>2022-05-06T10:29:29Z</time>
      </trkpt>
      <trkpt lat="44.86353" lon="3.49513">
        <ele>1117.67</ele>
        <time>2022-05-06T10:30:00Z</time>
      </trkpt>
      <trkpt lat="44.86351" lon="3.49515">
        <ele>1117.67</ele>
        <time>2022-05-06T10:30:02Z</time>
      </trkpt>
      <trkpt lat="44.8635" lon="3.49515">
        <ele>1117.67</ele>
        <time>2022-05-06T10:30:03Z</time>
      </trkpt>
      <trkpt lat="44.86348" lon="3.49516">
        <ele>1117.67</ele>
        <time>2022-05-06T10:30:04Z</time>
      </trkpt>
      <trkpt lat="44.86325" lon="3.49519">
        <ele>1117.19</ele>
        <time>2022-05-06T10:30:25Z</time>
      </trkpt>
      <trkpt lat="44.86313" lon="3.4952">
        <ele>1116.23</ele>
        <time>2022-05-06T10:30:40Z</time>
      </trkpt>
      <trkpt lat="44.86312" lon="3.4952">
        <ele>1116.23</ele>
        <time>2022-05-06T10:30:41Z</time>
      </trkpt>
      <trkpt lat="44.86291" lon="3.49521">
        <ele>1114.79</ele>
        <time>2022-05-06T10:30:58Z</time>
      </trkpt>
      <trkpt lat="44.86289" lon="3.4952">
        <ele>1114.79</ele>
        <time>2022-05-06T10:30:59Z</time>
      </trkpt>
      <trkpt lat="44.86288" lon="3.4952">
        <ele>1114.79</ele>
        <time>2022-05-06T10:31:00Z</time>
      </trkpt>
      <trkpt lat="44.86267" lon="3.49513">
        <ele>1113.82</ele>
        <time>2022-05-06T10:31:18Z</time>
      </trkpt>
      <trkpt lat="44.8625" lon="3.49496">
        <ele>1112.86</ele>
        <time>2022-05-06T10:31:39Z</time>
      </trkpt>
      <trkpt lat="44.86247" lon="3.4949">
        <ele>1112.38</ele>
        <time>2022-05-06T10:32:02Z</time>
      </trkpt>
      <trkpt lat="44.86244" lon="3.49488">
        <ele>1111.42</ele>
        <time>2022-05-06T10:32:21Z</time>
      </trkpt>
      <trkpt lat="44.86245" lon="3.49488">
        <ele>1110.94</ele>
        <time>2022-05-06T10:32:46Z</time>
      </trkpt>
      <trkpt lat="44.86245" lon="3.49488">
        <ele>1112.38</ele>
        <time>2022-05-06T10:33:16Z</time>
      </trkpt>
      <trkpt lat="44.86245" lon="3.49487">
        <ele>1111.42</ele>
        <time>2022-05-06T10:33:38Z</time>
      </trkpt>
      <trkpt lat="44.86245" lon="3.49487">
        <ele>1110.94</ele>
        <time>2022-05-06T10:34:21Z</time>
      </trkpt>
      <trkpt lat="44.86245" lon="3.49487">
        <ele>1109.98</ele>
        <time>2022-05-06T10:35:51Z</time>
      </trkpt>
      <trkpt lat="44.86245" lon="3.49486">
        <ele>1109.98</ele>
        <time>2022-05-06T10:37:18Z</time>
      </trkpt>
      <trkpt lat="44.86245" lon="3.49485">
        <ele>1109.98</ele>
        <time>2022-05-06T10:39:27Z</time>
      </trkpt>
      <trkpt lat="44.86245" lon="3.49484">
        <ele>1109.98</ele>
        <time>2022-05-06T10:40:40Z</time>
      </trkpt>
      <trkpt lat="44.86245" lon="3.49484">
        <ele>1109.98</ele>
        <time>2022-05-06T10:42:21Z</time>
      </trkpt>
      <trkpt lat="44.86245" lon="3.49484">
        <ele>1109.98</ele>
        <time>2022-05-06T10:44:29Z</time>
      </trkpt>
      <trkpt lat="44.86246" lon="3.49484">
        <ele>1109.98</ele>
        <time>2022-05-06T10:45:42Z</time>
      </trkpt>
      <trkpt lat="44.86246" lon="3.49484">
        <ele>1109.98</ele>
        <time>2022-05-06T10:49:31Z</time>
      </trkpt>
      <trkpt lat="44.86246" lon="3.49485">
        <ele>1109.98</ele>
        <time>2022-05-06T10:52:27Z</time>
      </trkpt>
      <trkpt lat="44.86246" lon="3.49484">
        <ele>1109.98</ele>
        <time>2022-05-06T10:53:50Z</time>
      </trkpt>
      <trkpt lat="44.86246" lon="3.49484">
        <ele>1109.98</ele>
        <time>2022-05-06T10:55:41Z</time>
      </trkpt>
      <trkpt lat="44.86245" lon="3.49484">
        <ele>1109.98</ele>
        <time>2022-05-06T10:56:35Z</time>
      </trkpt>
      <trkpt lat="44.86245" lon="3.49484">
        <ele>1109.98</ele>
        <time>2022-05-06T10:56:59Z</time>
      </trkpt>
      <trkpt lat="44.86245" lon="3.49484">
        <ele>1113.82</ele>
        <time>2022-05-06T10:57:07Z</time>
      </trkpt>
      <trkpt lat="44.86245" lon="3.49484">
        <ele>1113.82</ele>
        <time>2022-05-06T10:57:08Z</time>
      </trkpt>
      <trkpt lat="44.86244" lon="3.49484">
        <ele>1109.98</ele>
        <time>2022-05-06T10:57:18Z</time>
      </trkpt>
      <trkpt lat="44.86244" lon="3.49484">
        <ele>1108.54</ele>
        <time>2022-05-06T10:57:21Z</time>
      </trkpt>
      <trkpt lat="44.86244" lon="3.49484">
        <ele>1111.9</ele>
        <time>2022-05-06T10:57:25Z</time>
      </trkpt>
      <trkpt lat="44.86244" lon="3.49484">
        <ele>1111.42</ele>
        <time>2022-05-06T10:58:03Z</time>
      </trkpt>
      <trkpt lat="44.86244" lon="3.49484">
        <ele>1111.42</ele>
        <time>2022-05-06T10:58:42Z</time>
      </trkpt>
      <trkpt lat="44.86245" lon="3.49484">
        <ele>1111.42</ele>
        <time>2022-05-06T10:59:24Z</time>
      </trkpt>
      <trkpt lat="44.86245" lon="3.49485">
        <ele>1111.42</ele>
        <time>2022-05-06T11:00:32Z</time>
      </trkpt>
      <trkpt lat="44.86245" lon="3.49485">
        <ele>1111.42</ele>
        <time>2022-05-06T11:01:04Z</time>
      </trkpt>
      <trkpt lat="44.86237" lon="3.49494">
        <ele>1112.86</ele>
        <time>2022-05-06T11:01:21Z</time>
      </trkpt>
      <trkpt lat="44.86222" lon="3.49494">
        <ele>1113.34</ele>
        <time>2022-05-06T11:01:37Z</time>
      </trkpt>
      <trkpt lat="44.86215" lon="3.49489">
        <ele>1112.86</ele>
        <time>2022-05-06T11:01:53Z</time>
      </trkpt>
      <trkpt lat="44.86207" lon="3.49482">
        <ele>1112.38</ele>
        <time>2022-05-06T11:02:09Z</time>
      </trkpt>
      <trkpt lat="44.86202" lon="3.49479">
        <ele>1112.38</ele>
        <time>2022-05-06T11:02:22Z</time>
      </trkpt>
      <trkpt lat="44.86199" lon="3.4948">
        <ele>1112.38</ele>
        <time>2022-05-06T11:02:36Z</time>
      </trkpt>
      <trkpt lat="44.862" lon="3.49471">
        <ele>1112.86</ele>
        <time>2022-05-06T11:02:55Z</time>
      </trkpt>
      <trkpt lat="44.86199" lon="3.49466">
        <ele>1112.86</ele>
        <time>2022-05-06T11:03:05Z</time>
      </trkpt>
      <trkpt lat="44.86196" lon="3.4946">
        <ele>1111.42</ele>
        <time>2022-05-06T11:03:21Z</time>
      </trkpt>
      <trkpt lat="44.86196" lon="3.49453">
        <ele>1111.9</ele>
        <time>2022-05-06T11:03:34Z</time>
      </trkpt>
      <trkpt lat="44.86197" lon="3.49458">
        <ele>1111.9</ele>
        <time>2022-05-06T11:03:49Z</time>
      </trkpt>
      <trkpt lat="44.86194" lon="3.4945">
        <ele>1111.9</ele>
        <time>2022-05-06T11:04:02Z</time>
      </trkpt>
      <trkpt lat="44.86193" lon="3.4945">
        <ele>1111.9</ele>
        <time>2022-05-06T11:04:03Z</time>
      </trkpt>
      <trkpt lat="44.86179" lon="3.49426">
        <ele>1111.9</ele>
        <time>2022-05-06T11:04:22Z</time>
      </trkpt>
      <trkpt lat="44.86162" lon="3.49404">
        <ele>1112.38</ele>
        <time>2022-05-06T11:04:43Z</time>
      </trkpt>
      <trkpt lat="44.86148" lon="3.49392">
        <ele>1111.42</ele>
        <time>2022-05-06T11:05:00Z</time>
      </trkpt>
      <trkpt lat="44.86123" lon="3.4937">
        <ele>1110.94</ele>
        <time>2022-05-06T11:05:26Z</time>
      </trkpt>
      <trkpt lat="44.86098" lon="3.49348">
        <ele>1109.98</ele>
        <time>2022-05-06T11:05:51Z</time>
      </trkpt>
      <trkpt lat="44.86081" lon="3.49317">
        <ele>1109.02</ele>
        <time>2022-05-06T11:06:17Z</time>
      </trkpt>
      <trkpt lat="44.86072" lon="3.49292">
        <ele>1109.5</ele>
        <time>2022-05-06T11:06:36Z</time>
      </trkpt>
      <trkpt lat="44.86068" lon="3.49282">
        <ele>1109.98</ele>
        <time>2022-05-06T11:06:44Z</time>
      </trkpt>
      <trkpt lat="44.86067" lon="3.49281">
        <ele>1110.46</ele>
        <time>2022-05-06T11:06:45Z</time>
      </trkpt>
      <trkpt lat="44.86066" lon="3.49278">
        <ele>1110.46</ele>
        <time>2022-05-06T11:06:47Z</time>
      </trkpt>
      <trkpt lat="44.86044" lon="3.4925">
        <ele>1110.94</ele>
        <time>2022-05-06T11:07:13Z</time>
      </trkpt>
      <trkpt lat="44.86018" lon="3.49225">
        <ele>1110.46</ele>
        <time>2022-05-06T11:07:39Z</time>
      </trkpt>
      <trkpt lat="44.85997" lon="3.49204">
        <ele>1110.46</ele>
        <time>2022-05-06T11:08:00Z</time>
      </trkpt>
      <trkpt lat="44.8598" lon="3.49185">
        <ele>1111.42</ele>
        <time>2022-05-06T11:08:22Z</time>
      </trkpt>
      <trkpt lat="44.85978" lon="3.49183">
        <ele>1111.42</ele>
        <time>2022-05-06T11:08:32Z</time>
      </trkpt>
      <trkpt lat="44.85977" lon="3.49182">
        <ele>1111.42</ele>
        <time>2022-05-06T11:08:33Z</time>
      </trkpt>
      <trkpt lat="44.85954" lon="3.49162">
        <ele>1111.42</ele>
        <time>2022-05-06T11:08:55Z</time>
      </trkpt>
      <trkpt lat="44.85939" lon="3.49142">
        <ele>1109.98</ele>
        <time>2022-05-06T11:09:13Z</time>
      </trkpt>
      <trkpt lat="44.8594" lon="3.49114">
        <ele>1110.46</ele>
        <time>2022-05-06T11:09:32Z</time>
      </trkpt>
      <trkpt lat="44.85952" lon="3.49089">
        <ele>1110.46</ele>
        <time>2022-05-06T11:09:50Z</time>
      </trkpt>
      <trkpt lat="44.8597" lon="3.49065">
        <ele>1109.5</ele>
        <time>2022-05-06T11:10:11Z</time>
      </trkpt>
      <trkpt lat="44.85973" lon="3.49059">
        <ele>1109.5</ele>
        <time>2022-05-06T11:10:16Z</time>
      </trkpt>
      <trkpt lat="44.85973" lon="3.49058">
        <ele>1109.5</ele>
        <time>2022-05-06T11:10:17Z</time>
      </trkpt>
      <trkpt lat="44.85972" lon="3.49056">
        <ele>1109.5</ele>
        <time>2022-05-06T11:10:18Z</time>
      </trkpt>
      <trkpt lat="44.85972" lon="3.49055">
        <ele>1109.98</ele>
        <time>2022-05-06T11:10:19Z</time>
      </trkpt>
      <trkpt lat="44.85978" lon="3.49037">
        <ele>1110.46</ele>
        <time>2022-05-06T11:10:34Z</time>
      </trkpt>
      <trkpt lat="44.85984" lon="3.49035">
        <ele>1110.94</ele>
        <time>2022-05-06T11:10:46Z</time>
      </trkpt>
      <trkpt lat="44.85986" lon="3.49036">
        <ele>1110.94</ele>
        <time>2022-05-06T11:10:47Z</time>
      </trkpt>
      <trkpt lat="44.85987" lon="3.49036">
        <ele>1110.94</ele>
        <time>2022-05-06T11:10:48Z</time>
      </trkpt>
      <trkpt lat="44.85992" lon="3.49038">
        <ele>1110.46</ele>
        <time>2022-05-06T11:11:05Z</time>
      </trkpt>
      <trkpt lat="44.85993" lon="3.49039">
        <ele>1110.46</ele>
        <time>2022-05-06T11:11:06Z</time>
      </trkpt>
      <trkpt lat="44.85994" lon="3.4904">
        <ele>1110.46</ele>
        <time>2022-05-06T11:11:07Z</time>
      </trkpt>
      <trkpt lat="44.85997" lon="3.49042">
        <ele>1110.46</ele>
        <time>2022-05-06T11:11:10Z</time>
      </trkpt>
      <trkpt lat="44.86008" lon="3.49036">
        <ele>1110.94</ele>
        <time>2022-05-06T11:11:23Z</time>
      </trkpt>
      <trkpt lat="44.86009" lon="3.49034">
        <ele>1111.42</ele>
        <time>2022-05-06T11:11:25Z</time>
      </trkpt>
      <trkpt lat="44.86012" lon="3.49006">
        <ele>1112.38</ele>
        <time>2022-05-06T11:11:47Z</time>
      </trkpt>
      <trkpt lat="44.86016" lon="3.4897">
        <ele>1113.34</ele>
        <time>2022-05-06T11:12:11Z</time>
      </trkpt>
      <trkpt lat="44.8602" lon="3.48942">
        <ele>1114.31</ele>
        <time>2022-05-06T11:12:30Z</time>
      </trkpt>
      <trkpt lat="44.86023" lon="3.48915">
        <ele>1114.79</ele>
        <time>2022-05-06T11:12:47Z</time>
      </trkpt>
      <trkpt lat="44.86028" lon="3.48878">
        <ele>1116.23</ele>
        <time>2022-05-06T11:13:10Z</time>
      </trkpt>
      <trkpt lat="44.86034" lon="3.48833">
        <ele>1117.19</ele>
        <time>2022-05-06T11:13:38Z</time>
      </trkpt>
      <trkpt lat="44.86045" lon="3.48799">
        <ele>1118.15</ele>
        <time>2022-05-06T11:14:01Z</time>
      </trkpt>
      <trkpt lat="44.86066" lon="3.48776">
        <ele>1119.59</ele>
        <time>2022-05-06T11:14:24Z</time>
      </trkpt>
      <trkpt lat="44.86089" lon="3.48762">
        <ele>1121.03</ele>
        <time>2022-05-06T11:14:45Z</time>
      </trkpt>
      <trkpt lat="44.86107" lon="3.48745">
        <ele>1121.52</ele>
        <time>2022-05-06T11:15:05Z</time>
      </trkpt>
      <trkpt lat="44.86108" lon="3.48745">
        <ele>1122</ele>
        <time>2022-05-06T11:15:06Z</time>
      </trkpt>
      <trkpt lat="44.8611" lon="3.48744">
        <ele>1122</ele>
        <time>2022-05-06T11:15:08Z</time>
      </trkpt>
      <trkpt lat="44.86111" lon="3.48742">
        <ele>1122</ele>
        <time>2022-05-06T11:15:09Z</time>
      </trkpt>
      <trkpt lat="44.86112" lon="3.48741">
        <ele>1122</ele>
        <time>2022-05-06T11:15:10Z</time>
      </trkpt>
      <trkpt lat="44.86112" lon="3.48739">
        <ele>1122</ele>
        <time>2022-05-06T11:15:11Z</time>
      </trkpt>
      <trkpt lat="44.86113" lon="3.48737">
        <ele>1122</ele>
        <time>2022-05-06T11:15:12Z</time>
      </trkpt>
      <trkpt lat="44.86115" lon="3.48717">
        <ele>1122.48</ele>
        <time>2022-05-06T11:15:26Z</time>
      </trkpt>
      <trkpt lat="44.86116" lon="3.48706">
        <ele>1123.44</ele>
        <time>2022-05-06T11:15:43Z</time>
      </trkpt>
      <trkpt lat="44.86115" lon="3.48706">
        <ele>1122.96</ele>
        <time>2022-05-06T11:16:01Z</time>
      </trkpt>
      <trkpt lat="44.86117" lon="3.48704">
        <ele>1122.96</ele>
        <time>2022-05-06T11:16:24Z</time>
      </trkpt>
      <trkpt lat="44.86116" lon="3.48704">
        <ele>1122.96</ele>
        <time>2022-05-06T11:16:48Z</time>
      </trkpt>
      <trkpt lat="44.86119" lon="3.48705">
        <ele>1122.96</ele>
        <time>2022-05-06T11:17:26Z</time>
      </trkpt>
      <trkpt lat="44.86118" lon="3.48698">
        <ele>1123.44</ele>
        <time>2022-05-06T11:17:46Z</time>
      </trkpt>
      <trkpt lat="44.86117" lon="3.48686">
        <ele>1122.96</ele>
        <time>2022-05-06T11:18:16Z</time>
      </trkpt>
      <trkpt lat="44.86134" lon="3.48641">
        <ele>1122.48</ele>
        <time>2022-05-06T11:18:49Z</time>
      </trkpt>
      <trkpt lat="44.8613" lon="3.48557">
        <ele>1122.48</ele>
        <time>2022-05-06T11:19:17Z</time>
      </trkpt>
      <trkpt lat="44.86131" lon="3.48703">
        <ele>1122.48</ele>
        <time>2022-05-06T11:19:55Z</time>
      </trkpt>
      <trkpt lat="44.86154" lon="3.48729">
        <ele>1122.48</ele>
        <time>2022-05-06T11:20:07Z</time>
      </trkpt>
      <trkpt lat="44.86139" lon="3.48699">
        <ele>1122.48</ele>
        <time>2022-05-06T11:20:47Z</time>
      </trkpt>
      <trkpt lat="44.86141" lon="3.487">
        <ele>1122.48</ele>
        <time>2022-05-06T11:20:49Z</time>
      </trkpt>
      <trkpt lat="44.86143" lon="3.48694">
        <ele>1122.48</ele>
        <time>2022-05-06T11:21:01Z</time>
      </trkpt>
      <trkpt lat="44.86143" lon="3.48691">
        <ele>1122.48</ele>
        <time>2022-05-06T11:22:01Z</time>
      </trkpt>
      <trkpt lat="44.86133" lon="3.487">
        <ele>1122.48</ele>
        <time>2022-05-06T11:23:09Z</time>
      </trkpt>
      <trkpt lat="44.86123" lon="3.487">
        <ele>1122.96</ele>
        <time>2022-05-06T11:23:49Z</time>
      </trkpt>
      <trkpt lat="44.86118" lon="3.487">
        <ele>1122.48</ele>
        <time>2022-05-06T11:24:34Z</time>
      </trkpt>
      <trkpt lat="44.86123" lon="3.48692">
        <ele>1122.48</ele>
        <time>2022-05-06T11:25:10Z</time>
      </trkpt>
      <trkpt lat="44.86121" lon="3.48691">
        <ele>1122.96</ele>
        <time>2022-05-06T11:26:00Z</time>
      </trkpt>
      <trkpt lat="44.86117" lon="3.48717">
        <ele>1122.96</ele>
        <time>2022-05-06T11:26:38Z</time>
      </trkpt>
      <trkpt lat="44.86118" lon="3.48715">
        <ele>1122.96</ele>
        <time>2022-05-06T11:27:13Z</time>
      </trkpt>
      <trkpt lat="44.86118" lon="3.48717">
        <ele>1122.48</ele>
        <time>2022-05-06T11:27:49Z</time>
      </trkpt>
      <trkpt lat="44.86126" lon="3.48708">
        <ele>1122.96</ele>
        <time>2022-05-06T11:28:36Z</time>
      </trkpt>
      <trkpt lat="44.86126" lon="3.48709">
        <ele>1122.96</ele>
        <time>2022-05-06T11:29:43Z</time>
      </trkpt>
      <trkpt lat="44.86126" lon="3.4871">
        <ele>1122.96</ele>
        <time>2022-05-06T11:30:28Z</time>
      </trkpt>
      <trkpt lat="44.86125" lon="3.48708">
        <ele>1122.96</ele>
        <time>2022-05-06T11:31:22Z</time>
      </trkpt>
      <trkpt lat="44.86125" lon="3.48708">
        <ele>1122.96</ele>
        <time>2022-05-06T11:31:25Z</time>
      </trkpt>
      <trkpt lat="44.86121" lon="3.48721">
        <ele>1122.96</ele>
        <time>2022-05-06T11:31:38Z</time>
      </trkpt>
      <trkpt lat="44.86132" lon="3.48707">
        <ele>1122.96</ele>
        <time>2022-05-06T11:32:32Z</time>
      </trkpt>
      <trkpt lat="44.86138" lon="3.487">
        <ele>1122</ele>
        <time>2022-05-06T11:33:14Z</time>
      </trkpt>
      <trkpt lat="44.86134" lon="3.48727">
        <ele>1122</ele>
        <time>2022-05-06T11:33:49Z</time>
      </trkpt>
      <trkpt lat="44.86136" lon="3.48751">
        <ele>1122</ele>
        <time>2022-05-06T11:34:11Z</time>
      </trkpt>
      <trkpt lat="44.86134" lon="3.48743">
        <ele>1121.03</ele>
        <time>2022-05-06T11:34:21Z</time>
      </trkpt>
      <trkpt lat="44.86138" lon="3.4872">
        <ele>1122.48</ele>
        <time>2022-05-06T11:35:00Z</time>
      </trkpt>
      <trkpt lat="44.86132" lon="3.48722">
        <ele>1122</ele>
        <time>2022-05-06T11:35:37Z</time>
      </trkpt>
      <trkpt lat="44.86127" lon="3.48726">
        <ele>1122</ele>
        <time>2022-05-06T11:35:46Z</time>
      </trkpt>
      <trkpt lat="44.86133" lon="3.48724">
        <ele>1121.52</ele>
        <time>2022-05-06T11:36:19Z</time>
      </trkpt>
      <trkpt lat="44.86117" lon="3.48723">
        <ele>1121.52</ele>
        <time>2022-05-06T11:37:04Z</time>
      </trkpt>
      <trkpt lat="44.86108" lon="3.48708">
        <ele>1121.03</ele>
        <time>2022-05-06T11:38:07Z</time>
      </trkpt>
      <trkpt lat="44.86121" lon="3.4869">
        <ele>1121.52</ele>
        <time>2022-05-06T11:39:31Z</time>
      </trkpt>
      <trkpt lat="44.86117" lon="3.48711">
        <ele>1121.03</ele>
        <time>2022-05-06T11:39:56Z</time>
      </trkpt>
      <trkpt lat="44.86111" lon="3.48711">
        <ele>1121.03</ele>
        <time>2022-05-06T11:40:03Z</time>
      </trkpt>
      <trkpt lat="44.86111" lon="3.48711">
        <ele>1121.03</ele>
        <time>2022-05-06T11:41:17Z</time>
      </trkpt>
      <trkpt lat="44.86111" lon="3.48711">
        <ele>1121.03</ele>
        <time>2022-05-06T11:42:18Z</time>
      </trkpt>
      <trkpt lat="44.86109" lon="3.48687">
        <ele>1121.03</ele>
        <time>2022-05-06T11:42:20Z</time>
      </trkpt>
      <trkpt lat="44.86111" lon="3.48686">
        <ele>1121.03</ele>
        <time>2022-05-06T11:42:21Z</time>
      </trkpt>
      <trkpt lat="44.86129" lon="3.48667">
        <ele>1120.55</ele>
        <time>2022-05-06T11:42:52Z</time>
      </trkpt>
      <trkpt lat="44.86121" lon="3.48679">
        <ele>1120.07</ele>
        <time>2022-05-06T11:43:26Z</time>
      </trkpt>
      <trkpt lat="44.86123" lon="3.4867">
        <ele>1121.03</ele>
        <time>2022-05-06T11:43:36Z</time>
      </trkpt>
      <trkpt lat="44.86123" lon="3.48664">
        <ele>1121.03</ele>
        <time>2022-05-06T11:43:38Z</time>
      </trkpt>
      <trkpt lat="44.86116" lon="3.487">
        <ele>1119.59</ele>
        <time>2022-05-06T11:44:01Z</time>
      </trkpt>
      <trkpt lat="44.86117" lon="3.48701">
        <ele>1120.07</ele>
        <time>2022-05-06T11:44:32Z</time>
      </trkpt>
      <trkpt lat="44.86116" lon="3.48701">
        <ele>1120.55</ele>
        <time>2022-05-06T11:45:04Z</time>
      </trkpt>
      <trkpt lat="44.86116" lon="3.48701">
        <ele>1116.23</ele>
        <time>2022-05-06T11:45:17Z</time>
      </trkpt>
      <trkpt lat="44.86116" lon="3.48701">
        <ele>1117.67</ele>
        <time>2022-05-06T11:45:23Z</time>
      </trkpt>
      <trkpt lat="44.86116" lon="3.48701">
        <ele>1122</ele>
        <time>2022-05-06T11:45:28Z</time>
      </trkpt>
      <trkpt lat="44.86116" lon="3.48701">
        <ele>1125.36</ele>
        <time>2022-05-06T11:45:32Z</time>
      </trkpt>
      <trkpt lat="44.86116" lon="3.48702">
        <ele>1122</ele>
        <time>2022-05-06T11:45:46Z</time>
      </trkpt>
      <trkpt lat="44.86113" lon="3.48707">
        <ele>1118.15</ele>
        <time>2022-05-06T11:46:01Z</time>
      </trkpt>
      <trkpt lat="44.86113" lon="3.4871">
        <ele>1116.23</ele>
        <time>2022-05-06T11:46:04Z</time>
      </trkpt>
      <trkpt lat="44.86112" lon="3.48712">
        <ele>1118.15</ele>
        <time>2022-05-06T11:46:06Z</time>
      </trkpt>
      <trkpt lat="44.86112" lon="3.48716">
        <ele>1122</ele>
        <time>2022-05-06T11:46:09Z</time>
      </trkpt>
      <trkpt lat="44.86112" lon="3.48718">
        <ele>1122</ele>
        <time>2022-05-06T11:46:10Z</time>
      </trkpt>
      <trkpt lat="44.86112" lon="3.48719">
        <ele>1122</ele>
        <time>2022-05-06T11:46:11Z</time>
      </trkpt>
      <trkpt lat="44.86112" lon="3.48721">
        <ele>1122</ele>
        <time>2022-05-06T11:46:12Z</time>
      </trkpt>
      <trkpt lat="44.86112" lon="3.48727">
        <ele>1121.52</ele>
        <time>2022-05-06T11:46:17Z</time>
      </trkpt>
      <trkpt lat="44.8611" lon="3.48732">
        <ele>1121.03</ele>
        <time>2022-05-06T11:46:21Z</time>
      </trkpt>
      <trkpt lat="44.86103" lon="3.48746">
        <ele>1121.03</ele>
        <time>2022-05-06T11:46:35Z</time>
      </trkpt>
      <trkpt lat="44.86082" lon="3.48765">
        <ele>1119.59</ele>
        <time>2022-05-06T11:46:59Z</time>
      </trkpt>
      <trkpt lat="44.86063" lon="3.48777">
        <ele>1119.11</ele>
        <time>2022-05-06T11:47:19Z</time>
      </trkpt>
      <trkpt lat="44.86045" lon="3.48803">
        <ele>1118.15</ele>
        <time>2022-05-06T11:47:41Z</time>
      </trkpt>
      <trkpt lat="44.86038" lon="3.48829">
        <ele>1116.23</ele>
        <time>2022-05-06T11:47:58Z</time>
      </trkpt>
      <trkpt lat="44.86035" lon="3.48848">
        <ele>1116.23</ele>
        <time>2022-05-06T11:48:15Z</time>
      </trkpt>
      <trkpt lat="44.86031" lon="3.48876">
        <ele>1115.75</ele>
        <time>2022-05-06T11:48:35Z</time>
      </trkpt>
      <trkpt lat="44.86026" lon="3.48925">
        <ele>1114.31</ele>
        <time>2022-05-06T11:49:04Z</time>
      </trkpt>
      <trkpt lat="44.86022" lon="3.4896">
        <ele>1112.38</ele>
        <time>2022-05-06T11:49:29Z</time>
      </trkpt>
      <trkpt lat="44.86017" lon="3.48998">
        <ele>1112.38</ele>
        <time>2022-05-06T11:49:53Z</time>
      </trkpt>
      <trkpt lat="44.86013" lon="3.49028">
        <ele>1111.42</ele>
        <time>2022-05-06T11:50:13Z</time>
      </trkpt>
      <trkpt lat="44.85996" lon="3.49049">
        <ele>1109.98</ele>
        <time>2022-05-06T11:50:33Z</time>
      </trkpt>
      <trkpt lat="44.85976" lon="3.49058">
        <ele>1109.5</ele>
        <time>2022-05-06T11:50:52Z</time>
      </trkpt>
      <trkpt lat="44.85974" lon="3.49059">
        <ele>1109.02</ele>
        <time>2022-05-06T11:51:06Z</time>
      </trkpt>
      <trkpt lat="44.85974" lon="3.4906">
        <ele>1108.54</ele>
        <time>2022-05-06T11:51:29Z</time>
      </trkpt>
      <trkpt lat="44.85975" lon="3.4906">
        <ele>1109.02</ele>
        <time>2022-05-06T11:52:09Z</time>
      </trkpt>
      <trkpt lat="44.85974" lon="3.49059">
        <ele>1110.46</ele>
        <time>2022-05-06T11:52:27Z</time>
      </trkpt>
      <trkpt lat="44.85973" lon="3.4906">
        <ele>1109.98</ele>
        <time>2022-05-06T11:52:28Z</time>
      </trkpt>
      <trkpt lat="44.85972" lon="3.49061">
        <ele>1109.98</ele>
        <time>2022-05-06T11:52:29Z</time>
      </trkpt>
      <trkpt lat="44.85971" lon="3.49063">
        <ele>1109.98</ele>
        <time>2022-05-06T11:52:30Z</time>
      </trkpt>
      <trkpt lat="44.8597" lon="3.49064">
        <ele>1109.98</ele>
        <time>2022-05-06T11:52:31Z</time>
      </trkpt>
      <trkpt lat="44.85969" lon="3.49065">
        <ele>1109.98</ele>
        <time>2022-05-06T11:52:32Z</time>
      </trkpt>
      <trkpt lat="44.85969" lon="3.49067">
        <ele>1109.98</ele>
        <time>2022-05-06T11:52:33Z</time>
      </trkpt>
      <trkpt lat="44.85968" lon="3.49068">
        <ele>1109.98</ele>
        <time>2022-05-06T11:52:34Z</time>
      </trkpt>
      <trkpt lat="44.8595" lon="3.49095">
        <ele>1109.5</ele>
        <time>2022-05-06T11:52:55Z</time>
      </trkpt>
      <trkpt lat="44.85927" lon="3.49106">
        <ele>1109.98</ele>
        <time>2022-05-06T11:53:15Z</time>
      </trkpt>
      <trkpt lat="44.85907" lon="3.4911">
        <ele>1110.46</ele>
        <time>2022-05-06T11:53:33Z</time>
      </trkpt>
      <trkpt lat="44.85905" lon="3.4911">
        <ele>1110.46</ele>
        <time>2022-05-06T11:53:34Z</time>
      </trkpt>
      <trkpt lat="44.85904" lon="3.4911">
        <ele>1110.46</ele>
        <time>2022-05-06T11:53:35Z</time>
      </trkpt>
      <trkpt lat="44.85887" lon="3.49116">
        <ele>1110.94</ele>
        <time>2022-05-06T11:53:55Z</time>
      </trkpt>
      <trkpt lat="44.85883" lon="3.49116">
        <ele>1110.94</ele>
        <time>2022-05-06T11:53:58Z</time>
      </trkpt>
      <trkpt lat="44.85882" lon="3.49116">
        <ele>1111.42</ele>
        <time>2022-05-06T11:53:59Z</time>
      </trkpt>
      <trkpt lat="44.85881" lon="3.49116">
        <ele>1110.94</ele>
        <time>2022-05-06T11:54:00Z</time>
      </trkpt>
      <trkpt lat="44.85854" lon="3.49119">
        <ele>1112.38</ele>
        <time>2022-05-06T11:54:23Z</time>
      </trkpt>
      <trkpt lat="44.8583" lon="3.49122">
        <ele>1112.86</ele>
        <time>2022-05-06T11:54:46Z</time>
      </trkpt>
      <trkpt lat="44.85825" lon="3.49123">
        <ele>1113.34</ele>
        <time>2022-05-06T11:54:52Z</time>
      </trkpt>
      <trkpt lat="44.85824" lon="3.49123">
        <ele>1113.34</ele>
        <time>2022-05-06T11:54:53Z</time>
      </trkpt>
      <trkpt lat="44.85823" lon="3.49123">
        <ele>1113.34</ele>
        <time>2022-05-06T11:54:54Z</time>
      </trkpt>
      <trkpt lat="44.85821" lon="3.49123">
        <ele>1113.34</ele>
        <time>2022-05-06T11:54:55Z</time>
      </trkpt>
      <trkpt lat="44.8582" lon="3.49124">
        <ele>1113.34</ele>
        <time>2022-05-06T11:54:56Z</time>
      </trkpt>
      <trkpt lat="44.85804" lon="3.49127">
        <ele>1113.82</ele>
        <time>2022-05-06T11:55:11Z</time>
      </trkpt>
      <trkpt lat="44.85786" lon="3.49132">
        <ele>1114.79</ele>
        <time>2022-05-06T11:55:31Z</time>
      </trkpt>
      <trkpt lat="44.85782" lon="3.49132">
        <ele>1114.79</ele>
        <time>2022-05-06T11:55:41Z</time>
      </trkpt>
      <trkpt lat="44.85781" lon="3.49132">
        <ele>1114.79</ele>
        <time>2022-05-06T11:55:42Z</time>
      </trkpt>
      <trkpt lat="44.8578" lon="3.49133">
        <ele>1114.79</ele>
        <time>2022-05-06T11:55:43Z</time>
      </trkpt>
      <trkpt lat="44.85779" lon="3.49133">
        <ele>1115.27</ele>
        <time>2022-05-06T11:55:44Z</time>
      </trkpt>
      <trkpt lat="44.85778" lon="3.49133">
        <ele>1115.27</ele>
        <time>2022-05-06T11:55:45Z</time>
      </trkpt>
      <trkpt lat="44.85776" lon="3.49134">
        <ele>1115.27</ele>
        <time>2022-05-06T11:55:46Z</time>
      </trkpt>
      <trkpt lat="44.85775" lon="3.49134">
        <ele>1115.27</ele>
        <time>2022-05-06T11:55:47Z</time>
      </trkpt>
      <trkpt lat="44.85754" lon="3.49142">
        <ele>1117.19</ele>
        <time>2022-05-06T11:56:06Z</time>
      </trkpt>
      <trkpt lat="44.85753" lon="3.49143">
        <ele>1117.19</ele>
        <time>2022-05-06T11:56:07Z</time>
      </trkpt>
      <trkpt lat="44.85751" lon="3.49143">
        <ele>1117.19</ele>
        <time>2022-05-06T11:56:08Z</time>
      </trkpt>
      <trkpt lat="44.8575" lon="3.49144">
        <ele>1117.19</ele>
        <time>2022-05-06T11:56:09Z</time>
      </trkpt>
      <trkpt lat="44.85749" lon="3.49144">
        <ele>1117.67</ele>
        <time>2022-05-06T11:56:10Z</time>
      </trkpt>
      <trkpt lat="44.85726" lon="3.49155">
        <ele>1118.63</ele>
        <time>2022-05-06T11:56:31Z</time>
      </trkpt>
      <trkpt lat="44.85704" lon="3.49165">
        <ele>1119.59</ele>
        <time>2022-05-06T11:56:53Z</time>
      </trkpt>
      <trkpt lat="44.85681" lon="3.49174">
        <ele>1121.52</ele>
        <time>2022-05-06T11:57:16Z</time>
      </trkpt>
      <trkpt lat="44.85665" lon="3.49181">
        <ele>1122.96</ele>
        <time>2022-05-06T11:57:34Z</time>
      </trkpt>
      <trkpt lat="44.85664" lon="3.49181">
        <ele>1122.96</ele>
        <time>2022-05-06T11:57:35Z</time>
      </trkpt>
      <trkpt lat="44.85663" lon="3.49182">
        <ele>1122.96</ele>
        <time>2022-05-06T11:57:36Z</time>
      </trkpt>
      <trkpt lat="44.85637" lon="3.49192">
        <ele>1124.4</ele>
        <time>2022-05-06T11:58:02Z</time>
      </trkpt>
      <trkpt lat="44.85622" lon="3.49199">
        <ele>1125.84</ele>
        <time>2022-05-06T11:58:20Z</time>
      </trkpt>
      <trkpt lat="44.85621" lon="3.492">
        <ele>1125.84</ele>
        <time>2022-05-06T11:58:21Z</time>
      </trkpt>
      <trkpt lat="44.8562" lon="3.492">
        <ele>1125.84</ele>
        <time>2022-05-06T11:58:22Z</time>
      </trkpt>
      <trkpt lat="44.85592" lon="3.49211">
        <ele>1127.76</ele>
        <time>2022-05-06T11:58:50Z</time>
      </trkpt>
      <trkpt lat="44.8558" lon="3.49218">
        <ele>1129.21</ele>
        <time>2022-05-06T11:59:11Z</time>
      </trkpt>
      <trkpt lat="44.8558" lon="3.49222">
        <ele>1129.21</ele>
        <time>2022-05-06T11:59:44Z</time>
      </trkpt>
      <trkpt lat="44.85579" lon="3.49225">
        <ele>1129.21</ele>
        <time>2022-05-06T11:59:46Z</time>
      </trkpt>
      <trkpt lat="44.8558" lon="3.49227">
        <ele>1129.69</ele>
        <time>2022-05-06T11:59:47Z</time>
      </trkpt>
      <trkpt lat="44.85593" lon="3.49257">
        <ele>1132.09</ele>
        <time>2022-05-06T12:00:11Z</time>
      </trkpt>
      <trkpt lat="44.8561" lon="3.4928">
        <ele>1134.01</ele>
        <time>2022-05-06T12:00:34Z</time>
      </trkpt>
      <trkpt lat="44.85631" lon="3.49299">
        <ele>1136.42</ele>
        <time>2022-05-06T12:00:57Z</time>
      </trkpt>
      <trkpt lat="44.85645" lon="3.49319">
        <ele>1138.34</ele>
        <time>2022-05-06T12:01:18Z</time>
      </trkpt>
      <trkpt lat="44.85645" lon="3.49327">
        <ele>1138.82</ele>
        <time>2022-05-06T12:01:28Z</time>
      </trkpt>
      <trkpt lat="44.85641" lon="3.49346">
        <ele>1140.26</ele>
        <time>2022-05-06T12:01:45Z</time>
      </trkpt>
      <trkpt lat="44.85651" lon="3.49352">
        <ele>1141.22</ele>
        <time>2022-05-06T12:02:00Z</time>
      </trkpt>
      <trkpt lat="44.85653" lon="3.49356">
        <ele>1141.22</ele>
        <time>2022-05-06T12:02:04Z</time>
      </trkpt>
      <trkpt lat="44.85662" lon="3.49366">
        <ele>1143.14</ele>
        <time>2022-05-06T12:02:19Z</time>
      </trkpt>
      <trkpt lat="44.85666" lon="3.49372">
        <ele>1144.11</ele>
        <time>2022-05-06T12:02:28Z</time>
      </trkpt>
      <trkpt lat="44.8567" lon="3.4939">
        <ele>1146.99</ele>
        <time>2022-05-06T12:02:46Z</time>
      </trkpt>
      <trkpt lat="44.85666" lon="3.49404">
        <ele>1148.43</ele>
        <time>2022-05-06T12:02:57Z</time>
      </trkpt>
      <trkpt lat="44.85665" lon="3.49407">
        <ele>1148.43</ele>
        <time>2022-05-06T12:02:59Z</time>
      </trkpt>
      <trkpt lat="44.85665" lon="3.49434">
        <ele>1150.84</ele>
        <time>2022-05-06T12:03:18Z</time>
      </trkpt>
      <trkpt lat="44.85671" lon="3.49457">
        <ele>1153.24</ele>
        <time>2022-05-06T12:03:36Z</time>
      </trkpt>
      <trkpt lat="44.85662" lon="3.49477">
        <ele>1155.64</ele>
        <time>2022-05-06T12:03:56Z</time>
      </trkpt>
      <trkpt lat="44.85654" lon="3.49491">
        <ele>1157.56</ele>
        <time>2022-05-06T12:04:17Z</time>
      </trkpt>
      <trkpt lat="44.85652" lon="3.49497">
        <ele>1158.05</ele>
        <time>2022-05-06T12:04:41Z</time>
      </trkpt>
      <trkpt lat="44.85652" lon="3.49498">
        <ele>1158.05</ele>
        <time>2022-05-06T12:04:42Z</time>
      </trkpt>
      <trkpt lat="44.85633" lon="3.49519">
        <ele>1160.45</ele>
        <time>2022-05-06T12:05:07Z</time>
      </trkpt>
      <trkpt lat="44.85622" lon="3.49521">
        <ele>1162.37</ele>
        <time>2022-05-06T12:05:18Z</time>
      </trkpt>
      <trkpt lat="44.85621" lon="3.49521">
        <ele>1162.37</ele>
        <time>2022-05-06T12:05:19Z</time>
      </trkpt>
      <trkpt lat="44.85612" lon="3.49519">
        <ele>1163.81</ele>
        <time>2022-05-06T12:05:41Z</time>
      </trkpt>
      <trkpt lat="44.85611" lon="3.49519">
        <ele>1164.29</ele>
        <time>2022-05-06T12:06:08Z</time>
      </trkpt>
      <trkpt lat="44.85599" lon="3.49518">
        <ele>1164.77</ele>
        <time>2022-05-06T12:06:26Z</time>
      </trkpt>
      <trkpt lat="44.85564" lon="3.49515">
        <ele>1166.22</ele>
        <time>2022-05-06T12:06:55Z</time>
      </trkpt>
      <trkpt lat="44.85538" lon="3.49518">
        <ele>1165.74</ele>
        <time>2022-05-06T12:07:16Z</time>
      </trkpt>
      <trkpt lat="44.85536" lon="3.49518">
        <ele>1165.26</ele>
        <time>2022-05-06T12:07:23Z</time>
      </trkpt>
      <trkpt lat="44.85535" lon="3.49519">
        <ele>1165.26</ele>
        <time>2022-05-06T12:07:24Z</time>
      </trkpt>
      <trkpt lat="44.85534" lon="3.49519">
        <ele>1165.26</ele>
        <time>2022-05-06T12:07:25Z</time>
      </trkpt>
      <trkpt lat="44.85533" lon="3.49519">
        <ele>1165.26</ele>
        <time>2022-05-06T12:07:26Z</time>
      </trkpt>
      <trkpt lat="44.85532" lon="3.49519">
        <ele>1165.26</ele>
        <time>2022-05-06T12:07:27Z</time>
      </trkpt>
      <trkpt lat="44.85503" lon="3.49525">
        <ele>1164.29</ele>
        <time>2022-05-06T12:07:51Z</time>
      </trkpt>
      <trkpt lat="44.85476" lon="3.49531">
        <ele>1162.85</ele>
        <time>2022-05-06T12:08:14Z</time>
      </trkpt>
      <trkpt lat="44.85449" lon="3.49549">
        <ele>1160.93</ele>
        <time>2022-05-06T12:08:39Z</time>
      </trkpt>
      <trkpt lat="44.8542" lon="3.49566">
        <ele>1159.97</ele>
        <time>2022-05-06T12:09:05Z</time>
      </trkpt>
      <trkpt lat="44.85394" lon="3.49575">
        <ele>1159.49</ele>
        <time>2022-05-06T12:09:28Z</time>
      </trkpt>
      <trkpt lat="44.85371" lon="3.49585">
        <ele>1158.53</ele>
        <time>2022-05-06T12:09:48Z</time>
      </trkpt>
      <trkpt lat="44.85346" lon="3.4958">
        <ele>1159.01</ele>
        <time>2022-05-06T12:10:11Z</time>
      </trkpt>
      <trkpt lat="44.8533" lon="3.49575">
        <ele>1160.45</ele>
        <time>2022-05-06T12:10:29Z</time>
      </trkpt>
      <trkpt lat="44.85312" lon="3.49575">
        <ele>1162.37</ele>
        <time>2022-05-06T12:10:46Z</time>
      </trkpt>
      <trkpt lat="44.85285" lon="3.49571">
        <ele>1163.33</ele>
        <time>2022-05-06T12:11:10Z</time>
      </trkpt>
      <trkpt lat="44.85263" lon="3.49563">
        <ele>1165.74</ele>
        <time>2022-05-06T12:11:32Z</time>
      </trkpt>
      <trkpt lat="44.85235" lon="3.4956">
        <ele>1168.14</ele>
        <time>2022-05-06T12:11:58Z</time>
      </trkpt>
      <trkpt lat="44.85206" lon="3.49565">
        <ele>1170.54</ele>
        <time>2022-05-06T12:12:24Z</time>
      </trkpt>
      <trkpt lat="44.85175" lon="3.49577">
        <ele>1171.02</ele>
        <time>2022-05-06T12:12:52Z</time>
      </trkpt>
      <trkpt lat="44.85146" lon="3.49587">
        <ele>1171.02</ele>
        <time>2022-05-06T12:13:19Z</time>
      </trkpt>
      <trkpt lat="44.85118" lon="3.49599">
        <ele>1169.1</ele>
        <time>2022-05-06T12:13:45Z</time>
      </trkpt>
      <trkpt lat="44.85108" lon="3.49604">
        <ele>1168.62</ele>
        <time>2022-05-06T12:13:57Z</time>
      </trkpt>
      <trkpt lat="44.85107" lon="3.49605">
        <ele>1168.62</ele>
        <time>2022-05-06T12:13:58Z</time>
      </trkpt>
      <trkpt lat="44.85106" lon="3.49606">
        <ele>1168.62</ele>
        <time>2022-05-06T12:13:59Z</time>
      </trkpt>
      <trkpt lat="44.85105" lon="3.49607">
        <ele>1168.62</ele>
        <time>2022-05-06T12:14:00Z</time>
      </trkpt>
      <trkpt lat="44.85104" lon="3.49608">
        <ele>1168.62</ele>
        <time>2022-05-06T12:14:01Z</time>
      </trkpt>
      <trkpt lat="44.85094" lon="3.4962">
        <ele>1169.1</ele>
        <time>2022-05-06T12:14:12Z</time>
      </trkpt>
      <trkpt lat="44.85094" lon="3.49621">
        <ele>1169.1</ele>
        <time>2022-05-06T12:14:13Z</time>
      </trkpt>
      <trkpt lat="44.85093" lon="3.49623">
        <ele>1169.1</ele>
        <time>2022-05-06T12:14:14Z</time>
      </trkpt>
      <trkpt lat="44.85092" lon="3.49624">
        <ele>1169.1</ele>
        <time>2022-05-06T12:14:15Z</time>
      </trkpt>
      <trkpt lat="44.8509" lon="3.49627">
        <ele>1169.1</ele>
        <time>2022-05-06T12:14:18Z</time>
      </trkpt>
      <trkpt lat="44.85077" lon="3.49655">
        <ele>1169.58</ele>
        <time>2022-05-06T12:14:41Z</time>
      </trkpt>
      <trkpt lat="44.85061" lon="3.4967">
        <ele>1170.06</ele>
        <time>2022-05-06T12:15:00Z</time>
      </trkpt>
      <trkpt lat="44.85061" lon="3.49671">
        <ele>1170.06</ele>
        <time>2022-05-06T12:15:19Z</time>
      </trkpt>
      <trkpt lat="44.85062" lon="3.49672">
        <ele>1170.54</ele>
        <time>2022-05-06T12:15:49Z</time>
      </trkpt>
      <trkpt lat="44.85063" lon="3.49672">
        <ele>1170.54</ele>
        <time>2022-05-06T12:16:15Z</time>
      </trkpt>
      <trkpt lat="44.85062" lon="3.49671">
        <ele>1170.54</ele>
        <time>2022-05-06T12:16:41Z</time>
      </trkpt>
      <trkpt lat="44.85055" lon="3.49673">
        <ele>1170.54</ele>
        <time>2022-05-06T12:17:24Z</time>
      </trkpt>
      <trkpt lat="44.85054" lon="3.49673">
        <ele>1170.54</ele>
        <time>2022-05-06T12:17:25Z</time>
      </trkpt>
      <trkpt lat="44.85052" lon="3.49673">
        <ele>1170.54</ele>
        <time>2022-05-06T12:17:26Z</time>
      </trkpt>
      <trkpt lat="44.85051" lon="3.49673">
        <ele>1170.54</ele>
        <time>2022-05-06T12:17:27Z</time>
      </trkpt>
      <trkpt lat="44.85044" lon="3.49672">
        <ele>1170.54</ele>
        <time>2022-05-06T12:17:34Z</time>
      </trkpt>
      <trkpt lat="44.85018" lon="3.49662">
        <ele>1171.98</ele>
        <time>2022-05-06T12:17:59Z</time>
      </trkpt>
      <trkpt lat="44.8499" lon="3.49662">
        <ele>1172.47</ele>
        <time>2022-05-06T12:18:25Z</time>
      </trkpt>
      <trkpt lat="44.84973" lon="3.49684">
        <ele>1173.43</ele>
        <time>2022-05-06T12:18:47Z</time>
      </trkpt>
      <trkpt lat="44.84954" lon="3.49703">
        <ele>1175.83</ele>
        <time>2022-05-06T12:19:11Z</time>
      </trkpt>
      <trkpt lat="44.84945" lon="3.49714">
        <ele>1176.79</ele>
        <time>2022-05-06T12:19:26Z</time>
      </trkpt>
      <trkpt lat="44.84931" lon="3.49732">
        <ele>1179.67</ele>
        <time>2022-05-06T12:19:48Z</time>
      </trkpt>
      <trkpt lat="44.84915" lon="3.49746">
        <ele>1182.56</ele>
        <time>2022-05-06T12:20:09Z</time>
      </trkpt>
      <trkpt lat="44.84913" lon="3.49746">
        <ele>1182.56</ele>
        <time>2022-05-06T12:20:11Z</time>
      </trkpt>
      <trkpt lat="44.84912" lon="3.49746">
        <ele>1183.04</ele>
        <time>2022-05-06T12:20:12Z</time>
      </trkpt>
      <trkpt lat="44.84891" lon="3.49735">
        <ele>1184.48</ele>
        <time>2022-05-06T12:20:34Z</time>
      </trkpt>
      <trkpt lat="44.8489" lon="3.49735">
        <ele>1184.96</ele>
        <time>2022-05-06T12:20:35Z</time>
      </trkpt>
      <trkpt lat="44.8487" lon="3.49737">
        <ele>1186.88</ele>
        <time>2022-05-06T12:20:56Z</time>
      </trkpt>
      <trkpt lat="44.84849" lon="3.49725">
        <ele>1189.29</ele>
        <time>2022-05-06T12:21:19Z</time>
      </trkpt>
      <trkpt lat="44.84847" lon="3.49722">
        <ele>1189.77</ele>
        <time>2022-05-06T12:21:23Z</time>
      </trkpt>
      <trkpt lat="44.84845" lon="3.49721">
        <ele>1189.77</ele>
        <time>2022-05-06T12:21:25Z</time>
      </trkpt>
      <trkpt lat="44.84825" lon="3.49698">
        <ele>1191.21</ele>
        <time>2022-05-06T12:21:48Z</time>
      </trkpt>
      <trkpt lat="44.8481" lon="3.49676">
        <ele>1192.17</ele>
        <time>2022-05-06T12:22:08Z</time>
      </trkpt>
      <trkpt lat="44.8479" lon="3.49666">
        <ele>1192.65</ele>
        <time>2022-05-06T12:22:27Z</time>
      </trkpt>
      <trkpt lat="44.84775" lon="3.49678">
        <ele>1192.17</ele>
        <time>2022-05-06T12:22:42Z</time>
      </trkpt>
      <trkpt lat="44.84774" lon="3.49679">
        <ele>1192.17</ele>
        <time>2022-05-06T12:22:43Z</time>
      </trkpt>
      <trkpt lat="44.84774" lon="3.4968">
        <ele>1192.17</ele>
        <time>2022-05-06T12:22:44Z</time>
      </trkpt>
      <trkpt lat="44.84756" lon="3.497">
        <ele>1193.61</ele>
        <time>2022-05-06T12:23:05Z</time>
      </trkpt>
      <trkpt lat="44.84748" lon="3.49708">
        <ele>1194.09</ele>
        <time>2022-05-06T12:23:14Z</time>
      </trkpt>
      <trkpt lat="44.84747" lon="3.49709">
        <ele>1194.09</ele>
        <time>2022-05-06T12:23:15Z</time>
      </trkpt>
      <trkpt lat="44.8473" lon="3.49728">
        <ele>1194.58</ele>
        <time>2022-05-06T12:23:34Z</time>
      </trkpt>
      <trkpt lat="44.84712" lon="3.49746">
        <ele>1194.58</ele>
        <time>2022-05-06T12:23:53Z</time>
      </trkpt>
      <trkpt lat="44.8469" lon="3.49764">
        <ele>1194.09</ele>
        <time>2022-05-06T12:24:14Z</time>
      </trkpt>
      <trkpt lat="44.84669" lon="3.49782">
        <ele>1194.09</ele>
        <time>2022-05-06T12:24:35Z</time>
      </trkpt>
      <trkpt lat="44.84645" lon="3.49792">
        <ele>1194.58</ele>
        <time>2022-05-06T12:24:57Z</time>
      </trkpt>
      <trkpt lat="44.84623" lon="3.49798">
        <ele>1194.58</ele>
        <time>2022-05-06T12:25:16Z</time>
      </trkpt>
      <trkpt lat="44.84611" lon="3.49803">
        <ele>1194.58</ele>
        <time>2022-05-06T12:25:30Z</time>
      </trkpt>
      <trkpt lat="44.84604" lon="3.49807">
        <ele>1194.58</ele>
        <time>2022-05-06T12:25:36Z</time>
      </trkpt>
      <trkpt lat="44.84603" lon="3.49808">
        <ele>1194.58</ele>
        <time>2022-05-06T12:25:37Z</time>
      </trkpt>
      <trkpt lat="44.84586" lon="3.49819">
        <ele>1195.54</ele>
        <time>2022-05-06T12:25:54Z</time>
      </trkpt>
      <trkpt lat="44.84576" lon="3.49824">
        <ele>1197.46</ele>
        <time>2022-05-06T12:26:11Z</time>
      </trkpt>
      <trkpt lat="44.84576" lon="3.49824">
        <ele>1196.98</ele>
        <time>2022-05-06T12:26:47Z</time>
      </trkpt>
      <trkpt lat="44.84574" lon="3.49825">
        <ele>1196.98</ele>
        <time>2022-05-06T12:27:24Z</time>
      </trkpt>
      <trkpt lat="44.84563" lon="3.49828">
        <ele>1196.98</ele>
        <time>2022-05-06T12:27:41Z</time>
      </trkpt>
      <trkpt lat="44.84547" lon="3.4983">
        <ele>1196.98</ele>
        <time>2022-05-06T12:27:59Z</time>
      </trkpt>
      <trkpt lat="44.84528" lon="3.49834">
        <ele>1197.94</ele>
        <time>2022-05-06T12:28:18Z</time>
      </trkpt>
      <trkpt lat="44.84511" lon="3.49849">
        <ele>1199.86</ele>
        <time>2022-05-06T12:28:41Z</time>
      </trkpt>
      <trkpt lat="44.84511" lon="3.4985">
        <ele>1199.86</ele>
        <time>2022-05-06T12:28:42Z</time>
      </trkpt>
      <trkpt lat="44.84501" lon="3.49857">
        <ele>1201.3</ele>
        <time>2022-05-06T12:28:56Z</time>
      </trkpt>
      <trkpt lat="44.84484" lon="3.49865">
        <ele>1202.75</ele>
        <time>2022-05-06T12:29:20Z</time>
      </trkpt>
      <trkpt lat="44.8447" lon="3.49869">
        <ele>1205.63</ele>
        <time>2022-05-06T12:29:40Z</time>
      </trkpt>
      <trkpt lat="44.84455" lon="3.49863">
        <ele>1207.07</ele>
        <time>2022-05-06T12:30:03Z</time>
      </trkpt>
      <trkpt lat="44.84435" lon="3.49852">
        <ele>1209</ele>
        <time>2022-05-06T12:30:25Z</time>
      </trkpt>
      <trkpt lat="44.84433" lon="3.49851">
        <ele>1209</ele>
        <time>2022-05-06T12:30:27Z</time>
      </trkpt>
      <trkpt lat="44.84421" lon="3.49847">
        <ele>1209</ele>
        <time>2022-05-06T12:30:41Z</time>
      </trkpt>
      <trkpt lat="44.84414" lon="3.49841">
        <ele>1209</ele>
        <time>2022-05-06T12:30:48Z</time>
      </trkpt>
      <trkpt lat="44.84396" lon="3.4984">
        <ele>1209.48</ele>
        <time>2022-05-06T12:31:07Z</time>
      </trkpt>
      <trkpt lat="44.84383" lon="3.49839">
        <ele>1209.96</ele>
        <time>2022-05-06T12:31:20Z</time>
      </trkpt>
      <trkpt lat="44.84373" lon="3.49836">
        <ele>1209</ele>
        <time>2022-05-06T12:31:35Z</time>
      </trkpt>
      <trkpt lat="44.84351" lon="3.49826">
        <ele>1208.03</ele>
        <time>2022-05-06T12:31:57Z</time>
      </trkpt>
      <trkpt lat="44.84338" lon="3.49828">
        <ele>1207.55</ele>
        <time>2022-05-06T12:32:18Z</time>
      </trkpt>
      <trkpt lat="44.84318" lon="3.49829">
        <ele>1208.51</ele>
        <time>2022-05-06T12:32:40Z</time>
      </trkpt>
      <trkpt lat="44.84303" lon="3.49826">
        <ele>1208.03</ele>
        <time>2022-05-06T12:32:53Z</time>
      </trkpt>
      <trkpt lat="44.84302" lon="3.49825">
        <ele>1208.03</ele>
        <time>2022-05-06T12:32:54Z</time>
      </trkpt>
      <trkpt lat="44.84289" lon="3.49815">
        <ele>1207.55</ele>
        <time>2022-05-06T12:33:11Z</time>
      </trkpt>
      <trkpt lat="44.84281" lon="3.49798">
        <ele>1209</ele>
        <time>2022-05-06T12:33:32Z</time>
      </trkpt>
      <trkpt lat="44.84277" lon="3.49769">
        <ele>1210.92</ele>
        <time>2022-05-06T12:33:56Z</time>
      </trkpt>
      <trkpt lat="44.84269" lon="3.49746">
        <ele>1212.36</ele>
        <time>2022-05-06T12:34:19Z</time>
      </trkpt>
      <trkpt lat="44.84266" lon="3.49737">
        <ele>1212.84</ele>
        <time>2022-05-06T12:34:48Z</time>
      </trkpt>
      <trkpt lat="44.84255" lon="3.49718">
        <ele>1212.84</ele>
        <time>2022-05-06T12:35:12Z</time>
      </trkpt>
      <trkpt lat="44.84247" lon="3.497">
        <ele>1212.36</ele>
        <time>2022-05-06T12:35:27Z</time>
      </trkpt>
      <trkpt lat="44.84237" lon="3.49673">
        <ele>1212.36</ele>
        <time>2022-05-06T12:35:51Z</time>
      </trkpt>
      <trkpt lat="44.84223" lon="3.49647">
        <ele>1213.8</ele>
        <time>2022-05-06T12:36:13Z</time>
      </trkpt>
      <trkpt lat="44.84216" lon="3.49628">
        <ele>1214.28</ele>
        <time>2022-05-06T12:36:26Z</time>
      </trkpt>
      <trkpt lat="44.84201" lon="3.49612">
        <ele>1216.69</ele>
        <time>2022-05-06T12:36:48Z</time>
      </trkpt>
      <trkpt lat="44.84196" lon="3.49606">
        <ele>1217.17</ele>
        <time>2022-05-06T12:36:55Z</time>
      </trkpt>
      <trkpt lat="44.84188" lon="3.49587">
        <ele>1217.65</ele>
        <time>2022-05-06T12:37:04Z</time>
      </trkpt>
      <trkpt lat="44.84186" lon="3.49584">
        <ele>1217.65</ele>
        <time>2022-05-06T12:37:08Z</time>
      </trkpt>
      <trkpt lat="44.84175" lon="3.49563">
        <ele>1219.09</ele>
        <time>2022-05-06T12:37:30Z</time>
      </trkpt>
      <trkpt lat="44.84162" lon="3.49543">
        <ele>1220.05</ele>
        <time>2022-05-06T12:37:50Z</time>
      </trkpt>
      <trkpt lat="44.84152" lon="3.49538">
        <ele>1221.01</ele>
        <time>2022-05-06T12:38:01Z</time>
      </trkpt>
      <trkpt lat="44.84131" lon="3.4953">
        <ele>1223.9</ele>
        <time>2022-05-06T12:38:24Z</time>
      </trkpt>
      <trkpt lat="44.84118" lon="3.49528">
        <ele>1225.82</ele>
        <time>2022-05-06T12:38:43Z</time>
      </trkpt>
      <trkpt lat="44.84115" lon="3.49527">
        <ele>1226.78</ele>
        <time>2022-05-06T12:39:06Z</time>
      </trkpt>
      <trkpt lat="44.84115" lon="3.49526">
        <ele>1226.78</ele>
        <time>2022-05-06T12:39:39Z</time>
      </trkpt>
      <trkpt lat="44.84114" lon="3.49526">
        <ele>1226.78</ele>
        <time>2022-05-06T12:40:03Z</time>
      </trkpt>
      <trkpt lat="44.84113" lon="3.49527">
        <ele>1226.78</ele>
        <time>2022-05-06T12:40:29Z</time>
      </trkpt>
      <trkpt lat="44.84108" lon="3.4953">
        <ele>1226.78</ele>
        <time>2022-05-06T12:40:58Z</time>
      </trkpt>
      <trkpt lat="44.84097" lon="3.49535">
        <ele>1230.14</ele>
        <time>2022-05-06T12:41:12Z</time>
      </trkpt>
      <trkpt lat="44.84078" lon="3.49536">
        <ele>1233.03</ele>
        <time>2022-05-06T12:41:30Z</time>
      </trkpt>
      <trkpt lat="44.8406" lon="3.49541">
        <ele>1235.91</ele>
        <time>2022-05-06T12:41:53Z</time>
      </trkpt>
      <trkpt lat="44.84038" lon="3.4955">
        <ele>1238.8</ele>
        <time>2022-05-06T12:42:19Z</time>
      </trkpt>
      <trkpt lat="44.84025" lon="3.49562">
        <ele>1242.16</ele>
        <time>2022-05-06T12:42:40Z</time>
      </trkpt>
      <trkpt lat="44.84008" lon="3.49568">
        <ele>1245.04</ele>
        <time>2022-05-06T12:43:00Z</time>
      </trkpt>
      <trkpt lat="44.83984" lon="3.49573">
        <ele>1247.93</ele>
        <time>2022-05-06T12:43:28Z</time>
      </trkpt>
      <trkpt lat="44.83979" lon="3.49573">
        <ele>1248.89</ele>
        <time>2022-05-06T12:43:37Z</time>
      </trkpt>
      <trkpt lat="44.83969" lon="3.49571">
        <ele>1249.37</ele>
        <time>2022-05-06T12:44:01Z</time>
      </trkpt>
      <trkpt lat="44.83946" lon="3.49566">
        <ele>1249.85</ele>
        <time>2022-05-06T12:44:24Z</time>
      </trkpt>
      <trkpt lat="44.83926" lon="3.49561">
        <ele>1251.77</ele>
        <time>2022-05-06T12:44:45Z</time>
      </trkpt>
      <trkpt lat="44.83908" lon="3.49556">
        <ele>1254.18</ele>
        <time>2022-05-06T12:45:08Z</time>
      </trkpt>
      <trkpt lat="44.83886" lon="3.49556">
        <ele>1256.58</ele>
        <time>2022-05-06T12:45:35Z</time>
      </trkpt>
      <trkpt lat="44.8387" lon="3.49569">
        <ele>1259.94</ele>
        <time>2022-05-06T12:45:59Z</time>
      </trkpt>
      <trkpt lat="44.83849" lon="3.49566">
        <ele>1262.35</ele>
        <time>2022-05-06T12:46:24Z</time>
      </trkpt>
      <trkpt lat="44.83827" lon="3.49569">
        <ele>1265.23</ele>
        <time>2022-05-06T12:46:50Z</time>
      </trkpt>
      <trkpt lat="44.83806" lon="3.49574">
        <ele>1267.16</ele>
        <time>2022-05-06T12:47:16Z</time>
      </trkpt>
      <trkpt lat="44.83779" lon="3.49579">
        <ele>1269.56</ele>
        <time>2022-05-06T12:47:45Z</time>
      </trkpt>
      <trkpt lat="44.83768" lon="3.49583">
        <ele>1271</ele>
        <time>2022-05-06T12:48:06Z</time>
      </trkpt>
      <trkpt lat="44.83767" lon="3.49584">
        <ele>1271</ele>
        <time>2022-05-06T12:48:39Z</time>
      </trkpt>
      <trkpt lat="44.83766" lon="3.49583">
        <ele>1271</ele>
        <time>2022-05-06T12:49:12Z</time>
      </trkpt>
      <trkpt lat="44.83761" lon="3.49583">
        <ele>1271.96</ele>
        <time>2022-05-06T12:49:44Z</time>
      </trkpt>
      <trkpt lat="44.83745" lon="3.49584">
        <ele>1273.4</ele>
        <time>2022-05-06T12:50:05Z</time>
      </trkpt>
      <trkpt lat="44.83741" lon="3.49582">
        <ele>1273.4</ele>
        <time>2022-05-06T12:50:13Z</time>
      </trkpt>
      <trkpt lat="44.83729" lon="3.49577">
        <ele>1273.88</ele>
        <time>2022-05-06T12:50:32Z</time>
      </trkpt>
      <trkpt lat="44.8371" lon="3.49575">
        <ele>1275.33</ele>
        <time>2022-05-06T12:50:55Z</time>
      </trkpt>
      <trkpt lat="44.83694" lon="3.4957">
        <ele>1275.81</ele>
        <time>2022-05-06T12:51:12Z</time>
      </trkpt>
      <trkpt lat="44.83691" lon="3.49569">
        <ele>1275.81</ele>
        <time>2022-05-06T12:51:15Z</time>
      </trkpt>
      <trkpt lat="44.83674" lon="3.49565">
        <ele>1276.29</ele>
        <time>2022-05-06T12:51:30Z</time>
      </trkpt>
      <trkpt lat="44.83658" lon="3.49561">
        <ele>1277.25</ele>
        <time>2022-05-06T12:51:45Z</time>
      </trkpt>
      <trkpt lat="44.83634" lon="3.49558">
        <ele>1278.21</ele>
        <time>2022-05-06T12:52:12Z</time>
      </trkpt>
      <trkpt lat="44.83631" lon="3.49556">
        <ele>1278.21</ele>
        <time>2022-05-06T12:52:15Z</time>
      </trkpt>
      <trkpt lat="44.8363" lon="3.49556">
        <ele>1278.69</ele>
        <time>2022-05-06T12:52:16Z</time>
      </trkpt>
      <trkpt lat="44.83629" lon="3.49555">
        <ele>1278.69</ele>
        <time>2022-05-06T12:52:17Z</time>
      </trkpt>
      <trkpt lat="44.83628" lon="3.49555">
        <ele>1278.69</ele>
        <time>2022-05-06T12:52:18Z</time>
      </trkpt>
      <trkpt lat="44.83619" lon="3.49553">
        <ele>1278.69</ele>
        <time>2022-05-06T12:52:27Z</time>
      </trkpt>
      <trkpt lat="44.83615" lon="3.49553">
        <ele>1279.17</ele>
        <time>2022-05-06T12:52:31Z</time>
      </trkpt>
      <trkpt lat="44.83605" lon="3.49552">
        <ele>1279.17</ele>
        <time>2022-05-06T12:52:42Z</time>
      </trkpt>
      <trkpt lat="44.83588" lon="3.49549">
        <ele>1279.17</ele>
        <time>2022-05-06T12:52:58Z</time>
      </trkpt>
      <trkpt lat="44.83586" lon="3.49548">
        <ele>1279.65</ele>
        <time>2022-05-06T12:53:00Z</time>
      </trkpt>
      <trkpt lat="44.83563" lon="3.49543">
        <ele>1280.13</ele>
        <time>2022-05-06T12:53:23Z</time>
      </trkpt>
      <trkpt lat="44.83545" lon="3.49544">
        <ele>1280.61</ele>
        <time>2022-05-06T12:53:41Z</time>
      </trkpt>
      <trkpt lat="44.83531" lon="3.49557">
        <ele>1281.57</ele>
        <time>2022-05-06T12:53:58Z</time>
      </trkpt>
      <trkpt lat="44.83524" lon="3.49558">
        <ele>1282.54</ele>
        <time>2022-05-06T12:54:12Z</time>
      </trkpt>
      <trkpt lat="44.83522" lon="3.49559">
        <ele>1283.02</ele>
        <time>2022-05-06T12:54:30Z</time>
      </trkpt>
      <trkpt lat="44.83521" lon="3.49562">
        <ele>1283.02</ele>
        <time>2022-05-06T12:54:32Z</time>
      </trkpt>
      <trkpt lat="44.83521" lon="3.49582">
        <ele>1283.98</ele>
        <time>2022-05-06T12:54:48Z</time>
      </trkpt>
      <trkpt lat="44.83518" lon="3.49613">
        <ele>1286.86</ele>
        <time>2022-05-06T12:55:12Z</time>
      </trkpt>
      <trkpt lat="44.83513" lon="3.49641">
        <ele>1290.23</ele>
        <time>2022-05-06T12:55:37Z</time>
      </trkpt>
      <trkpt lat="44.8351" lon="3.49679">
        <ele>1292.63</ele>
        <time>2022-05-06T12:56:02Z</time>
      </trkpt>
      <trkpt lat="44.83508" lon="3.49703">
        <ele>1295.03</ele>
        <time>2022-05-06T12:56:24Z</time>
      </trkpt>
      <trkpt lat="44.83507" lon="3.49725">
        <ele>1298.4</ele>
        <time>2022-05-06T12:56:43Z</time>
      </trkpt>
      <trkpt lat="44.83502" lon="3.49746">
        <ele>1301.28</ele>
        <time>2022-05-06T12:57:01Z</time>
      </trkpt>
      <trkpt lat="44.8349" lon="3.4976">
        <ele>1304.17</ele>
        <time>2022-05-06T12:57:20Z</time>
      </trkpt>
      <trkpt lat="44.83467" lon="3.49758">
        <ele>1303.69</ele>
        <time>2022-05-06T12:57:46Z</time>
      </trkpt>
      <trkpt lat="44.83465" lon="3.49758">
        <ele>1303.69</ele>
        <time>2022-05-06T12:57:47Z</time>
      </trkpt>
      <trkpt lat="44.83444" lon="3.49749">
        <ele>1302.72</ele>
        <time>2022-05-06T12:58:07Z</time>
      </trkpt>
      <trkpt lat="44.83416" lon="3.49742">
        <ele>1301.76</ele>
        <time>2022-05-06T12:58:33Z</time>
      </trkpt>
      <trkpt lat="44.83389" lon="3.4973">
        <ele>1300.8</ele>
        <time>2022-05-06T12:58:58Z</time>
      </trkpt>
      <trkpt lat="44.83366" lon="3.49725">
        <ele>1300.32</ele>
        <time>2022-05-06T12:59:23Z</time>
      </trkpt>
      <trkpt lat="44.83342" lon="3.49716">
        <ele>1300.8</ele>
        <time>2022-05-06T12:59:46Z</time>
      </trkpt>
      <trkpt lat="44.83325" lon="3.49711">
        <ele>1300.8</ele>
        <time>2022-05-06T13:00:08Z</time>
      </trkpt>
      <trkpt lat="44.83303" lon="3.49706">
        <ele>1301.76</ele>
        <time>2022-05-06T13:00:28Z</time>
      </trkpt>
      <trkpt lat="44.83277" lon="3.49698">
        <ele>1304.17</ele>
        <time>2022-05-06T13:00:53Z</time>
      </trkpt>
      <trkpt lat="44.83253" lon="3.49689">
        <ele>1305.61</ele>
        <time>2022-05-06T13:01:15Z</time>
      </trkpt>
      <trkpt lat="44.8323" lon="3.49679">
        <ele>1307.05</ele>
        <time>2022-05-06T13:01:38Z</time>
      </trkpt>
      <trkpt lat="44.83203" lon="3.49673">
        <ele>1308.01</ele>
        <time>2022-05-06T13:02:02Z</time>
      </trkpt>
      <trkpt lat="44.83187" lon="3.49669">
        <ele>1308.49</ele>
        <time>2022-05-06T13:02:18Z</time>
      </trkpt>
      <trkpt lat="44.83166" lon="3.4966">
        <ele>1308.97</ele>
        <time>2022-05-06T13:02:38Z</time>
      </trkpt>
      <trkpt lat="44.83148" lon="3.49653">
        <ele>1309.45</ele>
        <time>2022-05-06T13:02:55Z</time>
      </trkpt>
      <trkpt lat="44.83136" lon="3.49651">
        <ele>1309.93</ele>
        <time>2022-05-06T13:03:12Z</time>
      </trkpt>
      <trkpt lat="44.83136" lon="3.49651">
        <ele>1309.93</ele>
        <time>2022-05-06T13:03:13Z</time>
      </trkpt>
      <trkpt lat="44.83134" lon="3.4965">
        <ele>1309.93</ele>
        <time>2022-05-06T13:03:14Z</time>
      </trkpt>
      <trkpt lat="44.83133" lon="3.4965">
        <ele>1309.93</ele>
        <time>2022-05-06T13:03:15Z</time>
      </trkpt>
      <trkpt lat="44.83132" lon="3.4965">
        <ele>1309.93</ele>
        <time>2022-05-06T13:03:16Z</time>
      </trkpt>
      <trkpt lat="44.83111" lon="3.49641">
        <ele>1309.93</ele>
        <time>2022-05-06T13:03:35Z</time>
      </trkpt>
      <trkpt lat="44.83096" lon="3.49637">
        <ele>1309.93</ele>
        <time>2022-05-06T13:03:52Z</time>
      </trkpt>
      <trkpt lat="44.83094" lon="3.49637">
        <ele>1309.93</ele>
        <time>2022-05-06T13:03:53Z</time>
      </trkpt>
      <trkpt lat="44.83093" lon="3.49637">
        <ele>1309.93</ele>
        <time>2022-05-06T13:03:54Z</time>
      </trkpt>
      <trkpt lat="44.83092" lon="3.49637">
        <ele>1309.93</ele>
        <time>2022-05-06T13:03:55Z</time>
      </trkpt>
      <trkpt lat="44.83091" lon="3.49636">
        <ele>1309.93</ele>
        <time>2022-05-06T13:03:56Z</time>
      </trkpt>
      <trkpt lat="44.8309" lon="3.49636">
        <ele>1309.93</ele>
        <time>2022-05-06T13:03:57Z</time>
      </trkpt>
      <trkpt lat="44.83067" lon="3.49629">
        <ele>1310.41</ele>
        <time>2022-05-06T13:04:20Z</time>
      </trkpt>
      <trkpt lat="44.83045" lon="3.49622">
        <ele>1310.41</ele>
        <time>2022-05-06T13:04:41Z</time>
      </trkpt>
      <trkpt lat="44.83027" lon="3.49617">
        <ele>1310.41</ele>
        <time>2022-05-06T13:04:57Z</time>
      </trkpt>
      <trkpt lat="44.83005" lon="3.49608">
        <ele>1310.9</ele>
        <time>2022-05-06T13:05:19Z</time>
      </trkpt>
      <trkpt lat="44.83008" lon="3.49599">
        <ele>1310.41</ele>
        <time>2022-05-06T13:05:31Z</time>
      </trkpt>
      <trkpt lat="44.83009" lon="3.49598">
        <ele>1310.41</ele>
        <time>2022-05-06T13:05:32Z</time>
      </trkpt>
      <trkpt lat="44.83017" lon="3.49592">
        <ele>1309.45</ele>
        <time>2022-05-06T13:05:42Z</time>
      </trkpt>
      <trkpt lat="44.83037" lon="3.49574">
        <ele>1308.01</ele>
        <time>2022-05-06T13:06:03Z</time>
      </trkpt>
      <trkpt lat="44.83061" lon="3.49546">
        <ele>1307.05</ele>
        <time>2022-05-06T13:06:30Z</time>
      </trkpt>
      <trkpt lat="44.83076" lon="3.49514">
        <ele>1306.09</ele>
        <time>2022-05-06T13:06:54Z</time>
      </trkpt>
      <trkpt lat="44.83083" lon="3.49475">
        <ele>1307.05</ele>
        <time>2022-05-06T13:07:19Z</time>
      </trkpt>
      <trkpt lat="44.83086" lon="3.49433">
        <ele>1305.13</ele>
        <time>2022-05-06T13:07:45Z</time>
      </trkpt>
      <trkpt lat="44.83082" lon="3.49392">
        <ele>1303.2</ele>
        <time>2022-05-06T13:08:11Z</time>
      </trkpt>
      <trkpt lat="44.83071" lon="3.49361">
        <ele>1301.28</ele>
        <time>2022-05-06T13:08:33Z</time>
      </trkpt>
      <trkpt lat="44.83056" lon="3.49333">
        <ele>1299.84</ele>
        <time>2022-05-06T13:08:54Z</time>
      </trkpt>
      <trkpt lat="44.83045" lon="3.49306">
        <ele>1297.92</ele>
        <time>2022-05-06T13:09:15Z</time>
      </trkpt>
      <trkpt lat="44.83042" lon="3.493">
        <ele>1296.96</ele>
        <time>2022-05-06T13:09:29Z</time>
      </trkpt>
      <trkpt lat="44.8304" lon="3.49295">
        <ele>1296.96</ele>
        <time>2022-05-06T13:09:40Z</time>
      </trkpt>
      <trkpt lat="44.8304" lon="3.49294">
        <ele>1296.96</ele>
        <time>2022-05-06T13:09:41Z</time>
      </trkpt>
      <trkpt lat="44.8304" lon="3.49292">
        <ele>1296.96</ele>
        <time>2022-05-06T13:09:42Z</time>
      </trkpt>
      <trkpt lat="44.83038" lon="3.49286">
        <ele>1295.99</ele>
        <time>2022-05-06T13:09:56Z</time>
      </trkpt>
      <trkpt lat="44.83038" lon="3.49285">
        <ele>1295.99</ele>
        <time>2022-05-06T13:09:57Z</time>
      </trkpt>
      <trkpt lat="44.83037" lon="3.49283">
        <ele>1295.99</ele>
        <time>2022-05-06T13:09:58Z</time>
      </trkpt>
      <trkpt lat="44.83026" lon="3.49255">
        <ele>1295.03</ele>
        <time>2022-05-06T13:10:18Z</time>
      </trkpt>
      <trkpt lat="44.83023" lon="3.49243">
        <ele>1293.11</ele>
        <time>2022-05-06T13:10:32Z</time>
      </trkpt>
      <trkpt lat="44.83023" lon="3.49242">
        <ele>1293.11</ele>
        <time>2022-05-06T13:10:33Z</time>
      </trkpt>
      <trkpt lat="44.83022" lon="3.49241">
        <ele>1293.11</ele>
        <time>2022-05-06T13:10:34Z</time>
      </trkpt>
      <trkpt lat="44.83021" lon="3.49239">
        <ele>1293.11</ele>
        <time>2022-05-06T13:10:35Z</time>
      </trkpt>
      <trkpt lat="44.83011" lon="3.4922">
        <ele>1292.15</ele>
        <time>2022-05-06T13:10:51Z</time>
      </trkpt>
      <trkpt lat="44.82998" lon="3.49192">
        <ele>1289.27</ele>
        <time>2022-05-06T13:11:12Z</time>
      </trkpt>
      <trkpt lat="44.82983" lon="3.49166">
        <ele>1286.86</ele>
        <time>2022-05-06T13:11:33Z</time>
      </trkpt>
      <trkpt lat="44.82962" lon="3.49144">
        <ele>1283.5</ele>
        <time>2022-05-06T13:11:55Z</time>
      </trkpt>
      <trkpt lat="44.8294" lon="3.49127">
        <ele>1281.57</ele>
        <time>2022-05-06T13:12:17Z</time>
      </trkpt>
      <trkpt lat="44.82916" lon="3.49113">
        <ele>1280.13</ele>
        <time>2022-05-06T13:12:40Z</time>
      </trkpt>
      <trkpt lat="44.82884" lon="3.49102">
        <ele>1278.21</ele>
        <time>2022-05-06T13:13:08Z</time>
      </trkpt>
      <trkpt lat="44.82854" lon="3.4909">
        <ele>1277.25</ele>
        <time>2022-05-06T13:13:35Z</time>
      </trkpt>
      <trkpt lat="44.82835" lon="3.49081">
        <ele>1278.21</ele>
        <time>2022-05-06T13:13:53Z</time>
      </trkpt>
      <trkpt lat="44.82819" lon="3.49074">
        <ele>1279.17</ele>
        <time>2022-05-06T13:14:09Z</time>
      </trkpt>
      <trkpt lat="44.82809" lon="3.49071">
        <ele>1279.65</ele>
        <time>2022-05-06T13:14:22Z</time>
      </trkpt>
      <trkpt lat="44.82807" lon="3.49069">
        <ele>1279.65</ele>
        <time>2022-05-06T13:14:33Z</time>
      </trkpt>
      <trkpt lat="44.82804" lon="3.49068">
        <ele>1280.13</ele>
        <time>2022-05-06T13:14:36Z</time>
      </trkpt>
      <trkpt lat="44.82803" lon="3.49067">
        <ele>1280.13</ele>
        <time>2022-05-06T13:14:37Z</time>
      </trkpt>
      <trkpt lat="44.82802" lon="3.49067">
        <ele>1280.13</ele>
        <time>2022-05-06T13:14:38Z</time>
      </trkpt>
      <trkpt lat="44.82781" lon="3.49074">
        <ele>1281.57</ele>
        <time>2022-05-06T13:14:59Z</time>
      </trkpt>
      <trkpt lat="44.82766" lon="3.49084">
        <ele>1283.5</ele>
        <time>2022-05-06T13:15:19Z</time>
      </trkpt>
      <trkpt lat="44.82752" lon="3.49098">
        <ele>1284.94</ele>
        <time>2022-05-06T13:15:38Z</time>
      </trkpt>
      <trkpt lat="44.82738" lon="3.49111">
        <ele>1286.38</ele>
        <time>2022-05-06T13:15:56Z</time>
      </trkpt>
      <trkpt lat="44.82737" lon="3.49112">
        <ele>1286.38</ele>
        <time>2022-05-06T13:15:57Z</time>
      </trkpt>
      <trkpt lat="44.82735" lon="3.49113">
        <ele>1286.38</ele>
        <time>2022-05-06T13:15:59Z</time>
      </trkpt>
      <trkpt lat="44.82715" lon="3.49125">
        <ele>1287.82</ele>
        <time>2022-05-06T13:16:19Z</time>
      </trkpt>
      <trkpt lat="44.82694" lon="3.49122">
        <ele>1287.82</ele>
        <time>2022-05-06T13:16:38Z</time>
      </trkpt>
      <trkpt lat="44.82668" lon="3.49113">
        <ele>1287.34</ele>
        <time>2022-05-06T13:17:01Z</time>
      </trkpt>
      <trkpt lat="44.82638" lon="3.49103">
        <ele>1286.38</ele>
        <time>2022-05-06T13:17:28Z</time>
      </trkpt>
      <trkpt lat="44.82613" lon="3.49092">
        <ele>1285.42</ele>
        <time>2022-05-06T13:17:51Z</time>
      </trkpt>
      <trkpt lat="44.8259" lon="3.49078">
        <ele>1284.46</ele>
        <time>2022-05-06T13:18:13Z</time>
      </trkpt>
      <trkpt lat="44.82565" lon="3.49063">
        <ele>1283.5</ele>
        <time>2022-05-06T13:18:35Z</time>
      </trkpt>
      <trkpt lat="44.82537" lon="3.49047">
        <ele>1282.06</ele>
        <time>2022-05-06T13:19:00Z</time>
      </trkpt>
      <trkpt lat="44.82514" lon="3.49032">
        <ele>1281.57</ele>
        <time>2022-05-06T13:19:21Z</time>
      </trkpt>
      <trkpt lat="44.82493" lon="3.49019">
        <ele>1281.57</ele>
        <time>2022-05-06T13:19:40Z</time>
      </trkpt>
      <trkpt lat="44.8248" lon="3.48998">
        <ele>1281.57</ele>
        <time>2022-05-06T13:19:57Z</time>
      </trkpt>
      <trkpt lat="44.82469" lon="3.48968">
        <ele>1282.06</ele>
        <time>2022-05-06T13:20:18Z</time>
      </trkpt>
      <trkpt lat="44.82465" lon="3.48955">
        <ele>1282.06</ele>
        <time>2022-05-06T13:20:30Z</time>
      </trkpt>
      <trkpt lat="44.82464" lon="3.48953">
        <ele>1282.06</ele>
        <time>2022-05-06T13:20:32Z</time>
      </trkpt>
      <trkpt lat="44.82456" lon="3.48923">
        <ele>1283.5</ele>
        <time>2022-05-06T13:20:53Z</time>
      </trkpt>
      <trkpt lat="44.82454" lon="3.48886">
        <ele>1283.98</ele>
        <time>2022-05-06T13:21:15Z</time>
      </trkpt>
      <trkpt lat="44.82452" lon="3.48852">
        <ele>1284.46</ele>
        <time>2022-05-06T13:21:35Z</time>
      </trkpt>
      <trkpt lat="44.82451" lon="3.48813">
        <ele>1283.98</ele>
        <time>2022-05-06T13:21:58Z</time>
      </trkpt>
      <trkpt lat="44.82451" lon="3.48779">
        <ele>1283.5</ele>
        <time>2022-05-06T13:22:19Z</time>
      </trkpt>
      <trkpt lat="44.82445" lon="3.48757">
        <ele>1283.02</ele>
        <time>2022-05-06T13:22:36Z</time>
      </trkpt>
      <trkpt lat="44.82435" lon="3.48744">
        <ele>1283.02</ele>
        <time>2022-05-06T13:22:50Z</time>
      </trkpt>
      <trkpt lat="44.82433" lon="3.48745">
        <ele>1282.54</ele>
        <time>2022-05-06T13:22:51Z</time>
      </trkpt>
      <trkpt lat="44.82431" lon="3.48746">
        <ele>1282.54</ele>
        <time>2022-05-06T13:22:53Z</time>
      </trkpt>
      <trkpt lat="44.8243" lon="3.48746">
        <ele>1282.54</ele>
        <time>2022-05-06T13:22:54Z</time>
      </trkpt>
      <trkpt lat="44.82429" lon="3.48747">
        <ele>1282.06</ele>
        <time>2022-05-06T13:22:55Z</time>
      </trkpt>
      <trkpt lat="44.82409" lon="3.48741">
        <ele>1279.65</ele>
        <time>2022-05-06T13:23:16Z</time>
      </trkpt>
      <trkpt lat="44.82407" lon="3.48737">
        <ele>1279.17</ele>
        <time>2022-05-06T13:23:20Z</time>
      </trkpt>
      <trkpt lat="44.82418" lon="3.48714">
        <ele>1277.73</ele>
        <time>2022-05-06T13:23:37Z</time>
      </trkpt>
      <trkpt lat="44.82428" lon="3.48711">
        <ele>1276.77</ele>
        <time>2022-05-06T13:23:56Z</time>
      </trkpt>
      <trkpt lat="44.82431" lon="3.48728">
        <ele>1277.25</ele>
        <time>2022-05-06T13:24:36Z</time>
      </trkpt>
      <trkpt lat="44.82425" lon="3.48717">
        <ele>1278.21</ele>
        <time>2022-05-06T13:24:51Z</time>
      </trkpt>
      <trkpt lat="44.82424" lon="3.48712">
        <ele>1278.21</ele>
        <time>2022-05-06T13:25:02Z</time>
      </trkpt>
      <trkpt lat="44.82426" lon="3.48712">
        <ele>1276.77</ele>
        <time>2022-05-06T13:25:10Z</time>
      </trkpt>
    </trkseg>
  </trk>
</gpx>